[[{"header":{"parameterUnit":"m.s-1","parameterCategory":1,"la1":31.0,"la2":29.5877,"lo1":-88.7671,"lo2":-86.6584,"dy":0.0162,"dx":0.0185,"nx":115,"ny":88,"refTime":"2024-08-29T06:00:00:Z","depth":0,"parameterNumber":2,"parameterNumberName":"U-component_of_WINDS"},"data":[0.0,0.0,0.0,0.0,0.0,0.0,0.0,0.0,0.0,0.0,0.0,0.0,0.0,0.0,0.0,0.0,0.0,0.0,0.0,0.0,0.0,0.0,0.0,0.0,0.0,0.0,0.0,0.0,0.0,0.0,0.0,0.0,0.0,0.0,0.0,0.0,0.0,0.0,0.0,0.0,0.0,0.0,0.0,0.0,0.0,0.0,0.0,0.0,0.0,0.0,0.0,0.0,0.0,0.0,0.0,0.0,0.0,0.0,0.0,0.0,0.0,0.0,0.0,0.0,0.0,0.0,0.0,0.0,0.0,0.0,0.0,0.0,0.0,0.0,0.0,0.0,0.0,0.0,0.0,0.0,0.0,0.0,0.0,0.0,0.0,0.0,0.0,0.0,0.0,0.0,0.0,0.0,0.0,0.0,0.0,0.0,0.0,0.0,0.0,0.0,0.0,0.0,0.0,0.0,0.0,0.0,0.0,0.0,0.0,0.0,0.0,0.0,0.0,0.0,0.0,0.0,0.0,0.0,0.0,0.0,0.0,0.0,0.0,0.0,0.0,0.0,0.0,0.0,0.0,0.0,0.0,0.0,0.0,0.0,0.0,0.0,0.0,0.0,0.0,0.0,0.0,0.0,0.0,0.0,0.0,0.0,0.0,0.0,0.0,0.0,0.0,0.0,0.0,0.0,0.0,0.0,0.0,0.0,0.0,0.0,0.0,0.0,0.0,0.0,0.0,0.0,0.0,0.0,0.0,0.0,0.0,0.0,0.0,0.0,0.0,0.0,0.0,0.0,0.0,0.0,0.0,0.0,0.0,0.0,0.0,0.0,0.0,0.0,0.0,0.0,0.0,0.0,0.0,0.0,0.0,0.0,0.0,0.0,0.0,0.0,0.0,0.0,0.0,0.0,0.0,0.0,0.0,0.0,0.0,0.0,0.0,0.0,0.0,0.0,0.0,0.0,0.0,0.0,0.0,0.0,0.0,0.0,0.0,0.0,0.0,0.0,0.0,0.0,0.0,0.0,0.0,0.0,0.0,0.0,0.0,0.0,0.0,0.0,0.0,0.0,0.0,0.0,0.0,0.0,0.0,0.0,0.0,0.0,0.0,0.0,0.0,0.0,0.0,0.0,0.0,0.0,0.0,0.0,0.0,0.0,0.0,0.0,0.0,0.0,0.0,0.0,0.0,0.0,0.0,0.0,0.0,0.0,0.0,0.0,0.0,0.0,0.0,0.0,0.0,0.0,0.0,0.0,0.0,0.0,0.0,0.0,0.0,0.0,0.0,0.0,0.0,0.0,0.0,0.0,0.0,0.0,0.0,0.0,0.0,0.0,0.0,0.0,0.0,0.0,0.0,0.0,0.0,0.0,0.0,0.0,0.0,0.0,0.0,0.0,0.0,0.0,0.0,0.0,0.0,0.0,0.0,0.0,0.0,0.0,0.0,0.0,0.0,0.0,0.0,0.0,0.0,0.0,0.0,0.0,0.0,0.0,0.0,0.0,0.0,0.0,0.0,0.0,0.0,0.0,0.0,0.0,0.0,0.0,0.0,0.0,0.0,0.0,0.0,0.0,0.0,0.0,0.0,0.0,0.0,0.0,0.0,0.0,0.0,0.0,0.0,0.0,0.0,0.0,0.0,0.0,0.0,0.0,0.0,0.0,0.0,0.0,0.0,0.0,0.0,0.0,0.0,0.0,0.0,0.0,0.0,0.0,0.0,0.0,0.0,0.0,0.0,0.0,0.0,0.0,0.0,0.0,0.0,0.0,0.0,0.0,0.0,0.0,0.0,0.0,0.0,0.0,0.0,0.0,0.0,0.0,0.0,0.0,0.0,0.0,0.0,0.0,0.0,0.0,0.0,0.0,0.0,0.0,0.0,0.0,0.0,0.0,0.0,0.0,0.0,0.0,0.0,0.0,0.0,0.0,0.0,0.0,0.0,0.0,0.0,0.0,0.0,0.0,0.0,0.0,0.0,0.0,0.0,0.0,0.0,0.0,0.0,0.0,0.0,0.0,0.0,0.0,0.0,0.0,0.0,0.0,0.0,0.0,0.0,0.0,0.0,0.0,0.0,0.0,0.0,0.0,0.0,0.0,0.0,0.0,0.0,0.0,0.0,0.0,0.0,0.0,0.0,0.0,0.0,0.0,0.0,0.0,0.0,0.0,0.0,0.0,0.0,0.0,0.0,0.0,0.0,0.0,0.0,0.0,0.0,0.0,0.0,0.0,0.0,0.0,0.0,0.0,0.0,0.0,0.0,0.0,0.0,0.0,0.0,0.0,0.0,0.0,0.0,0.0,0.0,0.0,0.0,0.0,0.0,0.0,0.0,0.0,0.0,0.0,0.0,0.0,0.0,0.0,0.0,0.0,0.0,0.0,0.0,0.0,0.0,0.0,0.0,0.0,0.0,0.0,0.0,0.0,0.0,0.0,0.0,0.0,0.0,0.0,0.0,0.0,0.0,0.0,0.0,0.0,0.0,0.0,0.0,0.0,0.0,0.0,0.0,0.0,0.0,0.0,0.0,0.0,0.0,0.0,0.0,0.0,0.0,0.0,0.0,0.0,0.0,0.0,0.0,0.0,0.0,0.0,0.0,0.0,0.0,0.0,0.0,0.0,0.0,0.0,0.0,0.0,0.0,0.0,0.0,0.0,0.0,0.0,0.0,0.0,0.0,0.0,0.0,0.0,0.0,0.0,0.0,0.0,0.0,0.0,0.0,0.0,0.0,0.0,0.0,0.0,0.0,0.0,0.0,0.0,0.0,0.0,0.0,0.0,0.0,0.0,0.0,0.0,0.0,0.0,0.0,0.0,0.0,0.0,0.0,0.0,0.0,0.0,0.0,0.0,0.0,0.0,0.0,0.0,0.0,0.0,0.0,0.0,0.0,0.0,0.0,0.0,0.0,0.0,0.0,0.0,0.0,0.0,0.0,0.0,0.0,0.0,0.0,0.0,0.0,0.0,0.0,0.0,0.0,0.0,0.0,0.0,0.0,0.0,0.0,0.0,0.0,0.0,0.0,0.0,0.0,0.0,0.0,0.0,0.0,0.0,0.0,0.0,0.0,0.0,0.0,0.0,0.0,0.0,0.0,0.0,0.0,0.0,0.0,0.0,0.0,0.0,0.0,0.0,0.0,0.0,0.0,0.0,0.0,0.0,0.0,0.0,0.0,0.0,0.0,0.0,0.0,0.0,0.0,0.0,0.0,0.0,0.0,0.0,0.0,0.0,0.0,0.0,0.0,0.0,0.0,0.0,0.0,0.0,0.0,0.0,0.0,0.0,0.0,0.0,0.0,0.0,0.0,0.0,0.0,0.0,0.0,0.0,0.0,0.0,0.0,0.0,0.0,0.0,0.0,0.0,0.0,0.0,0.0,0.0,0.0,0.0,0.0,0.0,0.0,0.0,0.0,0.0,0.0,0.0,0.0,0.0,0.0,0.0,0.0,0.0,0.0,0.0,0.0,0.0,0.0,0.0,0.0,0.0,0.0,0.0,0.0,0.0,0.0,0.0,0.0,0.0,0.0,0.0,0.0,0.0,0.0,0.0,0.0,0.0,0.0,0.0,0.0,0.0,0.0,0.0,0.0,0.0,0.0,0.0,0.0,0.0,0.0,0.0,0.0,0.0,0.0,0.0,0.0,0.0,0.0,0.0,0.0,0.0,0.0,0.0,0.0,0.0,0.0,0.0,0.0,0.0,0.0,0.0,0.0,0.0,0.0,0.0,0.0,0.0,0.0,0.0,0.0,0.0,0.0,0.0,0.0,0.0,0.0,0.0,0.0,0.0,0.0,0.0,0.0,0.0,0.0,0.0,0.0,0.0,0.0,0.0,0.0,0.0,0.0,0.0,0.0,0.0,0.0,0.0,0.0,0.0,0.0,0.0,0.0,0.0,0.0,0.0,0.0,0.0,0.0,0.0,0.0,0.0,0.0,0.0,0.0,0.0,0.0,0.0,0.0,0.0,0.0,0.0,0.0,0.0,0.0,0.0,0.0,0.0,0.0,0.0,0.0,0.0,0.0,0.0,0.0,0.0,0.0,0.0,0.0,0.0,0.0,0.0,0.0,0.0,0.0,0.0,0.0,0.0,0.0,0.0,0.0,0.0,0.0,0.0,0.0,0.0,0.0,0.0,0.0,0.0,0.0,0.0,0.0,0.0,0.0,0.0,0.0,0.0,0.0,0.0,0.0,0.0,0.0,0.0,0.0,0.0,0.0,0.0,0.0,0.0,0.0,0.0,0.0,0.0,0.0,0.0,0.0,0.0,0.0,0.0,0.0,0.0,-2.0226,0.0,0.0,0.0,0.0,0.0,0.0,0.0,0.0,0.0,0.0,0.0,0.0,0.0,0.0,0.0,0.0,0.0,0.0,0.0,0.0,0.0,0.0,0.0,0.0,0.0,0.0,0.0,0.0,0.0,0.0,0.0,0.0,0.0,0.0,0.0,0.0,0.0,0.0,0.0,0.0,0.0,0.0,0.0,0.0,0.0,0.0,0.0,0.0,0.0,0.0,0.0,0.0,0.0,0.0,0.0,0.0,0.0,0.0,0.0,0.0,0.0,0.0,0.0,0.0,0.0,0.0,0.0,0.0,0.0,0.0,0.0,0.0,0.0,0.0,0.0,0.0,0.0,0.0,0.0,0.0,0.0,0.0,0.0,0.0,0.0,0.0,0.0,0.0,0.0,0.0,0.0,0.0,0.0,0.0,0.0,0.0,0.0,0.0,0.0,0.0,0.0,0.0,0.0,0.0,0.0,0.0,0.0,0.0,0.0,0.0,-2.1683,-2.1445,-2.1673,-2.1259,-2.012,0.0,0.0,0.0,0.0,0.0,0.0,0.0,0.0,0.0,0.0,0.0,0.0,0.0,0.0,0.0,0.0,0.0,0.0,0.0,0.0,0.0,0.0,0.0,0.0,0.0,0.0,0.0,0.0,0.0,0.0,0.0,0.0,0.0,0.0,0.0,0.0,0.0,0.0,0.0,0.0,0.0,0.0,0.0,0.0,0.0,0.0,0.0,0.0,0.0,0.0,0.0,0.0,0.0,0.0,0.0,0.0,0.0,0.0,0.0,0.0,0.0,0.0,0.0,0.0,0.0,0.0,0.0,0.0,0.0,0.0,0.0,0.0,0.0,0.0,0.0,0.0,0.0,0.0,0.0,0.0,0.0,0.0,0.0,0.0,0.0,0.0,0.0,0.0,0.0,0.0,0.0,0.0,0.0,0.0,0.0,0.0,0.0,0.0,0.0,0.0,0.0,0.0,0.0,0.0,0.0,0.0,0.0,0.0,0.0,0.0,0.0,0.0,-2.202,-2.1523,-2.0243,0.0,0.0,0.0,0.0,0.0,0.0,0.0,0.0,0.0,0.0,0.0,0.0,0.0,0.0,0.0,0.0,0.0,0.0,0.0,0.0,0.0,0.0,0.0,0.0,0.0,0.0,0.0,0.0,0.0,0.0,0.0,0.0,0.0,0.0,0.0,0.0,0.0,0.0,0.0,0.0,0.0,0.0,0.0,0.0,0.0,0.0,0.0,0.0,0.0,0.0,0.0,0.0,0.0,0.0,0.0,0.0,0.0,0.0,0.0,0.0,0.0,0.0,0.0,0.0,0.0,0.0,0.0,0.0,0.0,0.0,0.0,0.0,0.0,0.0,0.0,0.0,0.0,0.0,0.0,0.0,0.0,0.0,0.0,0.0,0.0,0.0,0.0,0.0,0.0,0.0,0.0,0.0,0.0,0.0,0.0,0.0,0.0,0.0,0.0,0.0,0.0,0.0,0.0,0.0,0.0,0.0,0.0,0.0,0.0,0.0,-2.3377,-2.38,-2.3389,0.0,-2.1459,0.0,0.0,0.0,0.0,0.0,0.0,0.0,0.0,0.0,0.0,0.0,0.0,0.0,0.0,0.0,0.0,0.0,0.0,0.0,0.0,0.0,0.0,0.0,0.0,0.0,0.0,0.0,0.0,0.0,0.0,0.0,0.0,0.0,0.0,0.0,0.0,0.0,0.0,0.0,0.0,0.0,0.0,0.0,0.0,0.0,0.0,0.0,0.0,0.0,0.0,0.0,0.0,0.0,0.0,0.0,0.0,0.0,0.0,0.0,0.0,0.0,0.0,0.0,0.0,0.0,0.0,0.0,0.0,0.0,0.0,0.0,0.0,0.0,0.0,0.0,0.0,0.0,0.0,0.0,0.0,0.0,0.0,0.0,0.0,0.0,0.0,0.0,0.0,0.0,0.0,0.0,0.0,0.0,0.0,0.0,0.0,0.0,0.0,0.0,0.0,0.0,0.0,0.0,0.0,0.0,0.0,0.0,0.0,0.0,0.0,-2.3764,-2.3719,-2.2914,-2.2071,0.0,0.0,0.0,0.0,0.0,0.0,0.0,0.0,0.0,0.0,0.0,0.0,0.0,0.0,0.0,0.0,0.0,0.0,0.0,0.0,0.0,0.0,0.0,0.0,0.0,0.0,0.0,0.0,0.0,0.0,0.0,0.0,0.0,0.0,0.0,0.0,0.0,0.0,0.0,0.0,0.0,0.0,0.0,0.0,0.0,0.0,0.0,0.0,0.0,0.0,0.0,0.0,0.0,0.0,0.0,0.0,0.0,0.0,0.0,0.0,0.0,0.0,0.0,0.0,0.0,0.0,0.0,0.0,0.0,0.0,0.0,0.0,0.0,0.0,0.0,0.0,0.0,0.0,0.0,0.0,0.0,0.0,0.0,0.0,0.0,0.0,0.0,0.0,0.0,0.0,0.0,0.0,0.0,0.0,0.0,0.0,0.0,0.0,0.0,0.0,0.0,0.0,0.0,0.0,0.0,0.0,0.0,0.0,0.0,0.0,-2.459,-2.4236,-2.3646,-2.3124,-2.2256,-2.1047,0.0,0.0,0.0,0.0,0.0,0.0,0.0,0.0,0.0,0.0,0.0,0.0,0.0,0.0,0.0,0.0,0.0,0.0,0.0,0.0,0.0,0.0,0.0,0.0,0.0,0.0,0.0,0.0,0.0,0.0,0.0,0.0,0.0,0.0,0.0,0.0,0.0,0.0,0.0,0.0,0.0,0.0,0.0,0.0,0.0,0.0,0.0,0.0,0.0,0.0,0.0,0.0,0.0,0.0,0.0,0.0,0.0,0.0,0.0,0.0,0.0,0.0,0.0,0.0,0.0,0.0,0.0,0.0,0.0,0.0,0.0,0.0,0.0,0.0,0.0,0.0,0.0,0.0,0.0,0.0,0.0,0.0,0.0,0.0,0.0,0.0,0.0,0.0,0.0,0.0,0.0,0.0,0.0,0.0,0.0,0.0,0.0,0.0,0.0,0.0,0.0,0.0,0.0,0.0,0.0,0.0,0.0,0.0,-2.6324,-2.5811,-2.5036,-2.4066,-2.4752,-2.3934,0.0,0.0,0.0,0.0,0.0,0.0,0.0,0.0,0.0,0.0,0.0,0.0,0.0,0.0,0.0,0.0,0.0,0.0,0.0,0.0,0.0,0.0,0.0,0.0,0.0,0.0,0.0,0.0,0.0,0.0,0.0,0.0,0.0,0.0,0.0,0.0,0.0,0.0,0.0,0.0,0.0,0.0,0.0,0.0,0.0,0.0,0.0,0.0,0.0,0.0,0.0,0.0,0.0,0.0,0.0,0.0,0.0,0.0,0.0,0.0,0.0,0.0,0.0,0.0,0.0,0.0,0.0,0.0,0.0,0.0,0.0,0.0,0.0,0.0,0.0,0.0,0.0,0.0,0.0,0.0,0.0,0.0,0.0,0.0,0.0,0.0,0.0,0.0,0.0,0.0,0.0,0.0,0.0,0.0,0.0,0.0,0.0,0.0,0.0,0.0,0.0,0.0,0.0,0.0,0.0,0.0,0.0,0.0,0.0,-2.59,-2.5711,-2.541,-2.5046,-2.4673,-2.3678,0.0,0.0,0.0,0.0,0.0,0.0,0.0,0.0,0.0,0.0,0.0,0.0,0.0,0.0,0.0,0.0,0.0,0.0,0.0,0.0,0.0,0.0,0.0,0.0,0.0,0.0,0.0,0.0,0.0,0.0,0.0,0.0,0.0,0.0,0.0,0.0,0.0,0.0,0.0,0.0,0.0,0.0,0.0,0.0,0.0,0.0,0.0,0.0,0.0,0.0,0.0,0.0,0.0,0.0,0.0,0.0,0.0,0.0,0.0,0.0,0.0,0.0,0.0,0.0,0.0,0.0,0.0,0.0,0.0,0.0,0.0,0.0,0.0,0.0,0.0,0.0,0.0,0.0,0.0,0.0,0.0,0.0,0.0,0.0,0.0,0.0,0.0,0.0,0.0,0.0,0.0,0.0,0.0,0.0,0.0,0.0,0.0,0.0,0.0,0.0,0.0,0.0,0.0,0.0,0.0,0.0,0.0,0.0,0.0,-2.5598,0.0,-2.5657,0.0,-2.4556,-2.3586,0.0,0.0,0.0,0.0,0.0,0.0,0.0,0.0,0.0,0.0,0.0,0.0,0.0,0.0,0.0,0.0,0.0,0.0,0.0,0.0,0.0,0.0,0.0,0.0,0.0,0.0,0.0,0.0,0.0,0.0,0.0,0.0,0.0,0.0,0.0,0.0,0.0,0.0,0.0,0.0,0.0,0.0,0.0,0.0,0.0,0.0,0.0,0.0,0.0,0.0,0.0,0.0,0.0,0.0,0.0,0.0,0.0,0.0,0.0,0.0,0.0,0.0,0.0,0.0,0.0,0.0,0.0,0.0,0.0,0.0,0.0,0.0,0.0,0.0,0.0,0.0,0.0,0.0,0.0,0.0,0.0,0.0,0.0,0.0,0.0,0.0,0.0,0.0,0.0,0.0,0.0,0.0,0.0,0.0,0.0,0.0,0.0,0.0,0.0,0.0,0.0,0.0,0.0,0.0,0.0,0.0,0.0,0.0,-2.5573,-2.5586,-2.6147,-2.572,-2.4117,-2.4569,-2.3791,0.0,0.0,0.0,0.0,0.0,0.0,0.0,0.0,0.0,0.0,0.0,0.0,0.0,0.0,0.0,0.0,0.0,0.0,0.0,0.0,0.0,0.0,0.0,0.0,0.0,0.0,0.0,0.0,0.0,0.0,0.0,0.0,0.0,0.0,0.0,0.0,0.0,0.0,0.0,0.0,0.0,0.0,0.0,0.0,0.0,0.0,0.0,0.0,0.0,0.0,0.0,0.0,0.0,0.0,0.0,0.0,0.0,0.0,0.0,0.0,0.0,0.0,0.0,0.0,0.0,0.0,0.0,0.0,0.0,0.0,0.0,0.0,0.0,0.0,0.0,0.0,0.0,0.0,0.0,0.0,0.0,0.0,0.0,0.0,0.0,0.0,0.0,0.0,0.0,0.0,0.0,0.0,0.0,0.0,0.0,0.0,0.0,0.0,0.0,0.0,0.0,0.0,0.0,0.0,0.0,0.0,0.0,0.0,0.0,-2.4531,-2.5398,-2.5858,-2.572,-2.5121,-2.4474,0.0,0.0,0.0,0.0,0.0,0.0,0.0,0.0,0.0,0.0,0.0,0.0,0.0,0.0,0.0,0.0,0.0,0.0,0.0,0.0,0.0,0.0,0.0,0.0,0.0,0.0,0.0,0.0,0.0,0.0,0.0,0.0,0.0,0.0,0.0,0.0,0.0,0.0,0.0,0.0,0.0,0.0,0.0,0.0,0.0,0.0,0.0,0.0,0.0,0.0,0.0,0.0,0.0,0.0,0.0,0.0,0.0,0.0,0.0,0.0,0.0,0.0,0.0,0.0,0.0,0.0,0.0,0.0,0.0,0.0,0.0,0.0,0.0,0.0,0.0,0.0,0.0,0.0,0.0,0.0,0.0,0.0,0.0,0.0,0.0,0.0,0.0,0.0,0.0,0.0,0.0,0.0,0.0,0.0,0.0,0.0,0.0,0.0,0.0,0.0,0.0,0.0,0.0,0.0,0.0,0.0,0.0,0.0,0.0,-2.5297,-2.6088,-2.6603,-2.6788,-2.5686,-2.5021,-2.4763,0.0,0.0,0.0,0.0,0.0,0.0,0.0,0.0,0.0,0.0,0.0,0.0,0.0,0.0,0.0,0.0,0.0,0.0,0.0,0.0,0.0,0.0,0.0,0.0,0.0,0.0,0.0,0.0,0.0,0.0,0.0,0.0,0.0,0.0,0.0,0.0,0.0,0.0,0.0,0.0,0.0,0.0,0.0,0.0,0.0,0.0,0.0,0.0,0.0,0.0,0.0,0.0,0.0,0.0,0.0,0.0,0.0,0.0,0.0,0.0,0.0,0.0,0.0,0.0,0.0,0.0,0.0,0.0,0.0,0.0,0.0,0.0,0.0,0.0,0.0,0.0,0.0,0.0,0.0,0.0,0.0,0.0,0.0,0.0,0.0,0.0,0.0,0.0,0.0,0.0,0.0,0.0,0.0,0.0,0.0,0.0,0.0,0.0,0.0,0.0,0.0,0.0,0.0,0.0,0.0,0.0,0.0,0.0,-2.7563,-2.8045,-2.8047,-2.7542,-2.6364,-2.5498,0.0,0.0,0.0,0.0,0.0,0.0,0.0,0.0,0.0,0.0,0.0,0.0,0.0,0.0,0.0,0.0,0.0,0.0,0.0,0.0,0.0,0.0,0.0,0.0,0.0,0.0,0.0,0.0,0.0,0.0,0.0,0.0,0.0,0.0,0.0,0.0,0.0,0.0,0.0,0.0,0.0,0.0,0.0,0.0,0.0,0.0,0.0,0.0,0.0,0.0,0.0,0.0,0.0,0.0,0.0,0.0,0.0,0.0,0.0,0.0,0.0,0.0,0.0,0.0,0.0,0.0,0.0,0.0,0.0,0.0,0.0,0.0,0.0,0.0,0.0,0.0,0.0,0.0,0.0,0.0,0.0,0.0,0.0,0.0,0.0,0.0,0.0,0.0,0.0,0.0,0.0,0.0,0.0,0.0,0.0,0.0,0.0,0.0,0.0,0.0,0.0,0.0,0.0,0.0,0.0,0.0,0.0,0.0,0.0,-3.0567,-3.0596,-3.0281,-2.9741,-2.8247,-2.7394,0.0,0.0,0.0,0.0,0.0,0.0,0.0,0.0,0.0,0.0,0.0,0.0,0.0,0.0,0.0,0.0,0.0,0.0,0.0,0.0,0.0,0.0,0.0,0.0,0.0,0.0,0.0,0.0,0.0,0.0,0.0,0.0,0.0,0.0,0.0,0.0,0.0,0.0,0.0,0.0,0.0,0.0,0.0,0.0,0.0,0.0,0.0,0.0,0.0,0.0,0.0,0.0,0.0,0.0,0.0,0.0,0.0,0.0,0.0,0.0,0.0,0.0,0.0,0.0,0.0,0.0,0.0,0.0,0.0,0.0,0.0,0.0,0.0,0.0,0.0,0.0,0.0,0.0,0.0,0.0,0.0,0.0,0.0,0.0,0.0,0.0,0.0,0.0,0.0,0.0,0.0,0.0,0.0,0.0,0.0,0.0,0.0,0.0,0.0,0.0,0.0,0.0,0.0,0.0,0.0,0.0,0.0,0.0,-2.9555,-3.1332,-3.1861,-3.1951,-3.165,-2.9804,-2.8586,0.0,0.0,0.0,0.0,0.0,0.0,0.0,0.0,0.0,0.0,0.0,0.0,0.0,0.0,0.0,0.0,0.0,0.0,0.0,0.0,0.0,0.0,0.0,0.0,0.0,0.0,0.0,0.0,0.0,0.0,0.0,0.0,0.0,0.0,0.0,0.0,0.0,0.0,0.0,0.0,0.0,0.0,0.0,0.0,0.0,0.0,0.0,0.0,0.0,0.0,0.0,0.0,0.0,0.0,0.0,0.0,0.0,0.0,0.0,0.0,0.0,0.0,0.0,0.0,0.0,0.0,0.0,0.0,0.0,0.0,0.0,0.0,0.0,0.0,0.0,0.0,0.0,0.0,0.0,0.0,0.0,0.0,0.0,0.0,0.0,0.0,0.0,0.0,0.0,0.0,0.0,0.0,0.0,0.0,0.0,0.0,0.0,0.0,0.0,0.0,0.0,0.0,0.0,0.0,0.0,0.0,0.0,0.0,-3.0597,-3.0903,-3.2319,-3.3154,-3.3177,-3.0974,-2.9289,0.0,0.0,0.0,0.0,0.0,0.0,0.0,0.0,0.0,0.0,0.0,0.0,0.0,0.0,0.0,0.0,0.0,0.0,0.0,0.0,0.0,0.0,0.0,0.0,0.0,0.0,0.0,0.0,0.0,0.0,0.0,0.0,0.0,0.0,0.0,0.0,0.0,0.0,0.0,0.0,0.0,0.0,0.0,0.0,0.0,0.0,0.0,0.0,0.0,0.0,0.0,0.0,0.0,0.0,0.0,0.0,0.0,0.0,0.0,0.0,0.0,0.0,0.0,0.0,0.0,0.0,0.0,0.0,0.0,0.0,0.0,0.0,0.0,0.0,0.0,0.0,0.0,0.0,0.0,0.0,0.0,0.0,0.0,0.0,0.0,0.0,0.0,0.0,0.0,0.0,0.0,0.0,0.0,0.0,0.0,0.0,0.0,0.0,0.0,0.0,0.0,0.0,0.0,0.0,0.0,0.0,0.0,0.0,-3.0469,-3.2822,-3.3022,-3.3398,-3.4092,-3.1334,-2.9465,0.0,0.0,0.0,0.0,0.0,0.0,0.0,0.0,0.0,0.0,0.0,0.0,0.0,0.0,0.0,0.0,0.0,0.0,0.0,0.0,0.0,0.0,0.0,0.0,0.0,0.0,0.0,0.0,0.0,0.0,0.0,0.0,0.0,0.0,0.0,0.0,0.0,0.0,0.0,0.0,0.0,0.0,0.0,0.0,0.0,0.0,0.0,0.0,-3.194,0.0,0.0,0.0,0.0,0.0,0.0,0.0,0.0,0.0,0.0,0.0,0.0,0.0,0.0,0.0,0.0,0.0,0.0,0.0,0.0,0.0,0.0,0.0,0.0,0.0,0.0,0.0,0.0,0.0,0.0,0.0,0.0,0.0,0.0,0.0,0.0,0.0,0.0,0.0,0.0,0.0,0.0,0.0,0.0,0.0,0.0,0.0,0.0,0.0,0.0,0.0,0.0,0.0,0.0,0.0,0.0,0.0,0.0,0.0,-3.0998,-3.2803,-3.3022,-3.3326,-3.3674,-3.1668,-3.0168,0.0,0.0,0.0,0.0,0.0,0.0,0.0,0.0,0.0,0.0,0.0,0.0,0.0,0.0,0.0,0.0,0.0,0.0,0.0,0.0,0.0,0.0,0.0,0.0,0.0,0.0,0.0,0.0,0.0,0.0,0.0,0.0,0.0,0.0,0.0,0.0,0.0,0.0,0.0,0.0,0.0,0.0,0.0,0.0,0.0,0.0,0.0,0.0,0.0,0.0,0.0,0.0,0.0,0.0,0.0,0.0,0.0,0.0,0.0,0.0,0.0,0.0,0.0,0.0,0.0,0.0,0.0,0.0,0.0,0.0,0.0,0.0,0.0,0.0,0.0,0.0,0.0,0.0,0.0,0.0,0.0,0.0,0.0,0.0,0.0,0.0,0.0,0.0,0.0,0.0,0.0,0.0,0.0,0.0,0.0,0.0,0.0,0.0,0.0,0.0,0.0,0.0,0.0,0.0,0.0,0.0,0.0,-3.0482,-3.1549,-3.2315,-3.283,-3.3124,-3.3068,-3.2064,-3.0972,-2.9829,0.0,0.0,0.0,0.0,0.0,0.0,0.0,0.0,0.0,0.0,0.0,0.0,0.0,0.0,0.0,0.0,0.0,0.0,0.0,0.0,0.0,0.0,0.0,0.0,0.0,0.0,0.0,0.0,0.0,0.0,0.0,0.0,0.0,0.0,0.0,0.0,0.0,0.0,-2.8845,-3.0151,0.0,0.0,0.0,0.0,0.0,0.0,0.0,0.0,-3.198,0.0,0.0,0.0,0.0,0.0,0.0,0.0,0.0,0.0,0.0,0.0,0.0,0.0,0.0,0.0,0.0,0.0,0.0,0.0,0.0,0.0,0.0,0.0,0.0,0.0,0.0,0.0,0.0,0.0,0.0,0.0,0.0,0.0,0.0,0.0,0.0,0.0,0.0,0.0,0.0,0.0,0.0,0.0,0.0,0.0,0.0,0.0,0.0,0.0,0.0,0.0,0.0,0.0,0.0,0.0,0.0,-3.0306,-3.0156,-3.0984,-3.288,-3.3061,-3.3124,-3.3111,-3.2428,-3.1361,-2.9817,0.0,0.0,0.0,0.0,0.0,0.0,0.0,0.0,0.0,0.0,0.0,0.0,0.0,0.0,0.0,0.0,0.0,0.0,0.0,0.0,0.0,0.0,0.0,0.0,0.0,0.0,0.0,0.0,0.0,0.0,0.0,0.0,0.0,0.0,0.0,0.0,0.0,0.0,0.0,-3.1369,-3.1292,0.0,0.0,0.0,0.0,0.0,0.0,0.0,0.0,-3.2489,0.0,0.0,0.0,0.0,0.0,0.0,0.0,0.0,0.0,0.0,0.0,0.0,0.0,0.0,0.0,0.0,0.0,0.0,0.0,0.0,0.0,0.0,0.0,0.0,0.0,0.0,0.0,0.0,0.0,0.0,0.0,0.0,0.0,0.0,0.0,0.0,0.0,0.0,0.0,0.0,0.0,0.0,0.0,0.0,0.0,0.0,0.0,0.0,0.0,0.0,0.0,0.0,0.0,0.0,0.0,-3.0118,-3.0746,-3.1712,-3.3074,-3.3124,-3.3124,-3.3099,-3.1976,-3.0884,0.0,0.0,0.0,0.0,0.0,0.0,0.0,0.0,0.0,0.0,0.0,0.0,0.0,0.0,0.0,0.0,0.0,0.0,0.0,0.0,0.0,0.0,0.0,0.0,0.0,0.0,0.0,0.0,0.0,0.0,0.0,0.0,0.0,0.0,0.0,0.0,0.0,0.0,0.0,0.0,-3.2019,-3.2492,-3.2924,0.0,0.0,0.0,0.0,0.0,0.0,-3.3077,-3.3025,0.0,0.0,0.0,0.0,0.0,0.0,0.0,0.0,0.0,0.0,0.0,0.0,0.0,0.0,0.0,0.0,0.0,0.0,0.0,0.0,0.0,0.0,0.0,0.0,0.0,0.0,0.0,0.0,0.0,0.0,0.0,0.0,0.0,0.0,0.0,0.0,0.0,0.0,0.0,0.0,0.0,0.0,0.0,0.0,0.0,0.0,0.0,0.0,0.0,0.0,0.0,0.0,0.0,0.0,0.0,-2.9817,-3.1286,-3.2378,-3.3086,-3.3124,-3.3124,-3.3099,-3.1574,-3.0407,0.0,0.0,0.0,0.0,0.0,0.0,0.0,0.0,0.0,0.0,0.0,0.0,0.0,0.0,0.0,0.0,0.0,0.0,0.0,0.0,0.0,0.0,0.0,0.0,0.0,0.0,0.0,0.0,0.0,0.0,0.0,0.0,0.0,0.0,0.0,0.0,0.0,0.0,0.0,0.0,0.0,-3.3739,-3.3713,-3.3323,0.0,0.0,0.0,0.0,-3.3221,-3.3809,0.0,0.0,0.0,0.0,0.0,0.0,0.0,0.0,0.0,0.0,0.0,0.0,0.0,0.0,0.0,0.0,0.0,0.0,0.0,0.0,0.0,0.0,0.0,0.0,0.0,0.0,0.0,0.0,0.0,0.0,0.0,0.0,0.0,0.0,0.0,0.0,0.0,0.0,0.0,0.0,0.0,0.0,0.0,0.0,0.0,0.0,0.0,0.0,0.0,0.0,0.0,0.0,0.0,0.0,0.0,0.0,-2.9779,-3.0896,-3.2001,-3.3061,-3.3124,-3.3124,-3.3111,-3.1926,-3.0583,0.0,0.0,0.0,0.0,0.0,0.0,0.0,0.0,0.0,0.0,0.0,0.0,0.0,0.0,0.0,0.0,0.0,0.0,0.0,0.0,0.0,0.0,0.0,0.0,0.0,0.0,0.0,0.0,0.0,0.0,0.0,0.0,0.0,0.0,0.0,0.0,0.0,0.0,0.0,0.0,0.0,-3.4422,-3.5011,-3.4578,-3.4201,0.0,0.0,-3.4999,-3.5012,-3.5913,0.0,0.0,0.0,0.0,0.0,0.0,0.0,0.0,0.0,0.0,0.0,0.0,0.0,0.0,0.0,0.0,0.0,0.0,0.0,0.0,0.0,0.0,0.0,0.0,0.0,0.0,0.0,0.0,0.0,0.0,0.0,0.0,0.0,0.0,0.0,0.0,0.0,0.0,0.0,0.0,0.0,0.0,0.0,0.0,0.0,0.0,0.0,0.0,0.0,0.0,0.0,0.0,0.0,0.0,0.0,-2.9302,-2.9829,-3.1515,-3.2591,-3.3099,-3.3124,-3.3124,-3.3124,-3.1399,-2.9993,0.0,0.0,0.0,0.0,0.0,0.0,0.0,0.0,0.0,0.0,0.0,0.0,0.0,0.0,0.0,0.0,0.0,0.0,0.0,0.0,0.0,0.0,0.0,0.0,0.0,0.0,0.0,0.0,0.0,0.0,0.0,0.0,0.0,0.0,0.0,0.0,0.0,0.0,0.0,0.0,0.0,0.0,-3.567,-3.5417,0.0,0.0,0.0,-3.5182,-3.4842,0.0,0.0,0.0,0.0,0.0,0.0,0.0,0.0,0.0,0.0,0.0,0.0,0.0,0.0,0.0,0.0,0.0,0.0,0.0,0.0,0.0,0.0,0.0,0.0,0.0,0.0,0.0,0.0,0.0,0.0,0.0,0.0,0.0,0.0,0.0,0.0,0.0,0.0,0.0,0.0,0.0,0.0,0.0,0.0,0.0,0.0,0.0,0.0,0.0,0.0,0.0,0.0,0.0,0.0,0.0,0.0,0.0,-2.9829,-3.1993,-3.3124,-3.3124,-3.3124,-3.3124,-3.3086,-3.1336,0.0,0.0,0.0,0.0,0.0,0.0,0.0,0.0,0.0,0.0,0.0,0.0,0.0,0.0,0.0,0.0,0.0,0.0,0.0,0.0,0.0,0.0,0.0,0.0,0.0,0.0,0.0,-2.2519,0.0,0.0,0.0,0.0,0.0,0.0,0.0,0.0,0.0,0.0,0.0,0.0,0.0,0.0,-3.5133,-3.5833,-3.5889,-3.6129,0.0,0.0,-3.5391,-3.5103,-3.5547,-3.526,0.0,0.0,0.0,0.0,0.0,0.0,0.0,0.0,0.0,0.0,0.0,0.0,0.0,0.0,0.0,0.0,0.0,0.0,0.0,0.0,0.0,0.0,0.0,0.0,0.0,0.0,0.0,0.0,0.0,0.0,0.0,0.0,0.0,0.0,0.0,0.0,0.0,0.0,0.0,0.0,0.0,0.0,0.0,0.0,0.0,0.0,0.0,0.0,0.0,0.0,0.0,0.0,0.0,0.0,-2.9792,-2.9867,-3.1964,-3.3081,-3.3124,-3.3124,-3.3124,-3.3111,-3.2403,-3.0781,0.0,0.0,0.0,0.0,0.0,0.0,0.0,0.0,0.0,0.0,0.0,0.0,0.0,0.0,0.0,0.0,0.0,0.0,0.0,0.0,0.0,0.0,0.0,0.0,0.0,0.0,0.0,0.0,0.0,0.0,0.0,0.0,0.0,0.0,0.0,0.0,0.0,0.0,0.0,0.0,0.0,-3.4989,-3.5494,-3.5678,-3.6337,0.0,-3.6979,-3.6227,-3.675,-3.7325,-3.6763,-3.3992,0.0,0.0,0.0,0.0,0.0,0.0,0.0,0.0,0.0,0.0,0.0,0.0,0.0,0.0,0.0,0.0,0.0,0.0,0.0,0.0,0.0,0.0,0.0,0.0,0.0,0.0,0.0,0.0,0.0,0.0,0.0,0.0,0.0,0.0,0.0,0.0,0.0,0.0,0.0,0.0,0.0,0.0,0.0,0.0,0.0,0.0,0.0,0.0,0.0,0.0,0.0,0.0,0.0,-2.8706,-2.9817,-3.1363,-3.2323,-3.2596,-3.2941,-3.3124,-3.3124,-3.1951,-3.0245,0.0,0.0,0.0,0.0,0.0,0.0,0.0,0.0,0.0,0.0,0.0,0.0,0.0,0.0,0.0,0.0,0.0,0.0,0.0,0.0,0.0,0.0,0.0,0.0,0.0,0.0,0.0,0.0,-2.6325,-2.6926,-2.7193,0.0,0.0,0.0,0.0,0.0,0.0,0.0,0.0,0.0,0.0,-3.4824,-3.5856,-3.5661,0.0,0.0,-3.73,-3.6747,-3.7417,-3.7129,-3.6188,-3.4384,-3.3496,0.0,0.0,0.0,0.0,0.0,0.0,0.0,0.0,0.0,0.0,0.0,0.0,0.0,0.0,0.0,0.0,0.0,0.0,0.0,0.0,0.0,0.0,0.0,0.0,0.0,0.0,0.0,0.0,0.0,0.0,0.0,0.0,0.0,0.0,0.0,0.0,0.0,0.0,0.0,0.0,0.0,0.0,0.0,0.0,0.0,0.0,0.0,0.0,0.0,0.0,0.0,0.0,-2.7893,-2.9411,-3.0592,-3.143,-3.1849,-3.2124,-3.2208,-3.2196,-3.1165,-2.9711,0.0,0.0,0.0,0.0,0.0,0.0,0.0,0.0,0.0,0.0,0.0,0.0,0.0,0.0,0.0,0.0,0.0,0.0,0.0,0.0,0.0,0.0,0.0,0.0,0.0,0.0,0.0,0.0,-2.7295,-2.7816,-2.7966,0.0,0.0,0.0,0.0,0.0,0.0,0.0,0.0,0.0,0.0,-3.448,-3.5495,-3.5373,-3.5744,-3.7327,-3.6845,-3.654,-3.7247,-3.648,-3.5435,-3.4421,0.0,0.0,0.0,0.0,0.0,0.0,0.0,0.0,0.0,0.0,0.0,0.0,0.0,0.0,0.0,0.0,0.0,0.0,0.0,0.0,0.0,0.0,0.0,0.0,0.0,0.0,0.0,-2.0364,0.0,0.0,-1.9191,0.0,0.0,0.0,0.0,0.0,0.0,0.0,0.0,0.0,0.0,0.0,0.0,0.0,0.0,0.0,0.0,0.0,0.0,0.0,0.0,0.0,0.0,-2.7573,-2.8557,-2.9676,-3.0422,-3.0789,-3.0468,-3.0306,-3.0306,-3.0192,-2.9435,-2.774,0.0,0.0,0.0,0.0,0.0,0.0,0.0,0.0,0.0,0.0,0.0,0.0,0.0,0.0,0.0,0.0,0.0,0.0,0.0,0.0,0.0,0.0,0.0,0.0,0.0,0.0,-2.5184,-2.6319,-2.7461,0.0,0.0,0.0,0.0,0.0,0.0,0.0,0.0,0.0,-3.225,-3.3388,-3.4021,-3.4072,-3.4803,-3.538,-3.5645,-3.5493,-3.5544,-3.6061,-3.5544,-3.4812,0.0,0.0,0.0,0.0,0.0,0.0,0.0,0.0,0.0,0.0,0.0,0.0,0.0,0.0,0.0,0.0,0.0,0.0,0.0,0.0,0.0,0.0,0.0,0.0,0.0,0.0,0.0,-2.141,-2.0991,0.0,0.0,0.0,0.0,0.0,0.0,0.0,0.0,0.0,0.0,0.0,-2.41,-2.466,0.0,0.0,0.0,0.0,0.0,0.0,0.0,0.0,0.0,0.0,0.0,0.0,-2.7051,-2.8529,-2.9285,-2.9861,-3.0315,-3.0237,-3.0215,-3.017,-2.9532,-2.8443,-2.6766,0.0,0.0,0.0,0.0,0.0,0.0,0.0,0.0,0.0,0.0,0.0,0.0,0.0,0.0,0.0,0.0,0.0,0.0,0.0,0.0,0.0,0.0,0.0,0.0,0.0,-2.7334,0.0,0.0,0.0,0.0,0.0,0.0,0.0,0.0,0.0,0.0,0.0,-3.1628,-3.3281,-3.3201,-3.2994,-3.2994,-3.3287,-3.3941,0.0,0.0,0.0,0.0,0.0,0.0,0.0,0.0,0.0,0.0,0.0,0.0,0.0,0.0,-3.8241,-3.6187,-3.596,-3.6188,-3.6397,0.0,0.0,0.0,0.0,0.0,0.0,0.0,0.0,0.0,0.0,0.0,0.0,0.0,0.0,-2.2481,-2.2149,-2.1758,0.0,0.0,0.0,0.0,0.0,0.0,0.0,0.0,-2.39,-2.4419,-2.4871,-2.5428,-2.5535,0.0,-2.5742,-2.5153,0.0,0.0,0.0,0.0,0.0,0.0,0.0,0.0,-2.641,-2.7871,-2.856,-2.9032,-2.9299,-2.9376,-2.9331,-2.9176,-2.8538,-2.7707,-2.6613,-2.6001,-2.5343,0.0,0.0,0.0,0.0,0.0,0.0,0.0,0.0,0.0,0.0,0.0,0.0,0.0,0.0,0.0,0.0,0.0,0.0,0.0,0.0,0.0,0.0,0.0,-2.7324,0.0,0.0,0.0,0.0,0.0,0.0,0.0,0.0,0.0,-3.2176,-3.2282,-3.2845,-3.4337,-3.3809,-3.3097,-3.2546,0.0,0.0,0.0,0.0,0.0,0.0,0.0,-3.4745,-3.4763,-3.4932,-3.5649,-3.7375,-3.8322,-3.8893,-3.8983,0.0,0.0,-3.8101,-3.7766,-3.7881,-3.8415,-3.8018,-3.7534,-3.7364,-3.7639,-3.773,0.0,0.0,0.0,0.0,0.0,0.0,0.0,0.0,-2.3951,-2.3818,0.0,-2.2638,0.0,0.0,0.0,0.0,-2.3232,-2.3709,0.0,0.0,-2.4712,-2.5448,-2.6533,-2.5782,-2.546,-2.5629,-2.6691,-2.6645,-2.555,-2.5368,0.0,0.0,0.0,0.0,0.0,0.0,-2.572,-2.6687,-2.7558,-2.7945,-2.7966,-2.7924,-2.7707,-2.7378,-2.7367,-2.7317,-2.7317,-2.7209,-2.6965,-2.6482,-2.5491,0.0,0.0,0.0,0.0,0.0,0.0,0.0,0.0,0.0,0.0,0.0,0.0,0.0,0.0,0.0,0.0,0.0,0.0,0.0,0.0,-2.5759,0.0,0.0,0.0,0.0,0.0,0.0,0.0,0.0,0.0,0.0,-3.3094,-3.3254,-3.3821,-3.5256,0.0,0.0,0.0,0.0,-3.4298,-3.2426,-3.3051,-3.383,-3.3891,-3.4138,-3.4513,-3.5032,0.0,0.0,-3.8574,-3.8267,-3.7937,-3.8182,-3.9149,-4.0266,-4.1338,-4.0118,-3.9587,-4.0839,-3.9816,-3.9029,-3.9494,-3.956,-3.9442,-2.7175,0.0,0.0,0.0,0.0,-2.5204,-2.5112,-2.5365,-2.469,-2.4242,-2.398,-2.3696,0.0,0.0,0.0,0.0,0.0,0.0,-2.4258,-2.4687,-2.4685,-2.5056,-2.5752,-2.577,-2.5986,-2.6361,-2.6674,-2.6894,-2.6888,-2.7057,-2.6448,-2.5024,0.0,0.0,0.0,0.0,-2.663,-2.751,-2.8121,-2.8411,-2.8411,-2.809,-2.7717,-2.732,-2.732,-2.7295,-2.7301,-2.7306,-2.6883,-2.6089,-2.6055,0.0,0.0,0.0,0.0,0.0,0.0,0.0,0.0,0.0,0.0,0.0,0.0,0.0,0.0,0.0,0.0,0.0,0.0,0.0,-2.7349,-2.7336,-2.7401,0.0,0.0,0.0,0.0,0.0,0.0,0.0,0.0,0.0,-3.2733,-3.3075,-3.3568,0.0,0.0,-3.2538,-3.2078,-3.2707,-3.3305,-3.3406,-3.3732,0.0,-3.4929,-3.4913,-3.4987,-3.5312,-3.6283,-3.7137,-3.7498,-3.802,-3.8367,-3.8491,-3.8989,-3.9779,-4.0712,-4.0464,-4.0262,-4.0797,-4.0287,-3.9974,-4.0627,-4.0827,-4.0713,-2.7305,-2.6353,-2.6511,-2.6563,-2.6425,-2.5894,-2.5757,-2.5928,-2.5193,-2.4886,-2.4798,-2.4333,-2.4148,-2.4088,-2.3949,0.0,0.0,0.0,-2.4464,-2.4773,-2.4711,-2.4861,-2.5146,-2.5386,-2.5661,-2.5922,-2.6294,-2.66,-2.6888,-2.7285,-2.6839,-2.5607,0.0,0.0,-2.5399,-2.6341,-2.7154,-2.7665,-2.8286,-2.8524,-2.8349,-2.7893,-2.7531,-2.733,-2.732,-2.7404,-2.7584,-2.7762,-2.7685,-2.735,-2.7356,-2.6899,0.0,0.0,0.0,0.0,0.0,0.0,0.0,0.0,0.0,0.0,0.0,-2.5632,-2.4529,0.0,0.0,0.0,-2.5978,-2.6951,-2.8062,-2.7742,0.0,0.0,0.0,0.0,0.0,0.0,0.0,-3.148,-3.1503,-3.1649,-3.2143,-3.2341,-3.2886,-3.405,-3.3521,-3.2891,-3.2733,0.0,-3.3775,-3.397,-3.4188,-3.4532,-3.5129,-3.5242,-3.5416,-3.6021,-3.6782,-3.7402,-3.7643,-3.8332,-3.8849,-3.8906,-3.9101,-3.9416,-3.979,-3.9786,-3.9999,-4.0819,-4.0435,-4.0206,-4.0965,-4.0782,-4.0611,-2.7039,-2.7013,-2.7494,-2.7215,-2.6513,-2.6486,-2.6228,-2.5908,-2.5557,-2.5592,-2.5748,-2.4787,-2.4678,-2.5219,-2.4882,0.0,-2.4711,-2.4702,-2.4719,-2.4821,-2.4821,-2.4821,-2.4821,-2.483,-2.4821,-2.483,-2.5615,-2.5981,-2.6018,-2.641,-2.6432,-2.6027,-2.7222,-2.7338,-2.6491,-2.6898,-2.7183,-2.7214,-2.8072,-2.839,-2.8048,-2.7552,-2.7361,-2.7361,-2.7378,-2.7584,-2.7987,-2.8445,-2.8921,-2.9268,-2.8834,-2.8521,-2.8275,0.0,0.0,0.0,0.0,0.0,0.0,0.0,0.0,0.0,0.0,0.0,0.0,0.0,0.0,0.0,-2.5541,0.0,-2.8338,-2.7528,0.0,0.0,0.0,-2.9937,-3.0666,-3.0659,-3.0976,-3.2048,0.0,0.0,-3.1501,-3.1314,-3.1899,-3.3957,-3.4517,-3.4457,-3.3977,-3.4726,-3.5175,-3.4291,-3.4601,-3.4923,-3.506,-3.5366,-3.5895,-3.6727,-3.7425,-3.785,-3.8344,-3.8849,-3.9193,-3.9182,-3.9262,-3.9193,-3.8734,-3.8781,-3.9139,-4.0704,-4.0189,-3.9697,-4.0427,-3.9904,-3.9676,-2.673,-2.6217,-2.6609,-2.6667,-2.6483,-2.6157,-2.5973,-2.5867,-2.584,-2.5694,-2.548,-2.5223,-2.5052,-2.4934,-2.4828,-2.4757,-2.4766,-2.4766,-2.4806,-2.4821,-2.4821,-2.4821,-2.4821,-2.4821,-2.4821,-2.4821,-2.4979,-2.509,-2.5128,-2.5891,-2.6008,-2.5687,-2.6575,-2.6292,-2.486,-2.5441,-2.6002,-2.6466,-2.7508,-2.838,-2.8928,-2.8183,-2.7769,-2.7759,-2.7809,-2.7904,-2.7987,-2.8502,-2.8456,-2.7799,-2.7634,-2.6903,-2.5401,-2.4735,0.0,0.0,0.0,0.0,0.0,0.0,0.0,0.0,0.0,-2.6845,-2.4519,0.0,-2.7829,0.0,-2.5774,-2.7246,-2.9487,-2.909,0.0,0.0,-3.0378,-3.0924,-3.0424,-3.1079,-3.1325,-3.0738,-3.0452,-3.0344,-3.0545,-3.1023,-3.1513,-3.2063,-3.2855,-3.3292,-3.3193,-3.4501,-3.5439,-3.5191,-3.5512,-3.591,-3.5941,-3.6013,-3.63,-3.6876,-3.7094,-3.7391,-3.7896,-3.8401,-3.8746,-3.878,-3.9078,-3.9216,-3.9147,-3.9124,-3.9242,-3.9605,-3.9119,-3.8863,-3.9668,-3.9337,-3.915,-2.6824,-2.6431,-2.6294,-2.6148,-2.5968,-2.5763,-2.5686,-2.5669,-2.5515,-2.5326,-2.5129,-2.5129,-2.5018,-2.483,-2.4821,-2.4821,-2.4821,-2.4821,-2.4821,-2.4821,-2.4821,-2.4821,-2.4821,-2.4821,-2.4821,-2.4821,-2.4821,-2.4821,-2.4821,-2.5302,-2.5399,-2.5188,-2.5676,-2.5176,-2.38,-2.4706,-2.5409,-2.5889,-2.6544,-2.7302,-2.8068,-2.741,-2.7122,-2.7324,-2.6972,-2.7071,-2.76,-2.736,-2.7314,-2.7543,-2.7405,-2.689,-2.5997,-2.5472,-2.4798,0.0,0.0,0.0,0.0,0.0,0.0,0.0,0.0,0.0,0.0,0.0,-2.8147,-2.7222,-2.7302,-2.8211,-3.0099,-2.9794,-2.9664,-3.014,-3.0784,-3.1089,-3.076,-3.1327,-3.1443,-3.078,-3.0571,-3.0461,-3.0451,-3.0709,-3.0863,-3.0853,-3.1796,-3.2538,-3.2804,-3.366,-3.4384,-3.4975,-3.5308,-3.5708,-3.6211,-3.6461,-3.6702,-3.7001,-3.7414,-3.7827,-3.8103,-3.8562,-3.8906,-3.8929,-3.9124,-3.9308,-3.9308,-3.9308,-3.9308,-3.9195,-3.8664,-3.8453,-3.9171,-3.8589,-3.8185,-2.7064,-2.6876,-2.6268,-2.5788,-2.5446,-2.5437,-2.5335,-2.5185,-2.4812,-2.4701,-2.4697,-2.4804,-2.4821,-2.4821,-2.4821,-2.4821,-2.4821,-2.4821,-2.4821,-2.4821,-2.4821,-2.4821,-2.4821,-2.4821,-2.4821,-2.4821,-2.4821,-2.4821,-2.4821,-2.4821,-2.4795,-2.4744,-2.4744,-2.4196,-2.335,-2.4281,-2.4975,-2.5421,-2.5516,-2.5948,-2.6646,-2.6111,-2.5989,-2.631,-2.5633,-2.5762,-2.6838,-2.5962,-2.6073,-2.7524,-2.7347,-2.7327,-2.7565,-2.6708,-2.5853,0.0,-2.4544,0.0,0.0,0.0,0.0,0.0,0.0,0.0,0.0,-2.7348,-2.8247,-3.0071,-2.9232,-2.9155,-3.0464,-3.0134,-3.0085,-3.0772,-3.0864,-3.1002,-3.1332,-3.1377,-3.1396,-3.1451,-3.1112,-3.0873,-3.0937,-3.0598,-3.0341,-3.0401,-3.1172,-3.1887,-3.2233,-3.2637,-3.3323,-3.4242,-3.4343,-3.47,-3.5647,-3.6407,-3.6826,-3.703,-3.7816,-3.8596,-3.8654,-3.901,-3.9297,-3.9297,-3.9285,-3.9308,-3.9308,-3.9308,-3.9308,-3.9297,-3.8516,-3.8109,-3.8586,-3.7748,-3.7137,-2.6979,-2.6182,-2.6328,-2.6165,-2.5831,-2.5831,-2.5129,-2.4036,-2.3913,-2.4059,-2.4313,-2.4684,-2.4821,-2.4821,-2.4821,-2.4821,-2.4821,-2.4821,-2.4821,-2.4821,-2.4821,-2.4821,-2.4821,-2.4821,-2.4821,-2.4821,-2.4821,-2.4821,-2.4821,-2.4821,-2.4658,-2.4296,-2.4296,-2.4189,-2.3959,0.0,0.0,0.0,-2.5412,-2.5866,-2.6313,-2.5484,-2.4987,-2.4918,-2.5095,0.0,-2.5346,-2.5967,-2.6115,-2.5698,-2.5909,0.0,0.0,0.0,0.0,0.0,0.0,0.0,0.0,0.0,0.0,0.0,-2.7633,-2.7373,-2.7237,-2.7826,-2.8944,-3.0723,-3.0278,-3.0211,-3.1162,-3.111,-3.1093,-3.1249,-3.1267,-3.1295,-3.1377,-3.1377,-3.1506,-3.1845,-3.1524,-3.1396,-3.1662,-3.1414,-3.1029,-3.0789,-3.0923,-3.0906,-3.0748,-3.2296,-3.3468,-3.3507,-3.3482,-3.3675,-3.4196,-3.5276,-3.6189,-3.6681,-3.773,-3.8618,-3.895,-3.9157,-3.9297,-3.9249,-3.9308,-3.9308,-3.9308,-3.9308,-3.9308,-3.9308,-3.8481,-3.7849,-3.7985,-3.7185,-3.6626,-2.727,-2.6747,-2.6568,-2.6268,0.0,-2.5737,-2.5121,-2.4247,-2.4427,-2.4513,-2.4484,-2.4735,-2.4821,-2.4757,-2.4616,-2.4484,-2.4458,-2.4342,-2.435,-2.4538,-2.4727,-2.4821,-2.483,-2.5141,-2.5275,-2.5104,-2.5283,-2.5378,-2.5378,-2.5321,-2.5172,-2.4804,-2.4795,-2.4574,-2.4211,-2.3815,-2.3887,-2.4305,-2.4546,-2.5043,-2.5784,-2.5365,-2.5199,-2.5409,-2.5201,0.0,0.0,0.0,0.0,0.0,0.0,0.0,0.0,0.0,0.0,-2.6262,-2.6473,-2.6866,-2.7463,-2.7723,-2.8007,-2.8399,-2.8794,-2.885,-2.8446,-2.9287,-3.0359,-3.138,-3.1097,-3.1029,-3.1607,-3.1506,-3.1377,-3.1377,-3.1377,-3.146,-3.1643,-3.1689,-3.1854,-3.2175,-3.1937,-3.1781,-3.1964,-3.1643,-3.1313,-3.1121,-3.1075,-3.1002,-3.0908,-3.1461,-3.2053,-3.2565,-3.3177,-3.3554,-3.3829,-3.4564,-3.5289,-3.5663,-3.6399,-3.7008,-3.7298,-3.7883,-3.8302,-3.8361,-3.8812,-3.9308,-3.9308,-3.9308,-3.9239,-3.8952,-3.8332,-3.7701,-3.746,-3.6805,-3.6375,-2.7732,-2.7544,-2.6936,-2.6473,-2.6114,-2.5797,-2.5455,-2.5129,-2.5348,0.0,0.0,-2.4992,-2.5018,-2.4936,-2.4675,-2.4484,-2.4458,-2.4205,-2.423,-2.4492,-2.4817,-2.5018,-2.4996,-2.5586,-2.578,-2.5497,-2.5797,-2.5934,-2.5934,-2.5934,-2.578,-2.5497,-2.5472,-2.5112,-2.4479,-2.4313,-2.4179,-2.3879,-2.3787,-2.4173,-2.5091,-2.5057,-2.5309,-2.5903,-2.5307,-2.55,-2.6475,-2.5256,-2.5166,-2.6532,-2.6055,-2.6013,-2.6624,-2.673,-2.6801,-2.6949,-2.7205,-2.7591,-2.8107,-2.8342,-2.8673,-2.9058,-2.9773,-3.0085,-2.98,-3.0763,-3.1515,-3.1863,-3.1579,-3.1552,-3.1955,-3.1634,-3.1414,-3.1478,-3.1488,-3.1634,-3.1946,-3.2084,-3.2267,-3.2579,-3.2359,-3.2148,-3.2221,-3.1818,-3.1488,-3.1488,-3.1405,-3.1377,-3.1286,-3.088,-3.09,-3.1792,-3.2529,-3.3186,-3.3437,-3.3923,-3.434,-3.4462,-3.5005,-3.5366,-3.5561,-3.6276,-3.6995,-3.7429,-3.8302,-3.8871,-3.9249,-3.9308,-3.9136,-3.8677,-3.8149,-3.7632,-3.7138,-3.6622,-3.6332,-2.8212,-2.7595,-2.7484,-2.7244,-2.691,-2.6859,-2.6619,-2.6208,-2.5634,-2.54,-2.5309,-2.5634,-2.5722,-2.5722,-2.5662,-2.5637,-2.5645,-2.5577,-2.5643,-2.5645,-2.5697,-2.5722,-2.5731,-2.5833,-2.585,-2.5866,-2.5859,-2.5934,-2.5934,-2.5893,-2.585,-2.5866,-2.5799,-2.5634,-2.5215,-2.4898,-2.471,-2.4641,-2.3999,-2.3795,-2.395,-2.3808,-2.3843,-2.3997,-2.4646,-2.5006,-2.5249,-2.5561,-2.5694,-2.5638,-2.6122,-2.6504,-2.6624,-2.6938,-2.7447,-2.8058,-2.8187,-2.8535,-2.925,-2.9058,-2.9067,-2.9461,-2.9929,-3.0314,-3.0607,-3.1084,-3.1396,-3.1469,-3.1423,-3.1552,-3.1918,-3.1634,-3.1543,-3.1845,-3.1918,-3.1946,-3.2047,-3.2322,-3.268,-3.3065,-3.2771,-3.2661,-3.2863,-3.2349,-3.1882,-3.1854,-3.1588,-3.1377,-3.1313,-3.1002,-3.0946,-3.132,-3.129,-3.1369,-3.1917,-3.2782,-3.343,-3.3532,-3.4499,-3.5067,-3.5067,-3.5376,-3.5981,-3.6995,-3.7369,-3.7932,-3.8871,-3.9308,-3.895,-3.8515,-3.7988,-3.7632,-3.7092,-3.6587,-3.6277,-2.8443,-2.792,-2.7698,-2.7398,-2.7081,-2.7081,-2.697,-2.6782,-2.6448,-2.6054,-2.5703,-2.5808,-2.5934,-2.5859,-2.572,-2.5626,-2.5626,-2.542,-2.5437,-2.5634,-2.584,-2.5934,-2.5919,-2.6354,-2.6439,-2.6259,-2.6465,-2.6551,-2.6551,-2.6551,-2.6448,-2.6234,-2.5987,-2.5857,-2.5677,-2.5515,-2.542,-2.5412,-2.4684,-2.4493,-2.4847,-2.48,-2.493,-2.5245,-2.5685,-2.5901,-2.5871,-2.6152,-2.6316,-2.6353,-2.6756,-2.7105,-2.7554,-2.7939,-2.8425,-2.8984,-2.925,-2.9534,-2.9892,-2.9525,-2.9439,-2.9571,-2.9965,-3.036,-3.0754,-3.1157,-3.1478,-3.1689,-3.1515,-3.1552,-3.1955,-3.1827,-3.1799,-3.1983,-3.2184,-3.2423,-3.2634,-3.2808,-3.3092,-3.3431,-3.3193,-3.3019,-3.3202,-3.2514,-3.2019,-3.1974,-3.1643,-3.1387,-3.1377,-3.1231,-3.1157,-3.1313,-3.1222,-3.1194,-3.1405,-3.1882,-3.2247,-3.232,-3.2819,-3.3189,-3.3316,-3.3694,-3.4497,-3.5098,-3.5715,-3.647,-3.716,-3.7763,-3.781,-3.728,-3.7576,-3.7404,-3.684,-3.6415,-3.6289,-2.8674,-2.8289,-2.7903,-2.7484,-2.709,-2.7167,-2.715,-2.7081,-2.7073,-2.6747,-2.6242,-2.6199,-2.6191,-2.6165,-2.5883,-2.582,-2.5711,-2.5463,-2.5489,-2.582,-2.6054,-2.6191,-2.6251,-2.6807,-2.6919,-2.6679,-2.6936,-2.7081,-2.7081,-2.7081,-2.6927,-2.6602,-2.6251,-2.6004,-2.6054,-2.5919,-2.5934,-2.5958,-2.5474,-2.5397,-2.5748,-2.5813,-2.613,-2.6783,-2.6929,-2.7044,-2.7141,-2.7123,-2.727,-2.7563,-2.7664,-2.8003,-2.8618,-2.9039,-2.9397,-2.9709,-3.0011,-3.0204,-3.0185,-2.9901,-2.977,-2.9727,-3.0094,-3.0506,-3.0901,-3.1368,-3.1781,-3.2038,-3.1781,-3.1708,-3.2056,-3.2047,-3.2047,-3.2139,-3.2496,-3.2845,-3.3166,-3.3294,-3.3459,-3.3725,-3.3551,-3.3358,-3.3221,-3.2643,-3.2093,-3.1845,-3.1579,-3.1396,-3.1377,-3.1377,-3.1377,-3.1377,-3.1377,-3.1359,-3.1377,-3.1442,-3.1506,-3.1377,-3.1506,-3.1625,-3.1754,-3.2384,-3.3073,-3.3505,-3.431,-3.5119,-3.5438,-3.6154,-3.6441,-3.5924,-3.6548,-3.7269,-3.6704,-3.6656,-3.6495,-2.9042,-2.8691,-2.8289,-2.7723,-2.7133,-2.7398,-2.7355,-2.7098,-2.7081,-2.7047,-2.6936,-2.697,-2.6953,-2.697,-2.6902,-2.6859,-2.6859,-2.6876,-2.6842,-2.6867,-2.6953,-2.697,-2.6927,-2.7039,-2.7056,-2.7013,-2.7056,-2.7081,-2.7081,-2.7081,-2.7056,-2.6979,-2.6628,-2.6439,-2.6396,-2.6114,-2.6059,-2.6331,-2.631,-2.6127,-2.5831,-2.5813,-2.6271,-2.7206,-2.7597,-2.8124,-2.8645,-2.8764,-2.8764,-2.8838,-2.9122,-2.936,-2.9479,-2.9855,-3.0103,-3.014,-3.0185,-3.0204,-3.0204,-3.0158,-3.0121,-3.0167,-3.0506,-3.0901,-3.1313,-3.2038,-3.2487,-3.2496,-3.2194,-3.2129,-3.2459,-3.2249,-3.2221,-3.2533,-3.2909,-3.3184,-3.3266,-3.3551,-3.3771,-3.3798,-3.3752,-3.3752,-3.3633,-3.3028,-3.2285,-3.1653,-3.1524,-3.1423,-3.1377,-3.1377,-3.1377,-3.1377,-3.1377,-3.1377,-3.1377,-3.1377,-3.1377,-3.1377,-3.1377,-3.1377,-3.1506,-3.157,-3.1882,-3.2873,-3.3316,-3.3882,-3.4757,-3.5551,-3.5313,-3.4925,-3.559,-3.6684,-3.6895,-3.7018,-3.6916,-2.8965,-2.8426,-2.8263,-2.7758,-2.7211,-2.7235,-2.721,-2.7081,-2.7081,-2.7081,-2.7081,-2.7081,-2.7081,-2.7081,-2.7081,-2.7081,-2.7081,-2.7081,-2.7081,-2.7081,-2.7081,-2.7081,-2.7081,-2.7081,-2.7081,-2.7081,-2.7081,-2.7081,-2.7081,-2.7081,-2.7081,-2.7064,-2.691,-2.6944,-2.7047,-2.69,-2.7,-2.7355,-2.7126,-2.6941,-2.6791,-2.6734,-2.71,-2.7788,-2.7673,-2.7926,-2.8527,-2.8291,-2.8253,-2.8684,-2.8882,-2.907,-2.9304,-2.9887,-3.0247,-3.0238,-3.0427,-3.0543,-3.0543,-3.0341,-3.0204,-3.0204,-3.0791,-3.1332,-3.1735,-3.2487,-3.3055,-3.3193,-3.2725,-3.2432,-3.2579,-3.267,-3.2799,-3.2991,-3.3331,-3.3569,-3.3578,-3.3707,-3.3817,-3.3817,-3.3817,-3.3817,-3.3743,-3.3321,-3.2643,-3.1955,-3.1744,-3.1662,-3.1442,-3.1377,-3.1377,-3.1377,-3.1377,-3.1377,-3.1377,-3.1377,-3.1377,-3.1377,-3.1377,-3.1377,-3.1377,-3.1377,-3.1625,-3.2183,-3.232,-3.2447,-3.2756,-3.3737,-3.4055,-3.3921,-3.4152,-3.4964,-3.5128,-3.5272,-3.5407,-2.8999,-2.8537,-2.8503,-2.8066,-2.7407,-2.7492,-2.7415,-2.7235,-2.7227,-2.7167,-2.7081,-2.7081,-2.7081,-2.7081,-2.7081,-2.7081,-2.7081,-2.7081,-2.7185,-2.721,-2.7218,-2.7278,-2.7364,-2.7261,-2.7218,-2.7201,-2.7124,-2.7081,-2.709,-2.7184,-2.7227,-2.7227,-2.7321,-2.7443,-2.7514,-2.7583,-2.773,-2.784,-2.7803,-2.7818,-2.7754,-2.7673,-2.7845,-2.8215,-2.7804,-2.7799,-2.8454,-2.8042,-2.8029,-2.8639,-2.8702,-2.8889,-2.9235,-3.004,-3.0474,-3.0429,-3.0664,-3.0781,-3.0781,-3.0516,-3.0451,-3.0708,-3.1267,-3.1799,-3.2331,-3.2982,-3.3477,-3.3688,-3.3266,-3.2918,-3.2808,-3.3046,-3.3211,-3.3248,-3.3578,-3.3807,-3.3807,-3.3743,-3.3679,-3.3789,-3.3697,-3.3661,-3.3606,-3.3358,-3.289,-3.2157,-3.1992,-3.1854,-3.1488,-3.1377,-3.1377,-3.1377,-3.1377,-3.1377,-3.1377,-3.1377,-3.1377,-3.1377,-3.1377,-3.1377,-3.1377,-3.1377,-3.1377,-3.1754,-3.1497,-3.1506,-3.1882,-3.2537,-3.3078,-3.3051,-3.3271,-3.384,-3.4316,-3.4209,-3.4599,-2.929,-2.9182,-2.9248,-2.8622,-2.8152,-2.8413,-2.8246,-2.7578,-2.7578,-2.739,-2.7116,-2.7081,-2.7081,-2.7081,-2.7081,-2.7081,-2.7081,-2.7098,-2.727,-2.7535,-2.7578,-2.7783,-2.81,-2.7758,-2.7578,-2.7561,-2.7313,-2.7158,-2.7211,-2.7407,-2.7586,-2.7586,-2.7852,-2.7886,-2.7674,-2.788,-2.7927,-2.7704,-2.8167,-2.8561,-2.8447,-2.849,-2.8286,-2.802,-2.7958,-2.8126,-2.8543,-2.8517,-2.8648,-2.9042,-2.9075,-2.9288,-2.969,-3.0419,-3.08,-3.0801,-3.0791,-3.0791,-3.0809,-3.0781,-3.1066,-3.1735,-3.1937,-3.2313,-3.2982,-3.3459,-3.3743,-3.3807,-3.3725,-3.3541,-3.3257,-3.3257,-3.3285,-3.3285,-3.3578,-3.3789,-3.3807,-3.3551,-3.3468,-3.367,-3.3551,-3.3413,-3.3312,-3.3239,-3.2909,-3.234,-3.2065,-3.1909,-3.157,-3.1423,-3.146,-3.1433,-3.1423,-3.1387,-3.1387,-3.1377,-3.1377,-3.1377,-3.1377,-3.1377,-3.1377,-3.1377,-3.1377,-3.1377,-3.1377,-3.1377,-3.1377,-3.169,-3.2247,-3.2505,-3.2855,-3.3339,-3.3464,-3.4667,-3.4912,-2.6421,-2.6122,-2.5913,-2.6198,-2.6791,-2.6977,-2.7397,-2.7963,-2.7706,-2.7535,-2.739,-2.7176,-2.7081,-2.7081,-2.7081,-2.7081,-2.7159,-2.7304,-2.7492,-2.7629,-2.786,-2.8057,-2.816,-2.8032,-2.798,-2.7963,-2.7843,-2.7792,-2.7766,-2.7681,-2.7604,-2.7569,-2.7501,-2.7512,-2.7539,-2.7678,-2.7783,-2.7841,-2.8139,-2.8131,-2.7904,-2.7921,-2.7835,-2.7757,-2.7712,-2.8009,-2.864,-2.8253,-2.8227,-2.88,-2.8887,-2.9126,-2.9761,-3.0509,-3.101,-3.1167,-3.0928,-3.0901,-3.1121,-3.1176,-3.1405,-3.1955,-3.2505,-3.2872,-3.3221,-3.3578,-3.3817,-3.3817,-3.3817,-3.3725,-3.3651,-3.3596,-3.3596,-3.3624,-3.3725,-3.3817,-3.3798,-3.3679,-3.3661,-3.3752,-3.367,-3.3606,-3.3578,-3.3596,-3.3386,-3.2918,-3.279,-3.2469,-3.2001,-3.1974,-3.2038,-3.1845,-3.1772,-3.1772,-3.1772,-3.1524,-3.1387,-3.1377,-3.1377,-3.1377,-3.1377,-3.1377,-3.1377,-3.1377,-3.1377,-3.1377,-3.1377,-3.1442,-3.1882,-3.1937,-3.231,-3.2508,-3.2482,-3.3281,-3.3595,-2.4809,-2.4583,-2.4364,-2.4809,-2.5601,-2.5674,-2.6116,-2.6977,-2.7184,-2.7131,-2.6985,-2.7282,-2.7372,-2.7287,-2.7372,-2.7432,-2.7432,-2.7569,-2.7741,-2.7997,-2.8254,-2.8434,-2.852,-2.8434,-2.8383,-2.8357,-2.8246,-2.8194,-2.8186,-2.8049,-2.7989,-2.7972,-2.7835,-2.7856,-2.7947,-2.8016,-2.8122,-2.8114,-2.8219,-2.8132,-2.7791,-2.7583,-2.7652,-2.7734,-2.7608,-2.7756,-2.8347,-2.7989,-2.7964,-2.8464,-2.8683,-2.9302,-3.0279,-3.0543,-3.1001,-3.1506,-3.1341,-3.1295,-3.1552,-3.1698,-3.1955,-3.2368,-3.2881,-3.3257,-3.3404,-3.3661,-3.3572,-3.3233,-3.3024,-3.2954,-3.2517,-3.2718,-3.3233,-3.3669,-3.3817,-3.3817,-3.3807,-3.3688,-3.3615,-3.3615,-3.3716,-3.378,-3.3817,-3.3807,-3.3606,-3.3276,-3.323,-3.2918,-3.2414,-3.2386,-3.2524,-3.2239,-3.2056,-3.1992,-3.1882,-3.1625,-3.1405,-3.1377,-3.1377,-3.1377,-3.1377,-3.1377,-3.1377,-3.1377,-3.1377,-3.1377,-3.1377,-3.1377,-3.1377,-3.1377,-3.1561,-3.1845,-3.1753,-3.1534,-3.2136,-2.4873,-2.4709,-2.4933,-2.4733,-2.4845,-2.4845,-2.4788,-2.4922,-2.5986,-2.6143,-2.585,-2.7227,-2.7636,-2.7608,-2.7858,-2.8143,-2.81,-2.786,-2.8075,-2.8631,-2.8751,-2.8939,-2.9179,-2.8914,-2.8777,-2.8759,-2.8408,-2.8246,-2.8314,-2.8528,-2.8665,-2.8794,-2.8896,-2.8742,-2.87,-2.8721,-2.8695,-2.8306,-2.8247,-2.8252,-2.8186,-2.7659,-2.758,-2.794,-2.7738,-2.7691,-2.7734,-2.7972,-2.8097,-2.8182,-2.8827,-2.9922,-3.1004,-3.0908,-3.0846,-3.1676,-3.1917,-3.2001,-3.1868,-3.2226,-3.2649,-3.287,-3.3162,-3.3354,-3.3393,-3.3502,-3.3024,-3.1789,-3.1429,-3.0997,-3.0067,-3.0714,-3.2088,-3.3451,-3.3669,-3.3817,-3.3752,-3.3486,-3.3248,-3.3358,-3.3615,-3.3798,-3.3817,-3.3817,-3.367,-3.3404,-3.3294,-3.3147,-3.2735,-3.2716,-3.2661,-3.2542,-3.2349,-3.2175,-3.1937,-3.1689,-3.1506,-3.1377,-3.1377,-3.1377,-3.1377,-3.1377,-3.1377,-3.1377,-3.1377,-3.1377,-3.1377,-3.1377,-3.1377,-3.1377,-3.1377,-3.1377,-3.1377,-3.1377,-3.1377,-2.2029,-2.2022,-2.2029,-2.2627,-2.344,-2.3502,-2.3915,-2.4758,-2.5085,-2.4977,-2.4993,-2.6104,-2.663,-2.6826,-2.763,-2.834,-2.8571,-2.8468,-2.8554,-2.8794,-2.9033,-2.9188,-2.9265,-2.9196,-2.9145,-2.9128,-2.9025,-2.8956,-2.8922,-2.8837,-2.8777,-2.8768,-2.8631,-2.8494,-2.8307,-2.7557,-2.7266,-2.7921,-2.6344,-2.5814,-2.6567,-2.6589,-2.6589,-2.6798,-2.7491,-2.8131,-2.831,-2.8435,-2.8632,-2.8818,-2.9306,-3.0104,-3.1156,-3.1751,-3.1526,-3.1046,-3.1862,-3.1451,-3.0232,-3.1687,-3.2561,-3.2382,-3.2975,-3.3029,-3.2342,-3.2228,-3.1508,-3.0217,-2.9924,-2.9639,-2.9425,-2.9568,-3.0572,-3.2088,-3.3164,-3.3669,-3.3521,-3.355,-3.3642,-3.3642,-3.3743,-3.3807,-3.3747,-3.3669,-3.3475,-3.3513,-3.3459,-3.3303,-3.3088,-3.3143,-3.3285,-3.3074,-3.2725,-3.2159,-3.1854,-3.1443,-3.1063,-3.1111,-3.124,-3.1377,-3.1377,-3.1377,-3.1377,-3.1377,-3.1377,-3.1377,-3.1377,-3.1377,-3.1377,-3.1377,-3.1377,-3.1377,-3.1377,-3.1377,-3.1377,-2.0665,-2.0665,-2.0665,-2.1207,-2.2009,-2.2009,-2.2559,-2.342,-2.37,-2.3754,-2.3906,-2.5037,-2.5895,-2.635,-2.7358,-2.8275,-2.8965,-2.8982,-2.8974,-2.9008,-2.9179,-2.9307,-2.9307,-2.9307,-2.9307,-2.9307,-2.9307,-2.9307,-2.9299,-2.9093,-2.8982,-2.8922,-2.8717,-2.8302,-2.7827,-2.6963,-2.6769,-2.6753,-2.5133,-2.4537,-2.5165,-2.5267,-2.5259,-2.5496,-2.6303,-2.7019,-2.7439,-2.7665,-2.8243,-2.9243,-2.9932,-3.0409,-3.0544,-3.124,-3.1557,-3.1124,-3.1012,-3.077,-2.9926,-3.0939,-3.1461,-3.0955,-3.1578,-3.1649,-3.0855,-3.0643,-2.9924,-2.8644,-2.8357,-2.8141,-2.7643,-2.8076,-2.8788,-2.9655,-3.1084,-3.2009,-3.2079,-3.2079,-3.2,-3.1913,-3.193,-3.2079,-3.2088,-3.2088,-3.2377,-3.2736,-3.2945,-3.291,-3.2833,-3.3279,-3.3128,-3.2773,-3.1933,-3.1616,-3.1635,-3.118,-3.06,-3.0714,-3.0982,-3.124,-3.1377,-3.1377,-3.1377,-3.1377,-3.1377,-3.1377,-3.1377,-3.1377,-3.1377,-3.1377,-3.1377,-3.1377,-3.1377,-3.1377,-3.1377,-2.0665,-2.0665,-2.0665,-2.0735,-2.0804,-2.0804,-2.0937,-2.1075,-2.2065,-2.253,-2.2667,-2.4011,-2.533,-2.6238,-2.6666,-2.7677,-2.8962,-2.8994,-2.9051,-2.9191,-2.9307,-2.9307,-2.9307,-2.9307,-2.9307,-2.9307,-2.9307,-2.9307,-2.9307,-2.9003,-2.9176,-2.892,-2.8615,-2.8337,-2.7124,-2.6937,-2.6067,-2.5338,-2.4397,-2.4009,-2.4319,-2.4079,-2.4043,-2.4392,-2.4716,-2.5256,-2.5941,-2.6486,-2.7548,-2.9492,-3.048,-3.0238,-2.9428,-3.0118,-3.0914,-3.0746,-2.9837,-2.9859,-3.0405,-3.0009,-2.9393,-2.9131,-2.9425,-2.9139,-2.9139,-2.9067,-2.8429,-2.7005,-2.6794,-2.6218,-2.5492,-2.5998,-2.6794,-2.7012,-2.8716,-2.9568,-2.9353,-2.9425,-2.9782,-2.9568,-2.9282,-2.9274,-2.9639,-2.9639,-3.0217,-3.0935,-3.1358,-3.1324,-3.151,-3.1861,-3.2377,-3.1791,-3.0729,-3.0352,-3.0147,-2.9841,-2.9347,-2.9479,-2.9896,-3.0497,-3.1147,-3.1377,-3.1377,-3.1377,-3.1377,-3.1377,-3.1377,-3.1377,-3.1377,-3.1377,-3.1377,-3.1377,-3.1377,-3.1377,-3.1387,-2.0665,-2.0665,-2.0665,-2.0665,-2.0665,-2.0665,-2.0665,-2.0735,-2.1069,-2.1296,-2.1465,-2.2724,-2.3589,-2.3926,-2.5084,-2.6352,-2.7427,-2.7766,-2.8436,-2.9176,-2.9307,-2.9307,-2.9307,-2.9307,-2.9307,-2.9307,-2.9307,-2.9307,-2.9242,-2.8329,-2.7857,-2.77,-2.68,-2.6107,-2.548,-2.4624,-2.4452,-2.4527,-2.2717,-2.246,-2.3459,-2.3255,-2.3295,-2.3723,-2.4824,-2.559,-2.6262,-2.709,-2.8183,-2.9628,-2.948,-2.976,-2.9892,-2.978,-2.925,-2.8549,-2.878,-2.8205,-2.7208,-2.8133,-2.8565,-2.7795,-2.8357,-2.8708,-2.7585,-2.7505,-2.6714,-2.5573,-2.5212,-2.5065,-2.4784,-2.4998,-2.5279,-2.5499,-2.7425,-2.8924,-2.8995,-2.921,-2.921,-2.921,-2.9067,-2.8924,-2.8924,-2.8924,-2.9131,-2.9639,-2.9782,-2.9782,-2.9971,-3.0186,-3.0567,-2.9897,-2.9057,-2.8741,-2.8481,-2.8235,-2.8105,-2.8113,-2.8593,-2.9415,-3.0354,-3.1267,-3.1322,-3.1377,-3.1377,-3.1377,-3.1377,-3.1377,-3.1377,-3.1377,-3.1377,-3.1377,-3.1377,-3.1387,-3.1396,-2.0665,-2.0665,-2.0665,-2.0665,-2.0665,-2.0665,-2.0665,-2.0665,-2.0665,-2.0665,-2.0867,-2.154,-2.2278,-2.2887,-2.3706,-2.4865,-2.6151,-2.6293,-2.6694,-2.7427,-2.8039,-2.8708,-2.9111,-2.9307,-2.9307,-2.9307,-2.9307,-2.8971,-2.8403,-2.7638,-2.7107,-2.6479,-2.5686,-2.5052,-2.4406,-2.3679,-2.3124,-2.322,-2.1835,-2.1631,-2.2523,-2.2376,-2.2516,-2.2885,-2.3947,-2.4575,-2.5099,-2.5933,-2.7043,-2.8071,-2.8479,-2.8554,-2.8222,-2.832,-2.7795,-2.6939,-2.7215,-2.6568,-2.6071,-2.6779,-2.6779,-2.6218,-2.6859,-2.6714,-2.6145,-2.5932,-2.5426,-2.4851,-2.4629,-2.4629,-2.4629,-2.4629,-2.4629,-2.4851,-2.621,-2.7273,-2.728,-2.7143,-2.7215,-2.7288,-2.7288,-2.728,-2.728,-2.728,-2.7635,-2.7996,-2.822,-2.822,-2.8269,-2.8498,-2.853,-2.795,-2.7593,-2.7223,-2.7016,-2.6786,-2.6786,-2.6809,-2.7379,-2.8135,-2.9335,-3.0585,-3.0944,-3.1,-3.1249,-3.1377,-3.1377,-3.1377,-3.1377,-3.1377,-3.1377,-3.1377,-3.1377,-3.1451,-3.1451,-2.0665,-2.0665,-2.0665,-2.0665,-2.0665,-2.0665,-2.0665,-2.0665,-2.0665,-2.0665,-2.0735,-2.0735,-2.1471,-2.2552,-2.2552,-2.3372,-2.4738,-2.4798,-2.5008,-2.5614,-2.6427,-2.7427,-2.8304,-2.9102,-2.9045,-2.8922,-2.907,-2.8453,-2.7544,-2.7303,-2.6413,-2.5364,-2.5163,-2.4587,-2.3472,-2.3228,-2.2651,-2.1904,-2.1665,-2.1521,-2.1795,-2.1795,-2.1998,-2.2361,-2.2664,-2.3184,-2.3699,-2.4246,-2.5077,-2.6135,-2.7484,-2.7013,-2.5384,-2.6357,-2.651,-2.6364,-2.5646,-2.5433,-2.6071,-2.5352,-2.4851,-2.4851,-2.4777,-2.4629,-2.4777,-2.4851,-2.4777,-2.4636,-2.4629,-2.4629,-2.4629,-2.4629,-2.4629,-2.4636,-2.4777,-2.4629,-2.4629,-2.4629,-2.4629,-2.4629,-2.471,-2.4636,-2.4629,-2.4703,-2.5212,-2.6502,-2.6648,-2.6648,-2.6743,-2.6951,-2.6796,-2.6378,-2.5995,-2.5727,-2.5567,-2.5353,-2.5418,-2.5476,-2.6161,-2.7008,-2.8201,-2.9261,-2.9931,-3.0378,-3.0514,-3.0942,-3.1377,-3.1377,-3.1377,-3.1377,-3.1377,-3.1377,-3.1387,-3.1506,-3.1552,-2.0665,-2.0665,-2.0665,-2.0665,-2.0665,-2.0665,-2.0665,-2.0665,-2.0665,-2.0665,-2.0665,-2.0665,-2.0867,-2.1201,-2.1339,-2.1953,-2.3161,-2.3304,-2.3842,-2.5008,-2.521,-2.5547,-2.6486,-2.7973,-2.8584,-2.798,-2.7858,-2.7693,-2.717,-2.5535,-2.4391,-2.3995,-2.3236,-2.2331,-2.2141,-2.2178,-2.1906,-2.1552,-2.1498,-2.1667,-2.1883,-2.2021,-2.2159,-2.2532,-2.2985,-2.3561,-2.411,-2.4436,-2.469,-2.497,-2.5322,-2.5768,-2.5911,-2.5499,-2.5286,-2.5212,-2.4924,-2.4777,-2.4998,-2.4851,-2.4629,-2.4629,-2.4629,-2.4629,-2.4629,-2.4629,-2.4629,-2.4629,-2.4629,-2.4629,-2.4629,-2.4629,-2.4629,-2.4629,-2.4629,-2.4629,-2.4629,-2.4629,-2.4629,-2.4629,-2.4629,-2.4629,-2.4629,-2.4629,-2.4851,-2.5145,-2.5145,-2.5145,-2.5357,-2.5611,-2.5412,-2.5214,-2.5096,-2.4938,-2.4763,-2.4714,-2.4854,-2.4804,-2.5314,-2.5716,-2.6867,-2.7667,-2.831,-2.9052,-2.982,-3.0219,-3.0532,-3.1175,-3.1046,-3.124,-3.1313,-3.1377,-3.1414,-3.1543,-3.1671,-2.0665,-2.0665,-2.0665,-2.0665,-2.0665,-2.0665,-2.0665,-2.0665,-2.0665,-2.0665,-2.0665,-2.0665,-2.0665,-2.0665,-2.0735,-2.1207,-2.1609,-2.1809,-2.2559,-2.3645,-2.3985,-2.3985,-2.4374,-2.6094,-2.6996,-2.6434,-2.6649,-2.6449,-2.5442,-2.4529,-2.3569,-2.2815,-2.2123,-2.2093,-2.1848,-2.183,-2.1934,-2.194,-2.2062,-2.2282,-2.2422,-2.2635,-2.292,-2.3231,-2.3738,-2.4269,-2.4536,-2.4549,-2.4629,-2.4629,-2.4636,-2.4924,-2.5573,-2.5065,-2.4629,-2.4629,-2.4629,-2.4629,-2.4629,-2.4629,-2.4629,-2.4629,-2.4629,-2.4629,-2.4629,-2.4629,-2.4629,-2.4629,-2.4629,-2.4629,-2.4629,-2.4629,-2.4629,-2.4629,-2.4629,-2.4629,-2.4629,-2.4629,-2.4629,-2.4629,-2.4629,-2.4629,-2.4629,-2.4629,-2.4629,-2.4851,-2.4851,-2.4851,-2.4851,-2.5036,-2.474,-2.4566,-2.444,-2.4233,-2.4123,-2.415,-2.4458,-2.4465,-2.4661,-2.4823,-2.5363,-2.6028,-2.6583,-2.7634,-2.8715,-2.8776,-2.9076,-2.9856,-3.0482,-3.039,-3.052,-3.1046,-3.146,-3.1513,-3.1697,-2.0665,-2.0665,-2.0665,-2.0665,-2.0665,-2.0665,-2.0665,-2.0665,-2.0665,-2.0665,-2.0665,-2.0665,-2.0665,-2.0665,-2.0665,-2.0665,-2.0735,-2.088,-2.1615,-2.2353,-2.249,-2.249,-2.2899,-2.397,-2.4803,-2.4831,-2.5319,-2.4826,-2.4205,-2.3622,-2.307,-2.2178,-2.2194,-2.2168,-2.2297,-2.2396,-2.2341,-2.2398,-2.2689,-2.2924,-2.301,-2.3233,-2.3597,-2.3973,-2.4281,-2.4522,-2.4556,-2.4629,-2.4629,-2.4629,-2.4629,-2.4629,-2.4629,-2.4629,-2.4629,-2.4629,-2.4629,-2.4629,-2.4629,-2.4629,-2.4629,-2.4629,-2.4629,-2.4629,-2.4629,-2.4629,-2.4629,-2.4629,-2.4629,-2.4629,-2.4629,-2.4629,-2.4629,-2.4629,-2.4629,-2.4629,-2.4629,-2.4629,-2.4629,-2.4629,-2.4629,-2.4629,-2.4629,-2.4629,-2.4629,-2.4629,-2.4629,-2.4629,-2.4629,-2.4609,-2.4476,-2.4422,-2.4389,-2.4376,-2.4215,-2.4162,-2.4396,-2.4416,-2.4402,-2.4428,-2.4507,-2.4998,-2.5798,-2.6813,-2.7583,-2.7594,-2.7948,-2.8685,-2.9074,-2.921,-2.9461,-2.9713,-3.0458,-3.1344,-3.1584,-2.0665,-2.0665,-2.0665,-2.0665,-2.0665,-2.0665,-2.0665,-2.0665,-2.0665,-2.0665,-2.0665,-2.0665,-2.0665,-2.0665,-2.0665,-2.0665,-2.0665,-2.0741,-2.0873,-2.1207,-2.1214,-2.1214,-2.154,-2.2191,-2.2426,-2.2612,-2.351,-2.4068,-2.3641,-2.3056,-2.2577,-2.2267,-2.2235,-2.234,-2.2414,-2.2558,-2.2707,-2.2713,-2.3079,-2.3296,-2.337,-2.3667,-2.4038,-2.4414,-2.4562,-2.4562,-2.4629,-2.4629,-2.4629,-2.4629,-2.4629,-2.4629,-2.4629,-2.4629,-2.4629,-2.4629,-2.4629,-2.4629,-2.4629,-2.4629,-2.4629,-2.4629,-2.4629,-2.4629,-2.4629,-2.4629,-2.4629,-2.4629,-2.4629,-2.4629,-2.4629,-2.4629,-2.4629,-2.4629,-2.4629,-2.4629,-2.4629,-2.4629,-2.4629,-2.4629,-2.4629,-2.4629,-2.4629,-2.4629,-2.4629,-2.4629,-2.4629,-2.4629,-2.4629,-2.4629,-2.4589,-2.4576,-2.4589,-2.4589,-2.4549,-2.4509,-2.4569,-2.4556,-2.4543,-2.4543,-2.4589,-2.4563,-2.5198,-2.6069,-2.655,-2.6648,-2.7116,-2.7521,-2.7736,-2.7842,-2.8096,-2.8345,-2.9321,-3.0271,-3.1091,-2.0665,-2.0665,-2.0665,-2.0665,-2.0665,-2.0665,-2.0665,-2.0665,-2.0665,-2.0665,-2.0665,-2.0665,-2.0665,-2.0665,-2.0665,-2.0665,-2.0665,-2.0665,-2.0665,-2.0665,-2.0671,-2.0762,-2.0889,-2.1305,-2.1535,-2.1928,-2.2723,-2.3142,-2.3081,-2.2621,-2.234,-2.234,-2.234,-2.234,-2.2414,-2.2707,-2.2781,-2.2781,-2.3296,-2.3587,-2.3513,-2.3964,-2.4414,-2.4562,-2.4629,-2.4629,-2.4629,-2.4629,-2.4629,-2.4629,-2.4629,-2.4629,-2.4629,-2.4629,-2.4629,-2.4629,-2.4629,-2.4629,-2.4629,-2.4629,-2.4629,-2.4629,-2.4629,-2.4629,-2.4629,-2.4629,-2.4629,-2.4629,-2.4629,-2.4629,-2.4629,-2.4629,-2.4629,-2.4629,-2.4629,-2.4629,-2.4629,-2.4629,-2.4629,-2.4629,-2.4629,-2.4629,-2.4629,-2.4629,-2.4629,-2.4629,-2.4629,-2.4629,-2.4629,-2.4629,-2.4629,-2.4629,-2.4629,-2.4629,-2.4629,-2.4629,-2.4629,-2.4629,-2.4629,-2.4629,-2.4629,-2.4629,-2.471,-2.5164,-2.5438,-2.577,-2.5747,-2.6062,-2.6257,-2.6588,-2.716,-2.7688,-2.8426,-2.9177,-2.9999,-2.0771,-2.0744,-2.0753,-2.0665,-2.0665,-2.0665,-2.0665,-2.0665,-2.0665,-2.0665,-2.0665,-2.0665,-2.0665,-2.0665,-2.0665,-2.0665,-2.0665,-2.0665,-2.0702,-2.0774,-2.078,-2.0889,-2.116,-2.1414,-2.1667,-2.1916,-2.2244,-2.234,-2.2452,-2.2327,-2.234,-2.234,-2.234,-2.234,-2.2414,-2.2707,-2.2632,-2.2924,-2.3445,-2.3816,-2.389,-2.426,-2.4629,-2.4629,-2.4629,-2.4629,-2.4629,-2.4629,-2.4629,-2.4629,-2.4629,-2.4629,-2.4629,-2.4629,-2.4629,-2.4629,-2.4629,-2.4629,-2.4629,-2.4629,-2.4629,-2.4629,-2.4629,-2.4629,-2.4629,-2.4629,-2.4629,-2.4629,-2.4629,-2.4629,-2.4629,-2.4629,-2.4629,-2.4629,-2.4629,-2.4629,-2.4629,-2.4629,-2.4629,-2.4629,-2.4629,-2.4629,-2.4629,-2.4629,-2.4629,-2.4629,-2.4629,-2.4629,-2.4629,-2.4629,-2.4629,-2.4629,-2.4629,-2.4629,-2.4629,-2.4629,-2.4629,-2.4629,-2.4629,-2.4629,-2.4629,-2.4629,-2.4703,-2.4796,-2.4735,-2.4936,-2.4812,-2.4733,-2.5123,-2.5618,-2.6319,-2.6863,-2.7334,-2.7992,-2.8749,-2.0804,-2.1062,-2.0838,-2.0665,-2.0665,-2.0665,-2.0665,-2.0665,-2.0665,-2.0665,-2.0665,-2.0665,-2.0665,-2.0665,-2.0665,-2.0665,-2.0671,-2.0714,-2.0874,-2.1007,-2.1074,-2.116,-2.1504,-2.177,-2.1812,-2.1945,-2.215,-2.2321,-2.234,-2.234,-2.234,-2.234,-2.234,-2.234,-2.234,-2.2781,-2.3005,-2.3296,-2.3742,-2.4112,-2.4408,-2.4482,-2.4556,-2.4629,-2.4629,-2.4629,-2.4629,-2.4629,-2.4629,-2.4629,-2.4629,-2.4629,-2.4629,-2.4629,-2.4629,-2.4629,-2.4629,-2.4629,-2.4629,-2.4629,-2.4629,-2.4629,-2.4629,-2.4629,-2.4629,-2.4629,-2.4629,-2.4629,-2.4629,-2.4629,-2.4629,-2.4629,-2.4629,-2.4629,-2.4629,-2.4629,-2.4629,-2.4629,-2.4629,-2.4629,-2.4629,-2.4629,-2.4629,-2.4629,-2.4629,-2.4629,-2.4629,-2.4629,-2.4629,-2.4629,-2.4629,-2.4629,-2.4629,-2.4629,-2.4629,-2.4629,-2.4629,-2.4629,-2.4629,-2.4629,-2.4629,-2.4629,-2.4629,-2.4583,-2.4536,-2.4469,-2.4541,-2.453,-2.4381,-2.4623,-2.5278,-2.563,-2.5922,-2.6771,-2.7679,-2.11,-2.1116,-2.0931,-2.0874,-2.0747,-2.0665,-2.0665,-2.0665,-2.0665,-2.0665,-2.0665,-2.0665,-2.0665,-2.0665,-2.0665,-2.0665,-2.0771,-2.0886,-2.1007,-2.1171,-2.1304,-2.1438,-2.1667,-2.1824,-2.1988,-2.2164,-2.2267,-2.2327,-2.234,-2.234,-2.234,-2.234,-2.234,-2.234,-2.234,-2.2924,-2.3073,-2.3296,-2.3667,-2.4186,-2.4482,-2.4629,-2.4629,-2.4629,-2.4629,-2.4629,-2.4629,-2.4629,-2.4629,-2.4629,-2.4629,-2.4629,-2.4629,-2.4629,-2.4629,-2.4629,-2.4629,-2.4629,-2.4629,-2.4629,-2.4629,-2.4629,-2.4629,-2.4629,-2.4629,-2.4629,-2.4629,-2.4629,-2.4629,-2.4629,-2.4629,-2.4629,-2.4629,-2.4629,-2.4629,-2.4629,-2.4629,-2.4629,-2.4629,-2.4629,-2.4629,-2.4629,-2.4629,-2.4629,-2.4629,-2.4629,-2.4629,-2.4629,-2.4629,-2.4629,-2.4629,-2.4629,-2.4629,-2.4629,-2.4629,-2.4629,-2.4629,-2.4629,-2.4629,-2.4629,-2.4629,-2.4629,-2.4629,-2.4629,-2.4596,-2.4523,-2.4436,-2.4396,-2.4461,-2.4301,-2.4128,-2.4696,-2.5263,-2.6117,-2.7157,-2.1474,-2.116,-2.1159,-2.0907,-2.0747,-2.0665,-2.0665,-2.0665,-2.0665,-2.0665,-2.0665,-2.0665,-2.0665,-2.0665,-2.0665,-2.0671,-2.069,-2.0937,-2.1094,-2.1233,-2.1522,-2.1789,-2.1976,-2.2073,-2.2152,-2.2334,-2.2321,-2.234,-2.234,-2.234,-2.234,-2.234,-2.234,-2.234,-2.2489,-2.2856,-2.3147,-2.3377,-2.3896,-2.4334,-2.4562,-2.4629,-2.4629,-2.4629,-2.4629,-2.4629,-2.4629,-2.4629,-2.4629,-2.4629,-2.4629,-2.4629,-2.4629,-2.4629,-2.4629,-2.4629,-2.4629,-2.4629,-2.4629,-2.4629,-2.4629,-2.4629,-2.4629,-2.4629,-2.4629,-2.4629,-2.4629,-2.4629,-2.4629,-2.4629,-2.4629,-2.4629,-2.4629,-2.4629,-2.4629,-2.4629,-2.4629,-2.4629,-2.4629,-2.4629,-2.4629,-2.4629,-2.4629,-2.4629,-2.4629,-2.4629,-2.4629,-2.4629,-2.4629,-2.4629,-2.4629,-2.4629,-2.4629,-2.4629,-2.4629,-2.4629,-2.4629,-2.4629,-2.4629,-2.4629,-2.4629,-2.4629,-2.4629,-2.4629,-2.4629,-2.4603,-2.4536,-2.4583,-2.4623,-2.4482,-2.4369,-2.4342,-2.4798,-2.5559,-2.6423,-2.1982,-2.1432,-2.1172,-2.0983,-2.0665,-2.0665,-2.0665,-2.0665,-2.0665,-2.0665,-2.0665,-2.0665,-2.0665,-2.0665,-2.0665,-2.0665,-2.0684,-2.0943,-2.1185,-2.145,-2.1722,-2.1963,-2.2188,-2.2261,-2.2291,-2.2334,-2.234,-2.234,-2.234,-2.234,-2.234,-2.234,-2.234,-2.234,-2.2483,-2.2775,-2.337,-2.3748,-2.426,-2.4482,-2.4562,-2.4629,-2.4629,-2.4629,-2.4629,-2.4629,-2.4629,-2.4629,-2.4629,-2.4629,-2.4629,-2.4629,-2.4629,-2.4629,-2.4629,-2.4629,-2.4629,-2.4629,-2.4629,-2.4629,-2.4629,-2.4629,-2.4629,-2.4629,-2.4629,-2.4629,-2.4629,-2.4629,-2.4629,-2.4629,-2.4629,-2.4629,-2.4629,-2.4629,-2.4629,-2.4629,-2.4629,-2.4629,-2.4629,-2.4629,-2.4629,-2.4629,-2.4629,-2.4629,-2.4629,-2.4629,-2.4629,-2.4629,-2.4629,-2.4629,-2.4629,-2.4629,-2.4629,-2.4629,-2.4629,-2.4629,-2.4629,-2.4629,-2.4629,-2.4629,-2.4629,-2.4629,-2.4629,-2.4629,-2.4629,-2.4629,-2.4629,-2.4629,-2.4629,-2.4629,-2.4589,-2.4509,-2.4489,-2.4975,-2.5719,-2.2025,-2.1474,-2.136,-2.1064,-2.0665,-2.0665,-2.0665,-2.0665,-2.0665,-2.0665,-2.0665,-2.0665,-2.0665,-2.0665,-2.0665,-2.0665,-2.0732,-2.1142,-2.1347,-2.1589,-2.1873,-2.2212,-2.2334,-2.234,-2.234,-2.234,-2.234,-2.234,-2.234,-2.234,-2.234,-2.234,-2.234,-2.234,-2.2483,-2.2924,-2.3593,-2.4186,-2.4482,-2.4556,-2.4629,-2.4629,-2.4629,-2.4629,-2.4629,-2.4629,-2.4629,-2.4629,-2.4629,-2.4629,-2.4629,-2.4629,-2.4629,-2.4629,-2.4629,-2.4629,-2.4629,-2.4629,-2.4629,-2.4629,-2.4629,-2.4629,-2.4629,-2.4629,-2.4629,-2.4629,-2.4629,-2.4629,-2.4629,-2.4629,-2.4629,-2.4629,-2.4629,-2.4629,-2.4629,-2.4629,-2.4629,-2.4629,-2.4629,-2.4629,-2.4629,-2.4629,-2.4629,-2.4629,-2.4629,-2.4629,-2.4629,-2.4629,-2.4629,-2.4629,-2.4629,-2.4629,-2.4629,-2.4629,-2.4629,-2.4629,-2.4629,-2.4629,-2.4629,-2.4629,-2.4629,-2.4629,-2.4629,-2.4629,-2.4629,-2.4629,-2.4629,-2.4629,-2.4629,-2.4629,-2.4629,-2.4609,-2.4623,-2.4629,-2.5139,-2.2073,-2.1601,-2.151,-2.1166,-2.0696,-2.0665,-2.0665,-2.0665,-2.0665,-2.0665,-2.0665,-2.0665,-2.0665,-2.0665,-2.0665,-2.0665,-2.081,-2.1172,-2.1402,-2.1667,-2.2031,-2.2297,-2.234,-2.234,-2.234,-2.234,-2.234,-2.234,-2.234,-2.234,-2.2414,-2.2489,-2.2489,-2.2483,-2.2707,-2.3222,-2.389,-2.4408,-2.4629,-2.4629,-2.4629,-2.4629,-2.4629,-2.4629,-2.4629,-2.4629,-2.4629,-2.4629,-2.4629,-2.4629,-2.4629,-2.4629,-2.4629,-2.4629,-2.4629,-2.4629,-2.4629,-2.4629,-2.4629,-2.4629,-2.4629,-2.4629,-2.4629,-2.4629,-2.4629,-2.4629,-2.4629,-2.4629,-2.4629,-2.4629,-2.4629,-2.4629,-2.4629,-2.4629,-2.4629,-2.4629,-2.4629,-2.4629,-2.4629,-2.4629,-2.4629,-2.4629,-2.4629,-2.4629,-2.4629,-2.4629,-2.4629,-2.4629,-2.4629,-2.4629,-2.4629,-2.4629,-2.4629,-2.4629,-2.4629,-2.4629,-2.4629,-2.4629,-2.4629,-2.4629,-2.4629,-2.4629,-2.4629,-2.4629,-2.4629,-2.4629,-2.4629,-2.4629,-2.4629,-2.4629,-2.4629,-2.4629,-2.4629,-2.4629,-2.4629,-2.2102,-2.1842,-2.1595,-2.1185,-2.0738,-2.0665,-2.0671,-2.0702,-2.0678,-2.0665,-2.0665,-2.0665,-2.0665,-2.0678,-2.0696,-2.0738,-2.0853,-2.1263,-2.1529,-2.1667,-2.2023,-2.2303,-2.234,-2.234,-2.234,-2.234,-2.234,-2.234,-2.234,-2.2414,-2.2564,-2.2781,-2.2856,-2.293,-2.3005,-2.3593,-2.4186,-2.4562,-2.4562,-2.4629,-2.4629,-2.4629,-2.4629,-2.4629,-2.4629,-2.4629,-2.4629,-2.4629,-2.4629,-2.4629,-2.4629,-2.4629,-2.4629,-2.4629,-2.4629,-2.4629,-2.4629,-2.4629,-2.4629,-2.4629,-2.4629,-2.4629,-2.4629,-2.4629,-2.4629,-2.4629,-2.4629,-2.4629,-2.4629,-2.4629,-2.4629,-2.4629,-2.4629,-2.4629,-2.4629,-2.4629,-2.4629,-2.4629,-2.4629,-2.4629,-2.4629,-2.4629,-2.4629,-2.4629,-2.4629,-2.4629,-2.4629,-2.4629,-2.4629,-2.4629,-2.4629,-2.4629,-2.4629,-2.4629,-2.4629,-2.4629,-2.4629,-2.4629,-2.4629,-2.4629,-2.4629,-2.4629,-2.4629,-2.4629,-2.4629,-2.4629,-2.4629,-2.4629,-2.4629,-2.4629,-2.4629,-2.4629,-2.4629,-2.4629,-2.4629,-2.2108,-2.1934,-2.177,-2.1535,-2.1178,-2.081,-2.0756,-2.0947,-2.0756,-2.0671,-2.0665,-2.0665,-2.0665,-2.0708,-2.084,-2.0913,-2.1022,-2.1474,-2.174,-2.1782,-2.2096,-2.2223,-2.234,-2.234,-2.234,-2.234,-2.234,-2.234,-2.234,-2.2489,-2.2707,-2.293,-2.3377,-2.36,-2.3667,-2.3964,-2.4186,-2.4556,-2.4629,-2.4629,-2.4629,-2.4629,-2.4629,-2.4629,-2.4629,-2.4629,-2.4629,-2.4629,-2.4629,-2.4629,-2.4629,-2.4629,-2.4629,-2.4629,-2.4629,-2.4629,-2.4629,-2.4629,-2.4629,-2.4629,-2.4629,-2.4629,-2.4629,-2.4629,-2.4629,-2.4629,-2.4629,-2.4629,-2.4629,-2.4629,-2.4629,-2.4629,-2.4629,-2.4629,-2.4629,-2.4629,-2.4629,-2.4629,-2.4629,-2.4629,-2.4629,-2.4629,-2.4629,-2.4629,-2.4629,-2.4629,-2.4629,-2.4629,-2.4629,-2.4629,-2.4629,-2.4629,-2.4629,-2.4629,-2.4629,-2.4629,-2.4629,-2.4629,-2.4629,-2.4629,-2.4629,-2.4629,-2.4629,-2.4629,-2.4629,-2.4629,-2.4629,-2.4629,-2.4629,-2.4629,-2.4629,-2.4629,-2.4629,-2.4629,-2.4629,-2.2243,-2.1999,-2.1909,-2.183,-2.1667,-2.1178,-2.1058,-2.1142,-2.0925,-2.0804,-2.0792,-2.072,-2.0665,-2.0744,-2.0989,-2.1058,-2.1112,-2.1498,-2.1836,-2.1867,-2.2103,-2.2231,-2.2303,-2.2334,-2.234,-2.234,-2.234,-2.2334,-2.2558,-2.2781,-2.3079,-2.3451,-2.3896,-2.4119,-2.4193,-2.426,-2.4334,-2.4556,-2.4629,-2.4629,-2.4629,-2.4629,-2.4629,-2.4629,-2.4629,-2.4629,-2.4629,-2.4629,-2.4629,-2.4629,-2.4629,-2.4629,-2.4629,-2.4629,-2.4629,-2.4629,-2.4629,-2.4629,-2.4629,-2.4629,-2.4629,-2.4629,-2.4629,-2.4629,-2.4629,-2.4629,-2.4629,-2.4629,-2.4629,-2.4629,-2.4629,-2.4629,-2.4629,-2.4629,-2.4629,-2.4629,-2.4629,-2.4629,-2.4629,-2.4629,-2.4629,-2.4629,-2.4629,-2.4629,-2.4629,-2.4629,-2.4629,-2.4629,-2.4629,-2.4629,-2.4629,-2.4629,-2.4629,-2.4629,-2.4629,-2.4629,-2.4629,-2.4629,-2.4629,-2.4629,-2.4629,-2.4629,-2.4629,-2.4629,-2.4629,-2.4629,-2.4629,-2.4629,-2.4629,-2.4629,-2.4629,-2.4629,-2.4629,-2.4629,-2.4629,-2.234,-2.2303,-2.1987,-2.2029,-2.2206,-2.1698,-2.1498,-2.1456,-2.1191,-2.1141,-2.1058,-2.0816,-2.0732,-2.0826,-2.1026,-2.1147,-2.1142,-2.1408,-2.1637,-2.1794,-2.1873,-2.2097,-2.2218,-2.2354,-2.244,-2.2396,-2.2483,-2.2707,-2.2856,-2.3079,-2.3451,-2.3896,-2.4267,-2.4488,-2.4488,-2.4488,-2.4556,-2.4556,-2.4629,-2.4629,-2.4629,-2.4629,-2.4629,-2.4629,-2.4629,-2.4629,-2.4629,-2.4629,-2.4629,-2.4629,-2.4629,-2.4629,-2.4629,-2.4629,-2.4629,-2.4629,-2.4629,-2.4629,-2.4629,-2.4629,-2.4629,-2.4629,-2.4629,-2.4629,-2.4629,-2.4629,-2.4629,-2.4629,-2.4629,-2.4629,-2.4629,-2.4629,-2.4629,-2.4629,-2.4629,-2.4629,-2.4629,-2.4629,-2.4629,-2.4629,-2.4629,-2.4629,-2.4629,-2.4629,-2.4629,-2.4629,-2.4629,-2.4629,-2.4629,-2.4629,-2.4629,-2.4629,-2.4629,-2.4629,-2.4629,-2.4629,-2.4629,-2.4629,-2.4629,-2.4629,-2.4629,-2.4629,-2.4629,-2.4629,-2.4629,-2.4629,-2.4629,-2.4629,-2.4629,-2.4629,-2.4629,-2.4629,-2.4629,-2.4629,-2.4629,-2.234,-2.2327,-2.2174,-2.2267,-2.2229,-2.217,-2.1836,-2.1492,-2.1384,-2.136,-2.1341,-2.1141,-2.0895,-2.0961,-2.1028,-2.1172,-2.1383,-2.1462,-2.1643,-2.1795,-2.1819,-2.2087,-2.2264,-2.2436,-2.2676,-2.2936,-2.306,-2.3054,-2.3302,-2.3451,-2.3896,-2.4414,-2.4488,-2.4562,-2.4629,-2.4629,-2.4629,-2.4629,-2.4629,-2.4629,-2.4629,-2.4629,-2.4629,-2.4629,-2.4629,-2.4629,-2.4629,-2.4629,-2.4629,-2.4629,-2.4629,-2.4629,-2.4629,-2.4629,-2.4629,-2.4629,-2.4629,-2.4629,-2.4629,-2.4629,-2.4629,-2.4629,-2.4629,-2.4629,-2.4629,-2.4629,-2.4629,-2.4629,-2.4629,-2.4629,-2.4629,-2.4629,-2.4629,-2.4629,-2.4629,-2.4629,-2.4629,-2.4629,-2.4629,-2.4629,-2.4629,-2.4629,-2.4629,-2.4629,-2.4629,-2.4629,-2.4629,-2.4629,-2.4629,-2.4629,-2.4629,-2.4629,-2.4629,-2.4629,-2.4629,-2.4629,-2.4629,-2.4629,-2.4629,-2.4629,-2.4629,-2.4629,-2.4629,-2.4629,-2.4629,-2.4629,-2.4629,-2.4629,-2.4629,-2.4629,-2.4629,-2.4629,-2.4629,-2.4629,-2.4636,-2.234,-2.234,-2.234,-2.2279,-2.2349,-2.2583,-2.2448,-2.2091,-2.1667,-2.148,-2.1426,-2.1135,-2.0971,-2.0907,-2.1074,-2.1207,-2.1548,-2.1561,-2.1785,-2.2149,-2.1869,-2.2178,-2.2422,-2.2607,-2.2819,-2.3117,-2.3311,-2.3317,-2.3629,-2.4044,-2.4414,-2.4562,-2.4629,-2.4629,-2.4629,-2.4629,-2.4629,-2.4629,-2.4629,-2.4629,-2.4629,-2.4629,-2.4629,-2.4629,-2.4629,-2.4629,-2.4629,-2.4629,-2.4629,-2.4629,-2.4629,-2.4629,-2.4629,-2.4629,-2.4629,-2.4629,-2.4629,-2.4629,-2.4629,-2.4629,-2.4629,-2.4629,-2.4629,-2.4629,-2.4629,-2.4629,-2.4629,-2.4629,-2.4629,-2.4629,-2.4629,-2.4629,-2.4629,-2.4629,-2.4629,-2.4629,-2.4629,-2.4629,-2.4629,-2.4629,-2.4629,-2.4629,-2.4629,-2.4629,-2.4629,-2.4629,-2.4629,-2.4629,-2.4629,-2.4629,-2.4629,-2.4629,-2.4629,-2.4629,-2.4629,-2.4629,-2.4629,-2.4629,-2.4629,-2.4629,-2.4629,-2.4629,-2.4629,-2.4629,-2.4629,-2.4629,-2.4629,-2.4629,-2.4629,-2.4629,-2.4629,-2.4629,-2.4629,-2.4629,-2.4562,-2.2408,-2.2408,-2.2414,-2.2509,-2.2607,-2.3089,-2.3174,-2.2933,-2.198,-2.1612,-2.1545,-2.109,-2.0989,-2.1194,-2.1242,-2.1525,-2.1728,-2.1799,-2.1938,-2.2586,-2.2146,-2.2242,-2.251,-2.2677,-2.2947,-2.3021,-2.3241,-2.3676,-2.406,-2.4334,-2.4488,-2.4629,-2.4629,-2.4629,-2.4629,-2.4629,-2.4629,-2.4629,-2.4629,-2.4629,-2.4629,-2.4629,-2.4629,-2.4629,-2.4629,-2.4629,-2.4629,-2.4629,-2.4629,-2.4629,-2.4629,-2.4629,-2.4629,-2.4629,-2.4629,-2.4629,-2.4629,-2.4629,-2.4629,-2.4629,-2.4629,-2.4629,-2.4629,-2.4629,-2.4629,-2.4629,-2.4629,-2.4629,-2.4629,-2.4629,-2.4629,-2.4629,-2.4629,-2.4629,-2.4629,-2.4629,-2.4629,-2.4629,-2.4629,-2.4629,-2.4629,-2.4629,-2.4629,-2.4629,-2.4629,-2.4629,-2.4629,-2.4629,-2.4629,-2.4629,-2.4629,-2.4629,-2.4629,-2.4629,-2.4629,-2.4629,-2.4629,-2.4629,-2.4629,-2.4629,-2.4629,-2.4629,-2.4629,-2.4629,-2.4629,-2.4629,-2.4629,-2.4629,-2.4629,-2.4629,-2.4629,-2.4629,-2.4629,-2.4562,-2.4636,-2.2924,-2.3147,-2.3147,-2.3178,-2.317,-2.3117,-2.3095,-2.2914,-2.2355,-2.2237,-2.2469,-2.2086,-2.1885,-2.1903,-2.1665,-2.1879,-2.2411,-2.2058,-2.216,-2.2364,-2.2192,-2.2401,-2.2659,-2.28,-2.3132,-2.3694,-2.3951,-2.3984,-2.4348,-2.4556,-2.4629,-2.4629,-2.4629,-2.4629,-2.4629,-2.4629,-2.4629,-2.4629,-2.4629,-2.4629,-2.4629,-2.4629,-2.4629,-2.4629,-2.4629,-2.4629,-2.4629,-2.4629,-2.4629,-2.4629,-2.4629,-2.4629,-2.4629,-2.4629,-2.4629,-2.4629,-2.4629,-2.4629,-2.4629,-2.4629,-2.4629,-2.4629,-2.4629,-2.4629,-2.4629,-2.4629,-2.4629,-2.4629,-2.4629,-2.4629,-2.4629,-2.4629,-2.4629,-2.4629,-2.4629,-2.4629,-2.4629,-2.4629,-2.4629,-2.4629,-2.4629,-2.4629,-2.4629,-2.4629,-2.4629,-2.4629,-2.4629,-2.4629,-2.4629,-2.4629,-2.4629,-2.4629,-2.4629,-2.4629,-2.4629,-2.4629,-2.4629,-2.4629,-2.4629,-2.4629,-2.4629,-2.4629,-2.4629,-2.4629,-2.4629,-2.4629,-2.4629,-2.4629,-2.4629,-2.4629,-2.4629,-2.4629,-2.4562,-2.4562,-2.4562,-2.3045,-2.3279,-2.3542,-2.352,-2.3387,-2.3475,-2.3411,-2.3132,-2.282,-2.2859,-2.3009,-2.2441,-2.2097,-2.2287,-2.2014,-2.2313,-2.2788,-2.2467,-2.2607,-2.2696,-2.2553,-2.2612,-2.2714,-2.2856,-2.317,-2.3741,-2.4115,-2.4263,-2.4589,-2.4629,-2.4629,-2.4629,-2.4629,-2.4629,-2.4629,-2.4629,-2.4629,-2.4629,-2.4629,-2.4629,-2.4629,-2.4629,-2.4629,-2.4629,-2.4629,-2.4629,-2.4629,-2.4629,-2.4629,-2.4629,-2.4629,-2.4629,-2.4629,-2.4629,-2.4629,-2.4629,-2.4629,-2.4629,-2.4629,-2.4629,-2.4629,-2.4629,-2.4629,-2.4629,-2.4629,-2.4629,-2.4629,-2.4629,-2.4629,-2.4629,-2.4629,-2.4629,-2.4629,-2.4629,-2.4629,-2.4629,-2.4629,-2.4629,-2.4629,-2.4629,-2.4629,-2.4629,-2.4629,-2.4629,-2.4629,-2.4629,-2.4629,-2.4629,-2.4629,-2.4629,-2.4629,-2.4629,-2.4629,-2.4629,-2.4629,-2.4629,-2.4629,-2.4629,-2.4629,-2.4629,-2.4629,-2.4629,-2.4629,-2.4629,-2.4629,-2.4629,-2.4629,-2.4629,-2.4629,-2.4629,-2.4629,-2.4629,-2.4562,-2.4488,-2.4341,-2.3053,-2.3164,-2.3834,-2.3818,-2.3464,-2.3897,-2.3803,-2.3377,-2.323,-2.3184,-2.3121,-2.2315,-2.1998,-2.2051,-2.2204,-2.2549,-2.2728,-2.2693,-2.2968,-2.3107,-2.2951,-2.2871,-2.2831,-2.2919,-2.3213,-2.3574,-2.3981,-2.4322,-2.4623,-2.4629,-2.4629,-2.4629,-2.4629,-2.4629,-2.4629,-2.4629,-2.4629,-2.4629,-2.4629,-2.4629,-2.4629,-2.4629,-2.4629,-2.4629,-2.4629,-2.4629,-2.4629,-2.4629,-2.4629,-2.4629,-2.4629,-2.4629,-2.4629,-2.4629,-2.4629,-2.4629,-2.4629,-2.4629,-2.4629,-2.4629,-2.4629,-2.4629,-2.4629,-2.4629,-2.4629,-2.4629,-2.4629,-2.4629,-2.4629,-2.4629,-2.4629,-2.4629,-2.4629,-2.4629,-2.4629,-2.4629,-2.4629,-2.4629,-2.4629,-2.4629,-2.4629,-2.4629,-2.4629,-2.4629,-2.4629,-2.4629,-2.4629,-2.4629,-2.4629,-2.4629,-2.4629,-2.4629,-2.4629,-2.4629,-2.4629,-2.4629,-2.4629,-2.4629,-2.4629,-2.4629,-2.4629,-2.4629,-2.4629,-2.4629,-2.4629,-2.4629,-2.4629,-2.4629,-2.4629,-2.4629,-2.4629,-2.4556,-2.4488,-2.4414,-2.4112,-2.3347,-2.368,-2.4263,-2.4276,-2.4029,-2.3928,-2.3788,-2.3607,-2.3146,-2.2953,-2.2959,-2.2877,-2.2773,-2.3004,-2.2786,-2.2974,-2.3249,-2.3101,-2.3054,-2.324,-2.2993,-2.2899,-2.2866,-2.2879,-2.3213,-2.3607,-2.4001,-2.4322,-2.4589,-2.4629,-2.4629,-2.4629,-2.4629,-2.4629,-2.4629,-2.4629,-2.4629,-2.4629,-2.4629,-2.4629,-2.4629,-2.4629,-2.4629,-2.4629,-2.4629,-2.4629,-2.4629,-2.4629,-2.4629,-2.4629,-2.4629,-2.4629,-2.4629,-2.4629,-2.4629,-2.4629,-2.4629,-2.4629,-2.4629,-2.4629,-2.4629,-2.4629,-2.4629,-2.4629,-2.4629,-2.4629,-2.4629,-2.4629,-2.4629,-2.4629,-2.4629,-2.4629,-2.4629,-2.4629,-2.4629,-2.4629,-2.4629,-2.4629,-2.4629,-2.4629,-2.4629,-2.4629,-2.4629,-2.4629,-2.4629,-2.4629,-2.4629,-2.4629,-2.4629,-2.4629,-2.4629,-2.4629,-2.4629,-2.4629,-2.4629,-2.4629,-2.4629,-2.4629,-2.4629,-2.4629,-2.4629,-2.4629,-2.4629,-2.4629,-2.4629,-2.4629,-2.4629,-2.4629,-2.4629,-2.4629,-2.4629,-2.4562,-2.4488,-2.4267,-2.389]},{"header":{"parameterUnit":"m.s-1","parameterCategory":1,"la1":31.0,"la2":29.5877,"lo1":-88.7671,"lo2":-86.6584,"dy":0.0162,"dx":0.0185,"nx":115,"ny":88,"refTime":"2024-08-29T06:00:00:Z","depth":0,"parameterNumber":3,"parameterNumberName":"V-component_of_WINDS"},"data":[0.0,0.0,0.0,0.0,0.0,0.0,0.0,0.0,0.0,0.0,0.0,0.0,0.0,0.0,0.0,0.0,0.0,0.0,0.0,0.0,0.0,0.0,0.0,0.0,0.0,0.0,0.0,0.0,0.0,0.0,0.0,0.0,0.0,0.0,0.0,0.0,0.0,0.0,0.0,0.0,0.0,0.0,0.0,0.0,0.0,0.0,0.0,0.0,0.0,0.0,0.0,0.0,0.0,0.0,0.0,0.0,0.0,0.0,0.0,0.0,0.0,0.0,0.0,0.0,0.0,0.0,0.0,0.0,0.0,0.0,0.0,0.0,0.0,0.0,0.0,0.0,0.0,0.0,0.0,0.0,0.0,0.0,0.0,0.0,0.0,0.0,0.0,0.0,0.0,0.0,0.0,0.0,0.0,0.0,0.0,0.0,0.0,0.0,0.0,0.0,0.0,0.0,0.0,0.0,0.0,0.0,0.0,0.0,0.0,0.0,0.0,0.0,0.0,0.0,0.0,0.0,0.0,0.0,0.0,0.0,0.0,0.0,0.0,0.0,0.0,0.0,0.0,0.0,0.0,0.0,0.0,0.0,0.0,0.0,0.0,0.0,0.0,0.0,0.0,0.0,0.0,0.0,0.0,0.0,0.0,0.0,0.0,0.0,0.0,0.0,0.0,0.0,0.0,0.0,0.0,0.0,0.0,0.0,0.0,0.0,0.0,0.0,0.0,0.0,0.0,0.0,0.0,0.0,0.0,0.0,0.0,0.0,0.0,0.0,0.0,0.0,0.0,0.0,0.0,0.0,0.0,0.0,0.0,0.0,0.0,0.0,0.0,0.0,0.0,0.0,0.0,0.0,0.0,0.0,0.0,0.0,0.0,0.0,0.0,0.0,0.0,0.0,0.0,0.0,0.0,0.0,0.0,0.0,0.0,0.0,0.0,0.0,0.0,0.0,0.0,0.0,0.0,0.0,0.0,0.0,0.0,0.0,0.0,0.0,0.0,0.0,0.0,0.0,0.0,0.0,0.0,0.0,0.0,0.0,0.0,0.0,0.0,0.0,0.0,0.0,0.0,0.0,0.0,0.0,0.0,0.0,0.0,0.0,0.0,0.0,0.0,0.0,0.0,0.0,0.0,0.0,0.0,0.0,0.0,0.0,0.0,0.0,0.0,0.0,0.0,0.0,0.0,0.0,0.0,0.0,0.0,0.0,0.0,0.0,0.0,0.0,0.0,0.0,0.0,0.0,0.0,0.0,0.0,0.0,0.0,0.0,0.0,0.0,0.0,0.0,0.0,0.0,0.0,0.0,0.0,0.0,0.0,0.0,0.0,0.0,0.0,0.0,0.0,0.0,0.0,0.0,0.0,0.0,0.0,0.0,0.0,0.0,0.0,0.0,0.0,0.0,0.0,0.0,0.0,0.0,0.0,0.0,0.0,0.0,0.0,0.0,0.0,0.0,0.0,0.0,0.0,0.0,0.0,0.0,0.0,0.0,0.0,0.0,0.0,0.0,0.0,0.0,0.0,0.0,0.0,0.0,0.0,0.0,0.0,0.0,0.0,0.0,0.0,0.0,0.0,0.0,0.0,0.0,0.0,0.0,0.0,0.0,0.0,0.0,0.0,0.0,0.0,0.0,0.0,0.0,0.0,0.0,0.0,0.0,0.0,0.0,0.0,0.0,0.0,0.0,0.0,0.0,0.0,0.0,0.0,0.0,0.0,0.0,0.0,0.0,0.0,0.0,0.0,0.0,0.0,0.0,0.0,0.0,0.0,0.0,0.0,0.0,0.0,0.0,0.0,0.0,0.0,0.0,0.0,0.0,0.0,0.0,0.0,0.0,0.0,0.0,0.0,0.0,0.0,0.0,0.0,0.0,0.0,0.0,0.0,0.0,0.0,0.0,0.0,0.0,0.0,0.0,0.0,0.0,0.0,0.0,0.0,0.0,0.0,0.0,0.0,0.0,0.0,0.0,0.0,0.0,0.0,0.0,0.0,0.0,0.0,0.0,0.0,0.0,0.0,0.0,0.0,0.0,0.0,0.0,0.0,0.0,0.0,0.0,0.0,0.0,0.0,0.0,0.0,0.0,0.0,0.0,0.0,0.0,0.0,0.0,0.0,0.0,0.0,0.0,0.0,0.0,0.0,0.0,0.0,0.0,0.0,0.0,0.0,0.0,0.0,0.0,0.0,0.0,0.0,0.0,0.0,0.0,0.0,0.0,0.0,0.0,0.0,0.0,0.0,0.0,0.0,0.0,0.0,0.0,0.0,0.0,0.0,0.0,0.0,0.0,0.0,0.0,0.0,0.0,0.0,0.0,0.0,0.0,0.0,0.0,0.0,0.0,0.0,0.0,0.0,0.0,0.0,0.0,0.0,0.0,0.0,0.0,0.0,0.0,0.0,0.0,0.0,0.0,0.0,0.0,0.0,0.0,0.0,0.0,0.0,0.0,0.0,0.0,0.0,0.0,0.0,0.0,0.0,0.0,0.0,0.0,0.0,0.0,0.0,0.0,0.0,0.0,0.0,0.0,0.0,0.0,0.0,0.0,0.0,0.0,0.0,0.0,0.0,0.0,0.0,0.0,0.0,0.0,0.0,0.0,0.0,0.0,0.0,0.0,0.0,0.0,0.0,0.0,0.0,0.0,0.0,0.0,0.0,0.0,0.0,0.0,0.0,0.0,0.0,0.0,0.0,0.0,0.0,0.0,0.0,0.0,0.0,0.0,0.0,0.0,0.0,0.0,0.0,0.0,0.0,0.0,0.0,0.0,0.0,0.0,0.0,0.0,0.0,0.0,0.0,0.0,0.0,0.0,0.0,0.0,0.0,0.0,0.0,0.0,0.0,0.0,0.0,0.0,0.0,0.0,0.0,0.0,0.0,0.0,0.0,0.0,0.0,0.0,0.0,0.0,0.0,0.0,0.0,0.0,0.0,0.0,0.0,0.0,0.0,0.0,0.0,0.0,0.0,0.0,0.0,0.0,0.0,0.0,0.0,0.0,0.0,0.0,0.0,0.0,0.0,0.0,0.0,0.0,0.0,0.0,0.0,0.0,0.0,0.0,0.0,0.0,0.0,0.0,0.0,0.0,0.0,0.0,0.0,0.0,0.0,0.0,0.0,0.0,0.0,0.0,0.0,0.0,0.0,0.0,0.0,0.0,0.0,0.0,0.0,0.0,0.0,0.0,0.0,0.0,0.0,0.0,0.0,0.0,0.0,0.0,0.0,0.0,0.0,0.0,0.0,0.0,0.0,0.0,0.0,0.0,0.0,0.0,0.0,0.0,0.0,0.0,0.0,0.0,0.0,0.0,0.0,0.0,0.0,0.0,0.0,0.0,0.0,0.0,0.0,0.0,0.0,0.0,0.0,0.0,0.0,0.0,0.0,0.0,0.0,0.0,0.0,0.0,0.0,0.0,0.0,0.0,0.0,0.0,0.0,0.0,0.0,0.0,0.0,0.0,0.0,0.0,0.0,0.0,0.0,0.0,0.0,0.0,0.0,0.0,0.0,0.0,0.0,0.0,0.0,0.0,0.0,0.0,0.0,0.0,0.0,0.0,0.0,0.0,0.0,0.0,0.0,0.0,0.0,0.0,0.0,0.0,0.0,0.0,0.0,0.0,0.0,0.0,0.0,0.0,0.0,0.0,0.0,0.0,0.0,0.0,0.0,0.0,0.0,0.0,0.0,0.0,0.0,0.0,0.0,0.0,0.0,0.0,0.0,0.0,0.0,0.0,0.0,0.0,0.0,0.0,0.0,0.0,0.0,0.0,0.0,0.0,0.0,0.0,0.0,0.0,0.0,0.0,0.0,0.0,0.0,0.0,0.0,0.0,0.0,0.0,0.0,0.0,0.0,0.0,0.0,0.0,0.0,0.0,0.0,0.0,0.0,0.0,0.0,0.0,0.0,0.0,0.0,0.0,0.0,0.0,0.0,0.0,0.0,0.0,0.0,0.0,0.0,0.0,0.0,0.0,0.0,0.0,0.0,0.0,0.0,0.0,0.0,0.0,0.0,0.0,0.0,0.0,0.0,0.0,0.0,0.0,0.0,0.0,0.0,0.0,0.0,0.0,0.0,0.0,0.0,0.0,0.0,0.0,0.0,0.0,0.0,0.0,0.0,0.0,0.0,0.0,0.0,0.0,0.0,0.0,0.0,0.0,0.0,0.0,0.0,0.0,0.0,0.0,0.0,0.0,0.0,0.0,0.0,0.0,0.0,0.0,0.0,0.0,0.0,0.0,0.0,0.0,0.0,0.0,0.0,0.0,0.0,0.0,0.0,0.0,3.2685,0.0,0.0,0.0,0.0,0.0,0.0,0.0,0.0,0.0,0.0,0.0,0.0,0.0,0.0,0.0,0.0,0.0,0.0,0.0,0.0,0.0,0.0,0.0,0.0,0.0,0.0,0.0,0.0,0.0,0.0,0.0,0.0,0.0,0.0,0.0,0.0,0.0,0.0,0.0,0.0,0.0,0.0,0.0,0.0,0.0,0.0,0.0,0.0,0.0,0.0,0.0,0.0,0.0,0.0,0.0,0.0,0.0,0.0,0.0,0.0,0.0,0.0,0.0,0.0,0.0,0.0,0.0,0.0,0.0,0.0,0.0,0.0,0.0,0.0,0.0,0.0,0.0,0.0,0.0,0.0,0.0,0.0,0.0,0.0,0.0,0.0,0.0,0.0,0.0,0.0,0.0,0.0,0.0,0.0,0.0,0.0,0.0,0.0,0.0,0.0,0.0,0.0,0.0,0.0,0.0,0.0,0.0,0.0,0.0,0.0,3.47,3.4319,3.4684,3.4021,3.2199,0.0,0.0,0.0,0.0,0.0,0.0,0.0,0.0,0.0,0.0,0.0,0.0,0.0,0.0,0.0,0.0,0.0,0.0,0.0,0.0,0.0,0.0,0.0,0.0,0.0,0.0,0.0,0.0,0.0,0.0,0.0,0.0,0.0,0.0,0.0,0.0,0.0,0.0,0.0,0.0,0.0,0.0,0.0,0.0,0.0,0.0,0.0,0.0,0.0,0.0,0.0,0.0,0.0,0.0,0.0,0.0,0.0,0.0,0.0,0.0,0.0,0.0,0.0,0.0,0.0,0.0,0.0,0.0,0.0,0.0,0.0,0.0,0.0,0.0,0.0,0.0,0.0,0.0,0.0,0.0,0.0,0.0,0.0,0.0,0.0,0.0,0.0,0.0,0.0,0.0,0.0,0.0,0.0,0.0,0.0,0.0,0.0,0.0,0.0,0.0,0.0,0.0,0.0,0.0,0.0,0.0,0.0,0.0,0.0,0.0,0.0,0.0,3.407,3.3461,3.1775,0.0,0.0,0.0,0.0,0.0,0.0,0.0,0.0,0.0,0.0,0.0,0.0,0.0,0.0,0.0,0.0,0.0,0.0,0.0,0.0,0.0,0.0,0.0,0.0,0.0,0.0,0.0,0.0,0.0,0.0,0.0,0.0,0.0,0.0,0.0,0.0,0.0,0.0,0.0,0.0,0.0,0.0,0.0,0.0,0.0,0.0,0.0,0.0,0.0,0.0,0.0,0.0,0.0,0.0,0.0,0.0,0.0,0.0,0.0,0.0,0.0,0.0,0.0,0.0,0.0,0.0,0.0,0.0,0.0,0.0,0.0,0.0,0.0,0.0,0.0,0.0,0.0,0.0,0.0,0.0,0.0,0.0,0.0,0.0,0.0,0.0,0.0,0.0,0.0,0.0,0.0,0.0,0.0,0.0,0.0,0.0,0.0,0.0,0.0,0.0,0.0,0.0,0.0,0.0,0.0,0.0,0.0,0.0,0.0,0.0,3.2698,3.3212,3.2714,0.0,3.1889,0.0,0.0,0.0,0.0,0.0,0.0,0.0,0.0,0.0,0.0,0.0,0.0,0.0,0.0,0.0,0.0,0.0,0.0,0.0,0.0,0.0,0.0,0.0,0.0,0.0,0.0,0.0,0.0,0.0,0.0,0.0,0.0,0.0,0.0,0.0,0.0,0.0,0.0,0.0,0.0,0.0,0.0,0.0,0.0,0.0,0.0,0.0,0.0,0.0,0.0,0.0,0.0,0.0,0.0,0.0,0.0,0.0,0.0,0.0,0.0,0.0,0.0,0.0,0.0,0.0,0.0,0.0,0.0,0.0,0.0,0.0,0.0,0.0,0.0,0.0,0.0,0.0,0.0,0.0,0.0,0.0,0.0,0.0,0.0,0.0,0.0,0.0,0.0,0.0,0.0,0.0,0.0,0.0,0.0,0.0,0.0,0.0,0.0,0.0,0.0,0.0,0.0,0.0,0.0,0.0,0.0,0.0,0.0,0.0,0.0,3.2708,3.2572,3.1467,3.1014,0.0,0.0,0.0,0.0,0.0,0.0,0.0,0.0,0.0,0.0,0.0,0.0,0.0,0.0,0.0,0.0,0.0,0.0,0.0,0.0,0.0,0.0,0.0,0.0,0.0,0.0,0.0,0.0,0.0,0.0,0.0,0.0,0.0,0.0,0.0,0.0,0.0,0.0,0.0,0.0,0.0,0.0,0.0,0.0,0.0,0.0,0.0,0.0,0.0,0.0,0.0,0.0,0.0,0.0,0.0,0.0,0.0,0.0,0.0,0.0,0.0,0.0,0.0,0.0,0.0,0.0,0.0,0.0,0.0,0.0,0.0,0.0,0.0,0.0,0.0,0.0,0.0,0.0,0.0,0.0,0.0,0.0,0.0,0.0,0.0,0.0,0.0,0.0,0.0,0.0,0.0,0.0,0.0,0.0,0.0,0.0,0.0,0.0,0.0,0.0,0.0,0.0,0.0,0.0,0.0,0.0,0.0,0.0,0.0,0.0,3.2558,3.2017,3.1166,3.0826,3.0423,2.9849,0.0,0.0,0.0,0.0,0.0,0.0,0.0,0.0,0.0,0.0,0.0,0.0,0.0,0.0,0.0,0.0,0.0,0.0,0.0,0.0,0.0,0.0,0.0,0.0,0.0,0.0,0.0,0.0,0.0,0.0,0.0,0.0,0.0,0.0,0.0,0.0,0.0,0.0,0.0,0.0,0.0,0.0,0.0,0.0,0.0,0.0,0.0,0.0,0.0,0.0,0.0,0.0,0.0,0.0,0.0,0.0,0.0,0.0,0.0,0.0,0.0,0.0,0.0,0.0,0.0,0.0,0.0,0.0,0.0,0.0,0.0,0.0,0.0,0.0,0.0,0.0,0.0,0.0,0.0,0.0,0.0,0.0,0.0,0.0,0.0,0.0,0.0,0.0,0.0,0.0,0.0,0.0,0.0,0.0,0.0,0.0,0.0,0.0,0.0,0.0,0.0,0.0,0.0,0.0,0.0,0.0,0.0,0.0,3.1581,3.0966,3.0036,2.8937,3.1048,3.0772,0.0,0.0,0.0,0.0,0.0,0.0,0.0,0.0,0.0,0.0,0.0,0.0,0.0,0.0,0.0,0.0,0.0,0.0,0.0,0.0,0.0,0.0,0.0,0.0,0.0,0.0,0.0,0.0,0.0,0.0,0.0,0.0,0.0,0.0,0.0,0.0,0.0,0.0,0.0,0.0,0.0,0.0,0.0,0.0,0.0,0.0,0.0,0.0,0.0,0.0,0.0,0.0,0.0,0.0,0.0,0.0,0.0,0.0,0.0,0.0,0.0,0.0,0.0,0.0,0.0,0.0,0.0,0.0,0.0,0.0,0.0,0.0,0.0,0.0,0.0,0.0,0.0,0.0,0.0,0.0,0.0,0.0,0.0,0.0,0.0,0.0,0.0,0.0,0.0,0.0,0.0,0.0,0.0,0.0,0.0,0.0,0.0,0.0,0.0,0.0,0.0,0.0,0.0,0.0,0.0,0.0,0.0,0.0,0.0,3.0866,3.0642,3.0283,2.9849,2.9931,2.9305,0.0,0.0,0.0,0.0,0.0,0.0,0.0,0.0,0.0,0.0,0.0,0.0,0.0,0.0,0.0,0.0,0.0,0.0,0.0,0.0,0.0,0.0,0.0,0.0,0.0,0.0,0.0,0.0,0.0,0.0,0.0,0.0,0.0,0.0,0.0,0.0,0.0,0.0,0.0,0.0,0.0,0.0,0.0,0.0,0.0,0.0,0.0,0.0,0.0,0.0,0.0,0.0,0.0,0.0,0.0,0.0,0.0,0.0,0.0,0.0,0.0,0.0,0.0,0.0,0.0,0.0,0.0,0.0,0.0,0.0,0.0,0.0,0.0,0.0,0.0,0.0,0.0,0.0,0.0,0.0,0.0,0.0,0.0,0.0,0.0,0.0,0.0,0.0,0.0,0.0,0.0,0.0,0.0,0.0,0.0,0.0,0.0,0.0,0.0,0.0,0.0,0.0,0.0,0.0,0.0,0.0,0.0,0.0,0.0,3.0507,0.0,3.0509,0.0,2.9265,2.8422,0.0,0.0,0.0,0.0,0.0,0.0,0.0,0.0,0.0,0.0,0.0,0.0,0.0,0.0,0.0,0.0,0.0,0.0,0.0,0.0,0.0,0.0,0.0,0.0,0.0,0.0,0.0,0.0,0.0,0.0,0.0,0.0,0.0,0.0,0.0,0.0,0.0,0.0,0.0,0.0,0.0,0.0,0.0,0.0,0.0,0.0,0.0,0.0,0.0,0.0,0.0,0.0,0.0,0.0,0.0,0.0,0.0,0.0,0.0,0.0,0.0,0.0,0.0,0.0,0.0,0.0,0.0,0.0,0.0,0.0,0.0,0.0,0.0,0.0,0.0,0.0,0.0,0.0,0.0,0.0,0.0,0.0,0.0,0.0,0.0,0.0,0.0,0.0,0.0,0.0,0.0,0.0,0.0,0.0,0.0,0.0,0.0,0.0,0.0,0.0,0.0,0.0,0.0,0.0,0.0,0.0,0.0,0.0,3.0477,3.0492,3.1092,3.0584,2.8742,2.928,2.8353,0.0,0.0,0.0,0.0,0.0,0.0,0.0,0.0,0.0,0.0,0.0,0.0,0.0,0.0,0.0,0.0,0.0,0.0,0.0,0.0,0.0,0.0,0.0,0.0,0.0,0.0,0.0,0.0,0.0,0.0,0.0,0.0,0.0,0.0,0.0,0.0,0.0,0.0,0.0,0.0,0.0,0.0,0.0,0.0,0.0,0.0,0.0,0.0,0.0,0.0,0.0,0.0,0.0,0.0,0.0,0.0,0.0,0.0,0.0,0.0,0.0,0.0,0.0,0.0,0.0,0.0,0.0,0.0,0.0,0.0,0.0,0.0,0.0,0.0,0.0,0.0,0.0,0.0,0.0,0.0,0.0,0.0,0.0,0.0,0.0,0.0,0.0,0.0,0.0,0.0,0.0,0.0,0.0,0.0,0.0,0.0,0.0,0.0,0.0,0.0,0.0,0.0,0.0,0.0,0.0,0.0,0.0,0.0,0.0,2.9235,3.0268,3.0748,3.0584,2.9939,2.9232,0.0,0.0,0.0,0.0,0.0,0.0,0.0,0.0,0.0,0.0,0.0,0.0,0.0,0.0,0.0,0.0,0.0,0.0,0.0,0.0,0.0,0.0,0.0,0.0,0.0,0.0,0.0,0.0,0.0,0.0,0.0,0.0,0.0,0.0,0.0,0.0,0.0,0.0,0.0,0.0,0.0,0.0,0.0,0.0,0.0,0.0,0.0,0.0,0.0,0.0,0.0,0.0,0.0,0.0,0.0,0.0,0.0,0.0,0.0,0.0,0.0,0.0,0.0,0.0,0.0,0.0,0.0,0.0,0.0,0.0,0.0,0.0,0.0,0.0,0.0,0.0,0.0,0.0,0.0,0.0,0.0,0.0,0.0,0.0,0.0,0.0,0.0,0.0,0.0,0.0,0.0,0.0,0.0,0.0,0.0,0.0,0.0,0.0,0.0,0.0,0.0,0.0,0.0,0.0,0.0,0.0,0.0,0.0,0.0,3.0148,3.1091,3.1704,3.1854,3.0612,2.9819,2.9577,0.0,0.0,0.0,0.0,0.0,0.0,0.0,0.0,0.0,0.0,0.0,0.0,0.0,0.0,0.0,0.0,0.0,0.0,0.0,0.0,0.0,0.0,0.0,0.0,0.0,0.0,0.0,0.0,0.0,0.0,0.0,0.0,0.0,0.0,0.0,0.0,0.0,0.0,0.0,0.0,0.0,0.0,0.0,0.0,0.0,0.0,0.0,0.0,0.0,0.0,0.0,0.0,0.0,0.0,0.0,0.0,0.0,0.0,0.0,0.0,0.0,0.0,0.0,0.0,0.0,0.0,0.0,0.0,0.0,0.0,0.0,0.0,0.0,0.0,0.0,0.0,0.0,0.0,0.0,0.0,0.0,0.0,0.0,0.0,0.0,0.0,0.0,0.0,0.0,0.0,0.0,0.0,0.0,0.0,0.0,0.0,0.0,0.0,0.0,0.0,0.0,0.0,0.0,0.0,0.0,0.0,0.0,0.0,3.2631,3.3349,3.3425,3.2751,3.142,3.0387,0.0,0.0,0.0,0.0,0.0,0.0,0.0,0.0,0.0,0.0,0.0,0.0,0.0,0.0,0.0,0.0,0.0,0.0,0.0,0.0,0.0,0.0,0.0,0.0,0.0,0.0,0.0,0.0,0.0,0.0,0.0,0.0,0.0,0.0,0.0,0.0,0.0,0.0,0.0,0.0,0.0,0.0,0.0,0.0,0.0,0.0,0.0,0.0,0.0,0.0,0.0,0.0,0.0,0.0,0.0,0.0,0.0,0.0,0.0,0.0,0.0,0.0,0.0,0.0,0.0,0.0,0.0,0.0,0.0,0.0,0.0,0.0,0.0,0.0,0.0,0.0,0.0,0.0,0.0,0.0,0.0,0.0,0.0,0.0,0.0,0.0,0.0,0.0,0.0,0.0,0.0,0.0,0.0,0.0,0.0,0.0,0.0,0.0,0.0,0.0,0.0,0.0,0.0,0.0,0.0,0.0,0.0,0.0,0.0,3.4474,3.5744,3.6088,3.5444,3.3664,3.2647,0.0,0.0,0.0,0.0,0.0,0.0,0.0,0.0,0.0,0.0,0.0,0.0,0.0,0.0,0.0,0.0,0.0,0.0,0.0,0.0,0.0,0.0,0.0,0.0,0.0,0.0,0.0,0.0,0.0,0.0,0.0,0.0,0.0,0.0,0.0,0.0,0.0,0.0,0.0,0.0,0.0,0.0,0.0,0.0,0.0,0.0,0.0,0.0,0.0,0.0,0.0,0.0,0.0,0.0,0.0,0.0,0.0,0.0,0.0,0.0,0.0,0.0,0.0,0.0,0.0,0.0,0.0,0.0,0.0,0.0,0.0,0.0,0.0,0.0,0.0,0.0,0.0,0.0,0.0,0.0,0.0,0.0,0.0,0.0,0.0,0.0,0.0,0.0,0.0,0.0,0.0,0.0,0.0,0.0,0.0,0.0,0.0,0.0,0.0,0.0,0.0,0.0,0.0,0.0,0.0,0.0,0.0,0.0,3.4681,3.5727,3.7387,3.8078,3.7719,3.5519,3.4068,0.0,0.0,0.0,0.0,0.0,0.0,0.0,0.0,0.0,0.0,0.0,0.0,0.0,0.0,0.0,0.0,0.0,0.0,0.0,0.0,0.0,0.0,0.0,0.0,0.0,0.0,0.0,0.0,0.0,0.0,0.0,0.0,0.0,0.0,0.0,0.0,0.0,0.0,0.0,0.0,0.0,0.0,0.0,0.0,0.0,0.0,0.0,0.0,0.0,0.0,0.0,0.0,0.0,0.0,0.0,0.0,0.0,0.0,0.0,0.0,0.0,0.0,0.0,0.0,0.0,0.0,0.0,0.0,0.0,0.0,0.0,0.0,0.0,0.0,0.0,0.0,0.0,0.0,0.0,0.0,0.0,0.0,0.0,0.0,0.0,0.0,0.0,0.0,0.0,0.0,0.0,0.0,0.0,0.0,0.0,0.0,0.0,0.0,0.0,0.0,0.0,0.0,0.0,0.0,0.0,0.0,0.0,0.0,3.6384,3.6585,3.8431,3.9337,3.919,3.6832,3.4906,0.0,0.0,0.0,0.0,0.0,0.0,0.0,0.0,0.0,0.0,0.0,0.0,0.0,0.0,0.0,0.0,0.0,0.0,0.0,0.0,0.0,0.0,0.0,0.0,0.0,0.0,0.0,0.0,0.0,0.0,0.0,0.0,0.0,0.0,0.0,0.0,0.0,0.0,0.0,0.0,0.0,0.0,0.0,0.0,0.0,0.0,0.0,0.0,0.0,0.0,0.0,0.0,0.0,0.0,0.0,0.0,0.0,0.0,0.0,0.0,0.0,0.0,0.0,0.0,0.0,0.0,0.0,0.0,0.0,0.0,0.0,0.0,0.0,0.0,0.0,0.0,0.0,0.0,0.0,0.0,0.0,0.0,0.0,0.0,0.0,0.0,0.0,0.0,0.0,0.0,0.0,0.0,0.0,0.0,0.0,0.0,0.0,0.0,0.0,0.0,0.0,0.0,0.0,0.0,0.0,0.0,0.0,0.0,3.5596,3.7017,3.8578,3.9104,3.8449,3.6526,3.5115,0.0,0.0,0.0,0.0,0.0,0.0,0.0,0.0,0.0,0.0,0.0,0.0,0.0,0.0,0.0,0.0,0.0,0.0,0.0,0.0,0.0,0.0,0.0,0.0,0.0,0.0,0.0,0.0,0.0,0.0,0.0,0.0,0.0,0.0,0.0,0.0,0.0,0.0,0.0,0.0,0.0,0.0,0.0,0.0,0.0,0.0,0.0,0.0,3.5473,0.0,0.0,0.0,0.0,0.0,0.0,0.0,0.0,0.0,0.0,0.0,0.0,0.0,0.0,0.0,0.0,0.0,0.0,0.0,0.0,0.0,0.0,0.0,0.0,0.0,0.0,0.0,0.0,0.0,0.0,0.0,0.0,0.0,0.0,0.0,0.0,0.0,0.0,0.0,0.0,0.0,0.0,0.0,0.0,0.0,0.0,0.0,0.0,0.0,0.0,0.0,0.0,0.0,0.0,0.0,0.0,0.0,0.0,0.0,3.6454,3.7735,3.8835,3.9192,3.8738,3.7243,3.5953,0.0,0.0,0.0,0.0,0.0,0.0,0.0,0.0,0.0,0.0,0.0,0.0,0.0,0.0,0.0,0.0,0.0,0.0,0.0,0.0,0.0,0.0,0.0,0.0,0.0,0.0,0.0,0.0,0.0,0.0,0.0,0.0,0.0,0.0,0.0,0.0,0.0,0.0,0.0,0.0,0.0,0.0,0.0,0.0,0.0,0.0,0.0,0.0,0.0,0.0,0.0,0.0,0.0,0.0,0.0,0.0,0.0,0.0,0.0,0.0,0.0,0.0,0.0,0.0,0.0,0.0,0.0,0.0,0.0,0.0,0.0,0.0,0.0,0.0,0.0,0.0,0.0,0.0,0.0,0.0,0.0,0.0,0.0,0.0,0.0,0.0,0.0,0.0,0.0,0.0,0.0,0.0,0.0,0.0,0.0,0.0,0.0,0.0,0.0,0.0,0.0,0.0,0.0,0.0,0.0,0.0,0.0,3.6327,3.7599,3.8512,3.9125,3.9388,3.9409,3.8212,3.6911,3.5549,0.0,0.0,0.0,0.0,0.0,0.0,0.0,0.0,0.0,0.0,0.0,0.0,0.0,0.0,0.0,0.0,0.0,0.0,0.0,0.0,0.0,0.0,0.0,0.0,0.0,0.0,0.0,0.0,0.0,0.0,0.0,0.0,0.0,0.0,0.0,0.0,0.0,0.0,3.5148,3.4838,0.0,0.0,0.0,0.0,0.0,0.0,0.0,0.0,3.5595,0.0,0.0,0.0,0.0,0.0,0.0,0.0,0.0,0.0,0.0,0.0,0.0,0.0,0.0,0.0,0.0,0.0,0.0,0.0,0.0,0.0,0.0,0.0,0.0,0.0,0.0,0.0,0.0,0.0,0.0,0.0,0.0,0.0,0.0,0.0,0.0,0.0,0.0,0.0,0.0,0.0,0.0,0.0,0.0,0.0,0.0,0.0,0.0,0.0,0.0,0.0,0.0,0.0,0.0,0.0,0.0,3.6118,3.5938,3.6926,3.9185,3.9313,3.9388,3.9373,3.8646,3.7375,3.5534,0.0,0.0,0.0,0.0,0.0,0.0,0.0,0.0,0.0,0.0,0.0,0.0,0.0,0.0,0.0,0.0,0.0,0.0,0.0,0.0,0.0,0.0,0.0,0.0,0.0,0.0,0.0,0.0,0.0,0.0,0.0,0.0,0.0,0.0,0.0,0.0,0.0,0.0,0.0,3.5928,3.5918,0.0,0.0,0.0,0.0,0.0,0.0,0.0,0.0,3.6162,0.0,0.0,0.0,0.0,0.0,0.0,0.0,0.0,0.0,0.0,0.0,0.0,0.0,0.0,0.0,0.0,0.0,0.0,0.0,0.0,0.0,0.0,0.0,0.0,0.0,0.0,0.0,0.0,0.0,0.0,0.0,0.0,0.0,0.0,0.0,0.0,0.0,0.0,0.0,0.0,0.0,0.0,0.0,0.0,0.0,0.0,0.0,0.0,0.0,0.0,0.0,0.0,0.0,0.0,0.0,3.5893,3.6641,3.7793,3.9328,3.9388,3.9388,3.9358,3.8108,3.6806,0.0,0.0,0.0,0.0,0.0,0.0,0.0,0.0,0.0,0.0,0.0,0.0,0.0,0.0,0.0,0.0,0.0,0.0,0.0,0.0,0.0,0.0,0.0,0.0,0.0,0.0,0.0,0.0,0.0,0.0,0.0,0.0,0.0,0.0,0.0,0.0,0.0,0.0,0.0,0.0,3.6915,3.6969,3.7708,0.0,0.0,0.0,0.0,0.0,0.0,3.6736,3.6678,0.0,0.0,0.0,0.0,0.0,0.0,0.0,0.0,0.0,0.0,0.0,0.0,0.0,0.0,0.0,0.0,0.0,0.0,0.0,0.0,0.0,0.0,0.0,0.0,0.0,0.0,0.0,0.0,0.0,0.0,0.0,0.0,0.0,0.0,0.0,0.0,0.0,0.0,0.0,0.0,0.0,0.0,0.0,0.0,0.0,0.0,0.0,0.0,0.0,0.0,0.0,0.0,0.0,0.0,0.0,3.5534,3.7285,3.8586,3.9343,3.9388,3.9388,3.9358,3.7629,3.6237,0.0,0.0,0.0,0.0,0.0,0.0,0.0,0.0,0.0,0.0,0.0,0.0,0.0,0.0,0.0,0.0,0.0,0.0,0.0,0.0,0.0,0.0,0.0,0.0,0.0,0.0,0.0,0.0,0.0,0.0,0.0,0.0,0.0,0.0,0.0,0.0,0.0,0.0,0.0,0.0,0.0,3.8135,3.904,3.7747,0.0,0.0,0.0,0.0,3.6896,3.7549,0.0,0.0,0.0,0.0,0.0,0.0,0.0,0.0,0.0,0.0,0.0,0.0,0.0,0.0,0.0,0.0,0.0,0.0,0.0,0.0,0.0,0.0,0.0,0.0,0.0,0.0,0.0,0.0,0.0,0.0,0.0,0.0,0.0,0.0,0.0,0.0,0.0,0.0,0.0,0.0,0.0,0.0,0.0,0.0,0.0,0.0,0.0,0.0,0.0,0.0,0.0,0.0,0.0,0.0,0.0,0.0,3.5489,3.6821,3.8138,3.9313,3.9388,3.9388,3.9373,3.8048,3.6447,0.0,0.0,0.0,0.0,0.0,0.0,0.0,0.0,0.0,0.0,0.0,0.0,0.0,0.0,0.0,0.0,0.0,0.0,0.0,0.0,0.0,0.0,0.0,0.0,0.0,0.0,0.0,0.0,0.0,0.0,0.0,0.0,0.0,0.0,0.0,0.0,0.0,0.0,0.0,0.0,0.0,3.9511,3.9226,3.8487,3.7984,0.0,0.0,3.887,3.8884,3.9886,0.0,0.0,0.0,0.0,0.0,0.0,0.0,0.0,0.0,0.0,0.0,0.0,0.0,0.0,0.0,0.0,0.0,0.0,0.0,0.0,0.0,0.0,0.0,0.0,0.0,0.0,0.0,0.0,0.0,0.0,0.0,0.0,0.0,0.0,0.0,0.0,0.0,0.0,0.0,0.0,0.0,0.0,0.0,0.0,0.0,0.0,0.0,0.0,0.0,0.0,0.0,0.0,0.0,0.0,0.0,3.4921,3.5549,3.7475,3.8841,3.9358,3.9388,3.9388,3.9388,3.7419,3.5744,0.0,0.0,0.0,0.0,0.0,0.0,0.0,0.0,0.0,0.0,0.0,0.0,0.0,0.0,0.0,0.0,0.0,0.0,0.0,0.0,0.0,0.0,0.0,0.0,0.0,0.0,0.0,0.0,0.0,0.0,0.0,0.0,0.0,0.0,0.0,0.0,0.0,0.0,0.0,0.0,0.0,0.0,3.979,4.0119,0.0,0.0,0.0,3.9073,3.8696,0.0,0.0,0.0,0.0,0.0,0.0,0.0,0.0,0.0,0.0,0.0,0.0,0.0,0.0,0.0,0.0,0.0,0.0,0.0,0.0,0.0,0.0,0.0,0.0,0.0,0.0,0.0,0.0,0.0,0.0,0.0,0.0,0.0,0.0,0.0,0.0,0.0,0.0,0.0,0.0,0.0,0.0,0.0,0.0,0.0,0.0,0.0,0.0,0.0,0.0,0.0,0.0,0.0,0.0,0.0,0.0,0.0,3.5549,3.8043,3.9388,3.9388,3.9388,3.9388,3.9343,3.7345,0.0,0.0,0.0,0.0,0.0,0.0,0.0,0.0,0.0,0.0,0.0,0.0,0.0,0.0,0.0,0.0,0.0,0.0,0.0,0.0,0.0,0.0,0.0,0.0,0.0,0.0,0.0,3.2086,0.0,0.0,0.0,0.0,0.0,0.0,0.0,0.0,0.0,0.0,0.0,0.0,0.0,0.0,4.1501,4.1131,4.1651,4.2115,0.0,0.0,3.9305,3.8986,3.9479,3.916,0.0,0.0,0.0,0.0,0.0,0.0,0.0,0.0,0.0,0.0,0.0,0.0,0.0,0.0,0.0,0.0,0.0,0.0,0.0,0.0,0.0,0.0,0.0,0.0,0.0,0.0,0.0,0.0,0.0,0.0,0.0,0.0,0.0,0.0,0.0,0.0,0.0,0.0,0.0,0.0,0.0,0.0,0.0,0.0,0.0,0.0,0.0,0.0,0.0,0.0,0.0,0.0,0.0,0.0,3.5504,3.5594,3.8093,3.9424,3.9388,3.9388,3.9388,3.9373,3.8616,3.6765,0.0,0.0,0.0,0.0,0.0,0.0,0.0,0.0,0.0,0.0,0.0,0.0,0.0,0.0,0.0,0.0,0.0,0.0,0.0,0.0,0.0,0.0,0.0,0.0,0.0,0.0,0.0,0.0,0.0,0.0,0.0,0.0,0.0,0.0,0.0,0.0,0.0,0.0,0.0,0.0,0.0,4.3016,4.3637,4.2803,4.2733,0.0,4.2074,4.0234,4.0815,4.1453,4.0829,3.7752,0.0,0.0,0.0,0.0,0.0,0.0,0.0,0.0,0.0,0.0,0.0,0.0,0.0,0.0,0.0,0.0,0.0,0.0,0.0,0.0,0.0,0.0,0.0,0.0,0.0,0.0,0.0,0.0,0.0,0.0,0.0,0.0,0.0,0.0,0.0,0.0,0.0,0.0,0.0,0.0,0.0,0.0,0.0,0.0,0.0,0.0,0.0,0.0,0.0,0.0,0.0,0.0,0.0,3.6908,3.7401,3.9165,4.0274,4.0705,3.9871,3.9388,3.9388,3.9193,3.7684,0.0,0.0,0.0,0.0,0.0,0.0,0.0,0.0,0.0,0.0,0.0,0.0,0.0,0.0,0.0,0.0,0.0,0.0,0.0,0.0,0.0,0.0,0.0,0.0,0.0,0.0,0.0,0.0,3.6737,3.7146,3.7773,0.0,0.0,0.0,0.0,0.0,0.0,0.0,0.0,0.0,0.0,4.4273,4.4576,4.4532,0.0,0.0,4.3194,4.181,4.1738,4.1236,4.0191,3.8188,3.7201,0.0,0.0,0.0,0.0,0.0,0.0,0.0,0.0,0.0,0.0,0.0,0.0,0.0,0.0,0.0,0.0,0.0,0.0,0.0,0.0,0.0,0.0,0.0,0.0,0.0,0.0,0.0,0.0,0.0,0.0,0.0,0.0,0.0,0.0,0.0,0.0,0.0,0.0,0.0,0.0,0.0,0.0,0.0,0.0,0.0,0.0,0.0,0.0,0.0,0.0,0.0,0.0,3.7867,3.8854,4.014,4.1146,4.1883,4.0657,4.0041,4.0025,4.0069,3.8896,0.0,0.0,0.0,0.0,0.0,0.0,0.0,0.0,0.0,0.0,0.0,0.0,0.0,0.0,0.0,0.0,0.0,0.0,0.0,0.0,0.0,0.0,0.0,0.0,0.0,0.0,0.0,0.0,3.7916,3.8286,3.8491,0.0,0.0,0.0,0.0,0.0,0.0,0.0,0.0,0.0,0.0,4.555,4.5534,4.548,4.5239,4.4683,4.3044,4.1758,4.1549,4.0873,4.0051,3.8992,0.0,0.0,0.0,0.0,0.0,0.0,0.0,0.0,0.0,0.0,0.0,0.0,0.0,0.0,0.0,0.0,0.0,0.0,0.0,0.0,0.0,0.0,0.0,0.0,0.0,0.0,0.0,3.2669,0.0,0.0,3.0638,0.0,0.0,0.0,0.0,0.0,0.0,0.0,0.0,0.0,0.0,0.0,0.0,0.0,0.0,0.0,0.0,0.0,0.0,0.0,0.0,0.0,0.0,3.8125,3.9486,4.0846,4.1873,4.2572,4.184,4.1426,4.1426,4.1461,4.0514,3.8534,0.0,0.0,0.0,0.0,0.0,0.0,0.0,0.0,0.0,0.0,0.0,0.0,0.0,0.0,0.0,0.0,0.0,0.0,0.0,0.0,0.0,0.0,0.0,0.0,0.0,0.0,3.4742,3.6308,3.7796,0.0,0.0,0.0,0.0,0.0,0.0,0.0,0.0,0.0,4.4287,4.585,4.6718,4.6681,4.5254,4.4181,4.4018,4.1374,3.9562,4.0226,4.0709,4.085,0.0,0.0,0.0,0.0,0.0,0.0,0.0,0.0,0.0,0.0,0.0,0.0,0.0,0.0,0.0,0.0,0.0,0.0,0.0,0.0,0.0,0.0,0.0,0.0,0.0,0.0,0.0,3.5988,3.5283,0.0,0.0,0.0,0.0,0.0,0.0,0.0,0.0,0.0,0.0,0.0,4.2488,4.4146,0.0,0.0,0.0,0.0,0.0,0.0,0.0,0.0,0.0,0.0,0.0,0.0,4.058,4.1608,4.251,4.3347,4.4006,4.2391,4.1492,4.1525,4.1981,4.1288,3.9311,0.0,0.0,0.0,0.0,0.0,0.0,0.0,0.0,0.0,0.0,0.0,0.0,0.0,0.0,0.0,0.0,0.0,0.0,0.0,0.0,0.0,0.0,0.0,0.0,0.0,3.7622,0.0,0.0,0.0,0.0,0.0,0.0,0.0,0.0,0.0,0.0,0.0,4.3532,4.5807,4.5697,4.5412,4.5412,4.4882,4.4635,0.0,0.0,0.0,0.0,0.0,0.0,0.0,0.0,0.0,0.0,0.0,0.0,0.0,0.0,4.5574,4.209,4.0734,4.0191,4.0423,0.0,0.0,0.0,0.0,0.0,0.0,0.0,0.0,0.0,0.0,0.0,0.0,0.0,0.0,3.9634,3.9149,3.836,0.0,0.0,0.0,0.0,0.0,0.0,0.0,0.0,4.3451,4.4858,4.5569,4.72,4.703,0.0,4.4699,4.3348,0.0,0.0,0.0,0.0,0.0,0.0,0.0,0.0,4.1556,4.2612,4.3562,4.4281,4.4689,4.3347,4.2478,4.2253,4.271,4.216,4.0495,3.919,3.7751,0.0,0.0,0.0,0.0,0.0,0.0,0.0,0.0,0.0,0.0,0.0,0.0,0.0,0.0,0.0,0.0,0.0,0.0,0.0,0.0,0.0,0.0,0.0,3.8663,0.0,0.0,0.0,0.0,0.0,0.0,0.0,0.0,0.0,4.4389,4.4433,4.5207,4.7261,4.6534,4.5555,4.4796,0.0,0.0,0.0,0.0,0.0,0.0,0.0,4.2811,4.3899,4.4014,4.4816,4.741,4.905,4.9893,4.945,0.0,0.0,4.5206,4.354,4.2816,4.2758,4.2223,4.1686,4.1497,4.1802,4.1903,0.0,0.0,0.0,0.0,0.0,0.0,0.0,0.0,4.4112,4.4096,0.0,4.1803,0.0,0.0,0.0,0.0,4.024,4.2663,0.0,0.0,4.8895,4.9945,4.8489,4.9003,4.917,4.8972,4.7418,4.6501,4.5975,4.2428,0.0,0.0,0.0,0.0,0.0,0.0,4.116,4.2605,4.3995,4.4721,4.4754,4.4688,4.434,4.3602,4.3585,4.3086,4.2064,4.1108,3.979,3.8085,3.582,0.0,0.0,0.0,0.0,0.0,0.0,0.0,0.0,0.0,0.0,0.0,0.0,0.0,0.0,0.0,0.0,0.0,0.0,0.0,0.0,3.846,0.0,0.0,0.0,0.0,0.0,0.0,0.0,0.0,0.0,0.0,4.6183,4.5875,4.655,4.8525,0.0,0.0,0.0,0.0,4.5002,4.245,4.2114,4.2245,4.2321,4.3793,4.5182,4.5965,0.0,0.0,5.1074,5.1597,5.1621,5.044,5.1251,5.1423,4.9374,4.7389,4.6044,4.5857,4.4414,4.3441,4.3863,4.3935,4.3805,4.8154,0.0,0.0,0.0,0.0,4.5586,4.6371,4.8339,4.7303,4.6568,4.6066,4.5399,0.0,0.0,0.0,0.0,0.0,0.0,4.5146,4.7173,4.8317,4.9575,5.0952,5.1686,5.1555,5.0639,5.0166,4.9404,4.8382,4.6511,4.3693,4.0144,0.0,0.0,0.0,0.0,4.2618,4.4026,4.5003,4.5467,4.5467,4.4953,4.4357,4.3615,4.3615,4.3469,4.3165,4.2861,4.1996,4.0463,3.9552,0.0,0.0,0.0,0.0,0.0,0.0,0.0,0.0,0.0,0.0,0.0,0.0,0.0,0.0,0.0,0.0,0.0,0.0,0.0,3.843,3.9774,4.0815,0.0,0.0,0.0,0.0,0.0,0.0,0.0,0.0,0.0,5.0284,4.7678,4.6202,0.0,0.0,4.4682,4.405,4.4606,4.5112,4.5353,4.5379,0.0,4.6776,4.6227,4.622,4.783,4.971,5.0997,5.1023,5.1972,5.2686,5.2256,5.2932,5.3149,5.1992,5.0193,4.8517,4.7451,4.6447,4.5683,4.5418,4.5343,4.5315,5.2174,5.0489,4.9211,4.905,4.9568,4.87,4.9478,5.13,5.0118,4.9507,4.9333,4.8408,4.7012,4.5303,4.4224,0.0,0.0,0.0,4.687,4.9149,4.9158,5.0,5.1558,5.2049,5.1892,5.115,5.0916,5.0426,4.9652,4.8473,4.6254,4.3149,0.0,0.0,4.0647,4.2154,4.335,4.4274,4.5268,4.5649,4.5367,4.4638,4.4059,4.3631,4.3615,4.3539,4.3402,4.3265,4.2734,4.1716,4.0845,3.9599,0.0,0.0,0.0,0.0,0.0,0.0,0.0,0.0,0.0,0.0,0.0,3.6606,3.5113,0.0,0.0,0.0,3.9813,4.0622,4.1312,4.272,0.0,0.0,0.0,0.0,0.0,0.0,0.0,5.0872,5.166,5.2028,5.1816,4.9328,4.7738,4.8403,4.667,4.527,4.495,0.0,4.6487,4.6755,4.7056,4.753,4.8351,4.7736,4.7753,4.9466,5.0627,5.148,5.1812,5.276,5.3471,5.355,5.3818,5.3879,5.3165,5.1968,5.0739,4.9298,4.8296,4.7493,4.6814,4.6299,4.5903,5.5437,5.508,5.2119,5.1183,5.1616,5.1564,5.2177,5.312,5.24,5.247,5.2937,5.082,4.9633,4.9097,4.6672,0.0,4.8238,4.8221,4.9176,5.0891,5.0891,5.0891,5.0891,5.0908,5.0891,5.0908,5.0408,5.0176,5.0113,4.9022,4.8054,4.7318,4.5757,4.4178,4.2705,4.3256,4.3608,4.3658,4.5033,4.5433,4.4887,4.4092,4.3681,4.3681,4.3602,4.3402,4.3096,4.2772,4.2476,4.219,4.0705,3.9801,3.964,0.0,0.0,0.0,0.0,0.0,0.0,0.0,0.0,0.0,0.0,0.0,0.0,0.0,0.0,0.0,4.3687,0.0,4.6017,4.6733,0.0,0.0,0.0,4.9092,5.066,5.2572,5.3518,5.2814,0.0,0.0,5.1912,5.0974,5.0679,5.1303,4.9411,4.7753,4.7088,4.8016,4.8415,4.7198,4.7624,4.8067,4.8256,4.8566,4.9292,5.0667,5.1512,5.2096,5.2776,5.3471,5.3945,5.3929,5.404,5.3945,5.3313,5.3134,5.2773,5.1402,4.9963,4.8804,4.8073,4.7032,4.6148,5.4805,5.3752,5.3515,5.3486,5.3556,5.3041,5.2958,5.3183,5.298,5.2681,5.2242,5.1716,5.1082,5.0422,4.9798,4.979,5.0221,5.0221,5.0441,5.0891,5.0891,5.0891,5.0891,5.0891,5.0891,5.0891,5.0792,5.0737,5.0675,5.0003,4.9303,4.8566,4.7819,4.6118,4.3607,4.3406,4.3597,4.4047,4.467,4.5417,4.6295,4.5102,4.444,4.4423,4.3652,4.3174,4.3096,4.2758,4.2789,4.3218,4.2859,4.2331,4.1655,3.8733,0.0,0.0,0.0,0.0,0.0,0.0,0.0,0.0,0.0,4.0271,3.6869,0.0,4.1257,0.0,4.6498,4.8652,4.8474,4.9508,0.0,0.0,5.1061,5.1849,5.4886,5.5213,5.5366,5.5739,5.594,5.5887,5.5533,5.4279,5.3498,5.3626,5.0834,4.8667,4.8522,4.8706,4.8778,4.8548,4.899,4.9426,4.9355,4.9568,4.9963,5.0872,5.1173,5.1464,5.2159,5.2855,5.3329,5.3376,5.3787,5.3976,5.3882,5.385,5.3765,5.3279,5.1445,4.952,4.8877,4.8039,4.7282,5.4998,5.4191,5.391,5.3612,5.3243,5.2822,5.2664,5.2628,5.2312,5.1926,5.1523,5.1523,5.1294,5.0908,5.0891,5.0891,5.0891,5.0891,5.0891,5.0891,5.0891,5.0891,5.0891,5.0891,5.0891,5.0891,5.0891,5.0891,5.0891,5.061,5.0255,4.9836,4.9587,4.8107,4.5477,4.4456,4.3899,4.3732,4.4728,4.6005,4.7413,4.6417,4.5362,4.4371,4.4014,4.3218,4.1996,4.213,4.216,4.201,4.21,4.2107,4.1908,3.9791,3.8553,0.0,0.0,0.0,0.0,0.0,0.0,0.0,0.0,0.0,0.0,0.0,4.4502,4.5984,4.9381,5.1422,5.1226,5.2394,5.3654,5.4797,5.455,5.523,5.7549,5.7398,5.7312,5.7737,5.7495,5.7288,5.7271,5.6267,5.5535,5.5518,5.3444,5.1569,5.0634,5.0375,5.0263,4.9949,5.0192,5.0292,4.9955,5.0184,5.0516,5.0927,5.1496,5.2065,5.2444,5.3076,5.355,5.3581,5.385,5.4103,5.4103,5.4103,5.4103,5.3823,5.2371,5.0798,5.0024,4.8841,4.779,5.549,5.5104,5.3857,5.2874,5.2172,5.2155,5.1944,5.1495,5.0873,5.0645,5.0777,5.0855,5.0891,5.0891,5.0891,5.0891,5.0891,5.0891,5.0891,5.0891,5.0891,5.0891,5.0891,5.0891,5.0891,5.0891,5.0891,5.0891,5.0891,5.0891,5.0838,5.0733,5.0733,4.9609,4.7348,4.5908,4.4596,4.3373,4.5099,4.6692,4.807,4.7227,4.5818,4.4004,4.4176,4.3194,4.0838,4.1446,4.1423,4.052,4.0734,4.1287,4.2043,4.0736,4.029,0.0,4.0348,0.0,0.0,0.0,0.0,0.0,0.0,0.0,0.0,4.846,4.9049,4.9924,5.233,5.3977,5.4259,5.5357,5.6581,5.7874,5.8047,5.8305,5.8926,5.9012,5.9047,5.915,5.8512,5.8064,5.8185,5.7547,5.7064,5.6877,5.6235,5.4953,5.325,5.2613,5.2181,5.1489,5.1398,5.1324,5.0909,5.1041,5.139,5.1556,5.2289,5.3123,5.3202,5.3692,5.4087,5.4087,5.4071,5.4103,5.4103,5.4103,5.4103,5.4087,5.2892,5.1737,5.1089,4.9641,4.8289,5.5314,5.3682,5.398,5.3647,5.2962,5.2962,5.1523,4.9144,4.903,4.9328,4.9987,5.061,5.0891,5.0891,5.0891,5.0891,5.0891,5.0891,5.0891,5.0891,5.0891,5.0891,5.0891,5.0891,5.0891,5.0891,5.0891,5.0891,5.0891,5.0891,5.0557,4.9952,4.9952,4.8916,4.7021,0.0,0.0,0.0,4.5493,4.6425,4.7227,4.5273,4.4051,4.3708,4.2816,0.0,4.1666,4.2064,4.2409,4.2663,4.3333,0.0,0.0,0.0,0.0,0.0,0.0,0.0,0.0,0.0,0.0,0.0,4.7983,4.7772,4.8141,5.072,5.2758,5.3618,5.5189,5.6669,5.7843,5.8203,5.8478,5.8771,5.8806,5.8857,5.9012,5.9012,5.9254,5.9892,5.9288,5.9047,5.9547,5.9081,5.8357,5.7755,5.755,5.7071,5.6045,5.4828,5.3821,5.3106,5.2937,5.3115,5.3548,5.3171,5.3027,5.3495,5.3264,5.3397,5.3856,5.4019,5.4087,5.4146,5.4103,5.4103,5.4103,5.4103,5.4103,5.4103,5.2965,5.1976,5.1804,5.0598,4.9385,5.5911,5.484,5.4472,5.3857,0.0,5.2769,5.1505,4.9714,5.0083,5.0259,5.0338,5.0715,5.0891,5.09,5.0469,5.0338,5.0285,4.9908,4.9925,5.0311,5.0697,5.0891,5.0908,5.169,5.1821,5.147,5.1839,5.2032,5.2032,5.2059,5.161,5.0855,5.0838,4.9968,4.8295,4.8425,4.791,4.6689,4.7026,4.7979,4.9398,4.8339,4.7145,4.6075,4.5699,0.0,0.0,0.0,0.0,0.0,0.0,0.0,0.0,0.0,0.0,4.7746,4.7271,4.7364,4.8417,4.8876,4.9882,5.1631,5.2484,5.2586,5.185,5.4505,5.6501,5.7347,5.7723,5.8357,5.9444,5.9254,5.9012,5.9012,5.9012,5.9168,5.9513,5.9599,5.9909,6.0513,6.0064,5.9771,6.0116,5.9513,5.8892,5.853,5.8443,5.8305,5.7824,5.6611,5.5377,5.46,5.4139,5.409,5.4402,5.4517,5.447,5.4786,5.4863,5.4996,5.5296,5.4992,5.4701,5.4659,5.4412,5.4103,5.4103,5.4103,5.4008,5.3613,5.276,5.1891,5.1559,5.0658,4.9836,5.6859,5.6473,5.5227,5.4279,5.3541,5.2892,5.219,5.1523,5.1828,0.0,0.0,5.1242,5.1294,5.1269,5.0592,5.0338,5.0285,4.9627,4.9679,5.0356,5.1023,5.1294,5.1392,5.2604,5.2857,5.2277,5.2892,5.3173,5.3173,5.3173,5.2857,5.2277,5.2225,5.1487,5.0188,4.9987,4.9574,4.896,4.8635,4.9425,5.1302,5.1232,5.0213,4.8208,4.8744,4.7582,4.4611,4.5446,4.5518,4.4486,4.5128,4.6096,4.7299,4.7486,4.8475,5.0418,5.1166,5.189,5.2722,5.3304,5.3925,5.4649,5.5995,5.6581,5.6046,5.7857,5.9271,5.9926,5.9392,5.934,6.0099,5.9495,5.9081,5.9202,5.9219,5.9495,6.0082,6.034,6.0685,6.1272,6.0858,6.0461,6.0599,5.984,5.9219,5.9219,5.9064,5.9012,5.884,5.7773,5.6763,5.6336,5.5778,5.523,5.5375,5.5629,5.59,5.5963,5.6293,5.6597,5.6498,5.5995,5.5499,5.5231,5.4701,5.437,5.4146,5.4103,5.3866,5.3234,5.2507,5.1796,5.1116,5.0405,4.9892,5.7842,5.6578,5.635,5.5859,5.5174,5.5069,5.4577,5.3734,5.2558,5.1934,5.1891,5.2558,5.2885,5.2885,5.2762,5.2709,5.2727,5.2586,5.2576,5.2727,5.2832,5.2885,5.2902,5.3113,5.3148,5.3032,5.3166,5.3173,5.3173,5.3236,5.3148,5.3032,5.3043,5.2558,5.1698,5.1049,5.0662,5.0522,4.9205,4.8653,4.8969,4.8277,4.7692,4.7352,4.7854,4.7909,4.7362,4.7948,4.7944,4.7219,4.8489,4.9326,4.955,5.0135,5.1214,5.277,5.3011,5.3667,5.5012,5.4649,5.4667,5.5408,5.6288,5.7012,5.7564,5.8461,5.9047,5.9185,5.9099,5.934,6.003,5.9495,5.9323,5.9892,6.003,6.0082,6.0271,6.0789,6.1461,6.2186,6.1634,6.1427,6.1806,6.084,5.9961,5.9909,5.9409,5.9012,5.8892,5.8305,5.8048,5.829,5.7929,5.7775,5.7877,5.7795,5.7468,5.7499,5.6993,5.6806,5.6806,5.6614,5.6208,5.5499,5.5271,5.4934,5.437,5.4103,5.3856,5.3255,5.2527,5.1796,5.1053,5.0358,4.9931,5.8316,5.7245,5.6789,5.6174,5.5525,5.5525,5.5297,5.4911,5.4226,5.3418,5.2699,5.306,5.3173,5.3166,5.2734,5.2541,5.2541,5.2119,5.2155,5.2558,5.298,5.3173,5.3289,5.4033,5.4208,5.384,5.4261,5.4437,5.4437,5.4437,5.4226,5.3787,5.3429,5.3015,5.2646,5.2312,5.2119,5.2102,5.061,4.9942,5.0247,4.9878,4.9594,4.9413,4.9604,4.9491,4.9044,4.9315,4.9493,4.9562,5.0188,5.0976,5.1821,5.2546,5.346,5.4512,5.5012,5.5546,5.6219,5.5529,5.5221,5.5615,5.6357,5.7098,5.784,5.8599,5.9202,5.9599,5.9271,5.934,6.0099,5.9858,5.9806,6.0151,6.053,6.0978,6.1375,6.1703,6.2237,6.2875,6.2427,6.2099,6.2444,6.1151,6.022,6.0133,5.9513,5.903,5.9012,5.8737,5.8599,5.8892,5.8719,5.8668,5.8909,5.8719,5.8475,5.8457,5.8156,5.7923,5.785,5.7631,5.7131,5.6718,5.6331,5.5892,5.5483,5.5074,5.4377,5.3365,5.2558,5.172,5.0706,5.0121,4.9947,5.879,5.8,5.721,5.635,5.5543,5.5701,5.5665,5.5525,5.5507,5.484,5.3805,5.3717,5.3699,5.3647,5.3067,5.2793,5.2716,5.2207,5.226,5.2793,5.3418,5.3699,5.3822,5.4963,5.5191,5.47,5.5227,5.5525,5.5525,5.5525,5.5209,5.4542,5.3822,5.3464,5.3418,5.3289,5.3173,5.3074,5.1941,5.15,5.1784,5.1773,5.1701,5.1587,5.1731,5.1538,5.1045,5.1011,5.1287,5.1839,5.2028,5.2666,5.3822,5.4615,5.5288,5.5874,5.6443,5.6805,5.6771,5.6236,5.5841,5.5908,5.6598,5.7374,5.8116,5.8995,5.9771,6.0254,5.9771,5.9633,6.0289,6.0271,6.0271,6.0444,6.1116,6.1772,6.2375,6.2617,6.2927,6.3427,6.31,6.2737,6.2479,6.1392,6.0358,5.9892,5.9392,5.9047,5.9012,5.9012,5.9012,5.9012,5.9012,5.8978,5.9012,5.8978,5.8944,5.9012,5.8944,5.8858,5.8789,5.8422,5.8012,5.7741,5.7243,5.6751,5.6575,5.6074,5.5187,5.4147,5.3302,5.2129,5.0635,5.0453,5.0232,5.9545,5.8825,5.8,5.6842,5.563,5.6174,5.6087,5.556,5.5525,5.5455,5.5227,5.5297,5.5262,5.5297,5.5156,5.5069,5.5069,5.5104,5.5033,5.5086,5.5262,5.5297,5.5209,5.5437,5.5472,5.5385,5.5472,5.5525,5.5525,5.5525,5.5472,5.5314,5.4595,5.4208,5.4121,5.3541,5.3134,5.2956,5.277,5.2402,5.1808,5.1773,5.198,5.2401,5.3013,5.3597,5.3873,5.4098,5.4098,5.4236,5.477,5.5219,5.5443,5.615,5.6615,5.6684,5.6771,5.6805,5.6805,5.6719,5.665,5.6736,5.7374,5.8116,5.8892,6.0254,6.1099,6.1116,6.0547,6.0427,6.1047,6.0651,6.0599,6.1185,6.1892,6.241,6.2565,6.31,6.3513,6.3565,6.3479,6.3479,6.3255,6.2117,6.072,5.953,5.9288,5.9099,5.9012,5.9012,5.9012,5.9012,5.9012,5.9012,5.9012,5.9012,5.9012,5.9012,5.9012,5.9012,5.8944,5.8909,5.8719,5.8103,5.785,5.752,5.6996,5.6481,5.6239,5.5352,5.4414,5.3375,5.1605,5.1421,5.1398,5.9387,5.8281,5.7948,5.6912,5.5636,5.5841,5.5788,5.5525,5.5525,5.5525,5.5525,5.5525,5.5525,5.5525,5.5525,5.5525,5.5525,5.5525,5.5525,5.5525,5.5525,5.5525,5.5525,5.5525,5.5525,5.5525,5.5525,5.5525,5.5525,5.5525,5.5525,5.549,5.5174,5.494,5.4846,5.4548,5.4302,5.4124,5.3671,5.3305,5.3009,5.2468,5.2478,5.2957,5.3017,5.3502,5.451,5.4347,5.4564,5.5397,5.5778,5.6143,5.6594,5.7259,5.7644,5.7626,5.7527,5.7443,5.7443,5.7064,5.6805,5.6805,5.7909,5.8926,5.9685,6.1099,6.2168,6.2427,6.1548,6.0996,6.1272,6.1444,6.1685,6.2048,6.2686,6.3134,6.3151,6.3393,6.36,6.36,6.36,6.36,6.3462,6.2668,6.1392,6.0099,5.9702,5.9547,5.9133,5.9012,5.9012,5.9012,5.9012,5.9012,5.9012,5.9012,5.9012,5.9012,5.9012,5.9012,5.9012,5.9012,5.8858,5.851,5.8457,5.8386,5.8192,5.756,5.71,5.6315,5.519,5.4098,5.3198,5.329,5.299,5.9457,5.8509,5.8439,5.7544,5.6192,5.6368,5.621,5.5841,5.5823,5.5701,5.5525,5.5525,5.5525,5.5525,5.5525,5.5525,5.5525,5.5525,5.5583,5.5788,5.5806,5.5929,5.6104,5.5894,5.5806,5.5771,5.5613,5.5525,5.5543,5.5736,5.5823,5.5823,5.6017,5.5957,5.5639,5.5779,5.5619,5.5083,5.4861,5.4744,5.447,5.3875,5.3632,5.3769,5.3411,5.3832,5.5098,5.4739,5.5009,5.6057,5.6332,5.6697,5.7222,5.8016,5.8385,5.8144,5.7976,5.7892,5.7892,5.7391,5.7271,5.7754,5.8806,5.9806,6.0806,6.203,6.2962,6.3358,6.2565,6.191,6.1703,6.2151,6.2461,6.253,6.3151,6.3582,6.3582,6.3462,6.3341,6.3548,6.3375,6.3307,6.3203,6.2737,6.1858,6.0478,6.0168,5.9909,5.9219,5.9012,5.9012,5.9012,5.9012,5.9012,5.9012,5.9012,5.9012,5.9012,5.9012,5.9012,5.9012,5.9012,5.9012,5.8789,5.8927,5.8944,5.8719,5.8247,5.7874,5.7101,5.6203,5.5222,5.4651,5.4879,5.4703,6.0054,5.9998,5.9966,5.9011,5.7719,5.8417,5.7912,5.6543,5.6543,5.6157,5.5595,5.5525,5.5525,5.5525,5.5525,5.5525,5.5525,5.556,5.5911,5.6455,5.6543,5.6964,5.7614,5.6912,5.6543,5.6508,5.5999,5.5683,5.5636,5.6192,5.6561,5.6561,5.7105,5.7175,5.6583,5.7004,5.6786,5.5414,5.634,5.6819,5.6133,5.5914,5.5514,5.4992,5.487,5.5201,5.6018,5.6119,5.6074,5.5938,5.6756,5.7173,5.7186,5.8435,5.8853,5.808,5.7909,5.7909,5.7943,5.7892,5.8426,5.9685,6.0064,6.0771,6.203,6.2927,6.3462,6.3582,6.3427,6.3082,6.2548,6.2548,6.2599,6.2599,6.3151,6.3548,6.3582,6.31,6.2944,6.3324,6.31,6.2841,6.2651,6.2513,6.1892,6.0823,6.0306,6.0013,5.9375,5.9099,5.9168,5.9116,5.9099,5.903,5.903,5.9012,5.9012,5.9012,5.9012,5.9012,5.9012,5.9012,5.9012,5.9012,5.9012,5.9012,5.9012,5.8823,5.8475,5.8041,5.7776,5.7024,5.6247,5.6295,5.6143,6.0945,6.0436,5.9952,5.9188,5.8449,5.8686,5.8254,5.7333,5.6806,5.6455,5.6157,5.5718,5.5525,5.5525,5.5525,5.5525,5.553,5.5981,5.6368,5.6648,5.7122,5.7526,5.7737,5.7474,5.7368,5.7333,5.7087,5.6982,5.6929,5.6754,5.6596,5.6526,5.6385,5.6097,5.5844,5.5972,5.5724,5.5236,5.5676,5.5811,5.5663,5.5545,5.5676,5.5976,5.5431,5.572,5.6976,5.6667,5.6615,5.6983,5.7311,5.7628,5.794,5.8763,5.9096,5.8616,5.8167,5.8116,5.853,5.8633,5.9064,6.0099,6.1134,6.1823,6.2479,6.3151,6.36,6.36,6.36,6.3427,6.3289,6.3186,6.3186,6.3238,6.3427,6.36,6.3565,6.3341,6.3307,6.3479,6.3324,6.3203,6.3151,6.3186,6.2789,6.191,6.1668,6.1065,6.0185,6.0133,6.0254,5.9892,5.9754,5.9754,5.9754,5.9288,5.903,5.9012,5.9012,5.9012,5.9012,5.9012,5.9012,5.9012,5.9012,5.9012,5.9012,5.8978,5.8719,5.8667,5.844,5.8196,5.7853,5.7645,5.7462,6.1598,6.1036,6.0493,6.0079,5.9767,5.9757,5.9352,5.8686,5.7966,5.7364,5.6894,5.6405,5.6122,5.5946,5.6122,5.6245,5.6245,5.6526,5.6877,5.7403,5.793,5.8299,5.8474,5.8299,5.8193,5.8141,5.7912,5.7807,5.779,5.7509,5.7386,5.7351,5.707,5.6798,5.6514,5.6654,5.6558,5.6082,5.6138,5.627,5.6046,5.5779,5.6072,5.6706,5.6137,5.6129,5.7166,5.6755,5.6549,5.678,5.7217,5.7977,5.8948,5.8987,5.9079,5.9254,5.8944,5.8857,5.934,5.9616,6.0099,6.0875,6.1841,6.2548,6.2824,6.3307,6.3641,6.384,6.3949,6.3985,6.4164,6.404,6.384,6.3656,6.36,6.36,6.3582,6.3358,6.322,6.322,6.341,6.3531,6.36,6.3582,6.3203,6.2582,6.2496,6.191,6.0961,6.0909,6.1168,6.0634,6.0289,6.0168,5.9961,5.9478,5.9064,5.9012,5.9012,5.9012,5.9012,5.9012,5.9012,5.9012,5.9012,5.9012,5.9012,5.9012,5.9012,5.9012,5.8892,5.8651,5.8634,5.8841,5.8425,6.1951,6.1933,6.1906,6.1797,6.1688,6.1688,6.1353,6.054,5.9942,5.8891,5.7889,5.773,5.7296,5.6919,5.7276,5.7702,5.7614,5.7122,5.7561,5.8702,5.8948,5.9334,5.9826,5.9282,5.9001,5.8966,5.8246,5.7912,5.8053,5.8492,5.8773,5.9036,5.9247,5.8931,5.8843,5.905,5.8997,5.8035,5.8237,5.8409,5.779,5.7025,5.702,5.7605,5.703,5.6618,5.6706,5.6567,5.62,5.561,5.6575,5.8253,5.9716,5.9216,5.894,6.0048,6.0186,6.0185,6.041,6.0928,6.1566,6.2311,6.2532,6.2895,6.347,6.3677,6.3949,6.4463,6.4617,6.4804,6.5219,6.4939,6.4358,6.3749,6.3656,6.36,6.3479,6.2979,6.253,6.2737,6.322,6.3565,6.36,6.36,6.3324,6.2824,6.2617,6.2341,6.1565,6.153,6.1427,6.1203,6.084,6.0513,6.0064,5.9599,5.9254,5.9012,5.9012,5.9012,5.9012,5.9012,5.9012,5.9012,5.9012,5.9012,5.9012,5.9012,5.9012,5.9012,5.9012,5.9012,5.9012,5.9012,5.9012,6.308,6.3062,6.308,6.2806,6.2486,6.2442,6.2097,6.1471,6.0747,6.0115,5.9601,5.8802,5.8265,5.8024,5.7928,5.8105,5.8579,5.8369,5.8544,5.9036,5.9527,5.9843,6.0001,5.9861,5.9756,5.9721,5.951,5.9369,5.9299,5.9124,5.9001,5.8983,5.8702,5.8421,5.836,5.8761,5.8639,5.8048,5.8823,5.9015,5.8465,5.8176,5.8176,5.8296,5.7799,5.736,5.725,5.7188,5.6959,5.6558,5.69,5.7829,5.9218,6.003,6.0722,6.1428,6.1207,6.1726,6.2853,6.2527,6.2715,6.3554,6.3513,6.3617,6.4165,6.4288,6.4601,6.5171,6.5285,6.5415,6.5511,6.5447,6.5006,6.4358,6.3877,6.3656,6.3712,6.3432,6.3272,6.3272,6.3462,6.3582,6.3637,6.3656,6.3626,6.3363,6.3259,6.2965,6.2394,6.2498,6.2599,6.2203,6.1548,6.0963,6.0705,6.0082,5.9355,5.9132,5.9064,5.9012,5.9012,5.9012,5.9012,5.9012,5.9012,5.9012,5.9012,5.9012,5.9012,5.9012,5.9012,5.9012,5.9012,5.9012,5.9012,6.3602,6.3602,6.3602,6.3382,6.3025,6.3025,6.2831,6.2431,6.174,6.128,6.0885,6.0259,5.9555,5.9184,5.9005,5.9113,5.9387,5.9422,5.9405,5.9475,5.9826,6.0089,6.0089,6.0089,6.0089,6.0089,6.0089,6.0089,6.0072,5.965,5.9422,5.9299,5.8878,5.884,5.9001,5.9337,5.9425,5.9389,5.9753,5.979,5.9465,5.9166,5.9148,5.9344,5.9077,5.8946,5.9011,5.8991,5.8391,5.7547,5.75,5.8727,6.0763,6.1812,6.2439,6.294,6.306,6.3439,6.4359,6.3965,6.3971,6.4716,6.4566,6.4532,6.4872,6.4972,6.5285,6.5878,6.6002,6.6095,6.6325,6.6143,6.5815,6.545,6.4806,6.4376,6.4341,6.4341,6.4358,6.4358,6.4393,6.4341,6.4358,6.4358,6.4235,6.4075,6.3967,6.3898,6.341,6.342,6.33,6.2957,6.2336,6.1883,6.1588,6.0702,5.9573,5.9317,5.9199,5.9064,5.9012,5.9012,5.9012,5.9012,5.9012,5.9012,5.9012,5.9012,5.9012,5.9012,5.9012,5.9012,5.9012,5.9012,5.9012,6.3602,6.3602,6.3602,6.3579,6.3557,6.3557,6.3492,6.3447,6.2964,6.2322,6.1856,6.1745,6.1153,6.0343,6.0603,6.0557,6.0213,6.0111,6.0062,6.0016,6.0089,6.0089,6.0089,6.0089,6.0089,6.0089,6.0089,6.0089,6.0089,6.0129,6.0153,6.0125,6.0162,6.0424,6.0742,6.1039,6.1225,6.1361,6.1153,6.0949,6.0763,6.0165,6.0074,6.0755,6.0793,6.0972,6.1299,6.1279,6.01,5.788,5.8866,6.0981,6.347,6.3859,6.3912,6.4642,6.5282,6.5143,6.5019,6.5095,6.544,6.5621,6.5511,6.5639,6.5639,6.5671,6.5971,6.663,6.6736,6.6985,6.7286,6.7071,6.6736,6.6648,6.5846,6.5447,6.5544,6.5511,6.535,6.5447,6.5575,6.5558,6.5415,6.5415,6.5171,6.4856,6.4652,6.4581,6.4426,6.4253,6.406,6.3589,6.3003,6.2404,6.1983,6.1524,6.0504,6.044,6.0126,5.9692,5.9201,5.9012,5.9012,5.9012,5.9012,5.9012,5.9012,5.9012,5.9012,5.9012,5.9012,5.9012,5.9012,5.9012,5.903,6.3602,6.3602,6.3602,6.3602,6.3602,6.3602,6.3602,6.3579,6.3428,6.3187,6.3007,6.2646,6.2263,6.1925,6.1697,6.1336,6.0885,6.0752,6.0463,6.0153,6.0089,6.0089,6.0089,6.0089,6.0089,6.0089,6.0089,6.0089,6.0121,6.0578,6.0775,6.0782,6.127,6.1505,6.1704,6.2113,6.2076,6.2068,6.2628,6.2555,6.2124,6.1992,6.1894,6.2003,6.2223,6.2356,6.2436,6.2677,6.2022,6.0411,6.1979,6.31,6.3922,6.4599,6.5312,6.5855,6.5797,6.6046,6.6505,6.6077,6.5891,6.6283,6.6002,6.5829,6.6392,6.6404,6.6747,6.7276,6.7433,6.7488,6.7633,6.7533,6.7387,6.7304,6.6416,6.5734,6.5703,6.5607,6.5607,6.5607,6.5671,6.5734,6.5734,6.5734,6.5621,6.5415,6.535,6.535,6.5199,6.4734,6.4446,6.4114,6.3577,6.2884,6.2315,6.1955,6.1671,6.1689,6.1317,6.0645,5.9896,5.9115,5.9064,5.9012,5.9012,5.9012,5.9012,5.9012,5.9012,5.9012,5.9012,5.9012,5.9012,5.903,5.9047,6.3602,6.3602,6.3602,6.3602,6.3602,6.3602,6.3602,6.3602,6.3602,6.3602,6.3515,6.3228,6.291,6.267,6.2365,6.1933,6.1422,6.1383,6.121,6.0885,6.0648,6.0356,6.0185,6.0089,6.0089,6.0089,6.0089,6.0231,6.0565,6.1175,6.1605,6.2004,6.259,6.2994,6.3373,6.3544,6.3748,6.3796,6.4325,6.4414,6.4046,6.4076,6.4027,6.3959,6.4048,6.4019,6.3921,6.4388,6.4099,6.3421,6.3966,6.4702,6.5295,6.572,6.6283,6.6677,6.6523,6.6805,6.7043,6.67,6.67,6.6985,6.6689,6.6747,6.7014,6.7117,6.7332,6.7588,6.7669,6.7669,6.7669,6.7669,6.7669,6.7588,6.6967,6.6457,6.6475,6.6553,6.6523,6.6493,6.6493,6.6475,6.6475,6.6475,6.6307,6.6156,6.6082,6.6082,6.5997,6.5345,6.484,6.4667,6.4226,6.3555,6.3071,6.2723,6.2723,6.2777,6.2594,6.1915,6.0987,5.9866,5.9285,5.9234,5.9081,5.9012,5.9012,5.9012,5.9012,5.9012,5.9012,5.9012,5.9012,5.915,5.915,6.3602,6.3602,6.3602,6.3602,6.3602,6.3602,6.3602,6.3602,6.3602,6.3602,6.3579,6.3579,6.3252,6.2812,6.2812,6.2512,6.2005,6.196,6.1897,6.1648,6.1326,6.0885,6.0525,6.0167,6.0216,6.0297,6.0269,6.0671,6.1325,6.2052,6.2796,6.3374,6.4084,6.4684,6.493,6.5143,6.5552,6.5703,6.57,6.5747,6.5615,6.5615,6.5507,6.5404,6.5589,6.5697,6.5783,6.6166,6.619,6.5716,6.5143,6.5825,6.7222,6.691,6.687,6.6928,6.7248,6.735,6.7043,6.7359,6.7588,6.7588,6.7615,6.7669,6.7615,6.7588,6.7615,6.7687,6.7669,6.7669,6.7669,6.7669,6.7669,6.7687,6.7615,6.7669,6.7669,6.7669,6.7669,6.7669,6.766,6.7687,6.7669,6.7642,6.7433,6.6852,6.6794,6.6794,6.6609,6.6083,6.5703,6.5493,6.4952,6.4281,6.3882,6.3547,6.371,6.3856,6.3747,6.3244,6.2421,6.1347,6.0196,5.9621,5.9727,5.944,5.9012,5.9012,5.9012,5.9012,5.9012,5.9012,5.903,5.9254,5.934,6.3602,6.3602,6.3602,6.3602,6.3602,6.3602,6.3602,6.3602,6.3602,6.3602,6.3602,6.3602,6.3515,6.3363,6.3317,6.3086,6.257,6.2537,6.2313,6.1897,6.1814,6.1676,6.1279,6.0679,6.0436,6.0869,6.1483,6.1836,6.2302,6.36,6.4591,6.4823,6.5389,6.5786,6.5932,6.6043,6.5949,6.6086,6.6165,6.6192,6.6121,6.6055,6.5988,6.5903,6.6284,6.6765,6.7151,6.7365,6.7376,6.7231,6.7058,6.6909,6.7063,6.7304,6.7405,6.7433,6.7561,6.7615,6.7533,6.7588,6.7669,6.7669,6.7669,6.7669,6.7669,6.7669,6.7669,6.7669,6.7669,6.7669,6.7669,6.7669,6.7669,6.7669,6.7669,6.7669,6.7669,6.7669,6.7669,6.7669,6.7669,6.7669,6.7669,6.7669,6.7588,6.7479,6.7479,6.7479,6.7149,6.6718,6.6418,6.6117,6.5807,6.5177,6.4721,6.4593,6.4958,6.504,6.4885,6.4664,6.3876,6.3065,6.1942,6.1079,6.0469,6.0117,5.9761,5.9098,5.9165,5.9064,5.9047,5.9012,5.9081,5.9323,5.9564,6.3602,6.3602,6.3602,6.3602,6.3602,6.3602,6.3602,6.3602,6.3602,6.3602,6.3602,6.3602,6.3602,6.3602,6.3579,6.3382,6.3205,6.3115,6.2831,6.2409,6.2279,6.2279,6.2275,6.1849,6.1717,6.2087,6.2781,6.3268,6.3974,6.4956,6.5871,6.626,6.6844,6.7245,6.7243,6.7187,6.7256,6.7274,6.7152,6.708,6.7012,6.692,6.6802,6.6757,6.7034,6.7363,6.764,6.7677,6.7669,6.7669,6.7687,6.7561,6.7276,6.7488,6.7669,6.7669,6.7669,6.7669,6.7669,6.7669,6.7669,6.7669,6.7669,6.7669,6.7669,6.7669,6.7669,6.7669,6.7669,6.7669,6.7669,6.7669,6.7669,6.7669,6.7669,6.7669,6.7669,6.7669,6.7669,6.7669,6.7669,6.7669,6.7669,6.7669,6.7669,6.7588,6.7588,6.7588,6.7588,6.7186,6.6837,6.6589,6.647,6.6129,6.5608,6.5681,6.6296,6.6315,6.6179,6.5952,6.5432,6.4623,6.3784,6.2802,6.1756,6.1361,6.096,6.0211,5.9502,5.9483,5.9417,5.9165,5.9168,5.9581,5.9771,6.3602,6.3602,6.3602,6.3602,6.3602,6.3602,6.3602,6.3602,6.3602,6.3602,6.3602,6.3602,6.3602,6.3602,6.3602,6.3602,6.3579,6.3552,6.3223,6.2904,6.2855,6.2855,6.2915,6.3268,6.3575,6.3648,6.4275,6.4885,6.539,6.6246,6.6999,6.7505,6.8054,6.8227,6.837,6.842,6.8253,6.8173,6.8056,6.8018,6.803,6.7954,6.7808,6.7697,6.7628,6.7604,6.7696,6.7669,6.7669,6.7669,6.7669,6.7669,6.7669,6.7669,6.7669,6.7669,6.7669,6.7669,6.7669,6.7669,6.7669,6.7669,6.7669,6.7669,6.7669,6.7669,6.7669,6.7669,6.7669,6.7669,6.7669,6.7669,6.7669,6.7669,6.7669,6.7669,6.7669,6.7669,6.7669,6.7669,6.7669,6.7669,6.7669,6.7669,6.7669,6.7669,6.7669,6.7669,6.7669,6.7614,6.7247,6.71,6.7008,6.6971,6.6531,6.6384,6.7026,6.7081,6.7045,6.689,6.6653,6.6199,6.5283,6.3942,6.3059,6.2713,6.2042,6.1166,6.0614,6.0223,5.9905,5.9759,5.9777,5.9891,6.003,6.3602,6.3602,6.3602,6.3602,6.3602,6.3602,6.3602,6.3602,6.3602,6.3602,6.3602,6.3602,6.3602,6.3602,6.3602,6.3602,6.3602,6.3598,6.3534,6.3382,6.34,6.34,6.3682,6.4678,6.5361,6.5669,6.5934,6.6127,6.653,6.7437,6.7969,6.8277,6.8431,6.85,6.8475,6.8408,6.8358,6.8377,6.8234,6.8139,6.8114,6.8011,6.7881,6.7767,6.7714,6.7714,6.7669,6.7669,6.7669,6.7669,6.7669,6.7669,6.7669,6.7669,6.7669,6.7669,6.7669,6.7669,6.7669,6.7669,6.7669,6.7669,6.7669,6.7669,6.7669,6.7669,6.7669,6.7669,6.7669,6.7669,6.7669,6.7669,6.7669,6.7669,6.7669,6.7669,6.7669,6.7669,6.7669,6.7669,6.7669,6.7669,6.7669,6.7669,6.7669,6.7669,6.7669,6.7669,6.7669,6.7669,6.7559,6.7522,6.7559,6.7559,6.7448,6.7338,6.7504,6.7467,6.743,6.743,6.733,6.7485,6.6729,6.5343,6.4495,6.4137,6.3304,6.2361,6.1752,6.1448,6.0945,6.0441,6.0452,6.055,6.0529,6.3602,6.3602,6.3602,6.3602,6.3602,6.3602,6.3602,6.3602,6.3602,6.3602,6.3602,6.3602,6.3602,6.3602,6.3602,6.3602,6.3602,6.3602,6.3602,6.3602,6.362,6.3899,6.4289,6.5571,6.6277,6.6744,6.7179,6.7449,6.7511,6.8099,6.85,6.85,6.85,6.85,6.8475,6.8358,6.8334,6.8334,6.8139,6.8018,6.8044,6.7907,6.7767,6.7714,6.7669,6.7669,6.7669,6.7669,6.7669,6.7669,6.7669,6.7669,6.7669,6.7669,6.7669,6.7669,6.7669,6.7669,6.7669,6.7669,6.7669,6.7669,6.7669,6.7669,6.7669,6.7669,6.7669,6.7669,6.7669,6.7669,6.7669,6.7669,6.7669,6.7669,6.7669,6.7669,6.7669,6.7669,6.7669,6.7669,6.7669,6.7669,6.7669,6.7669,6.7669,6.7669,6.7669,6.7669,6.7669,6.7669,6.7669,6.7669,6.7669,6.7669,6.7669,6.7669,6.7669,6.7669,6.7669,6.7669,6.7669,6.7669,6.7431,6.6637,6.6052,6.542,6.4946,6.4104,6.339,6.2637,6.2093,6.1645,6.1309,6.1171,6.1338,6.3691,6.3843,6.3635,6.3602,6.3602,6.3602,6.3602,6.3602,6.3602,6.3602,6.3602,6.3602,6.3602,6.3602,6.3602,6.3602,6.3602,6.3602,6.3713,6.3936,6.3955,6.4289,6.5125,6.5905,6.6685,6.72,6.7956,6.85,6.834,6.8463,6.85,6.85,6.85,6.85,6.8475,6.8358,6.8383,6.8265,6.8088,6.7959,6.7933,6.7802,6.7669,6.7669,6.7669,6.7669,6.7669,6.7669,6.7669,6.7669,6.7669,6.7669,6.7669,6.7669,6.7669,6.7669,6.7669,6.7669,6.7669,6.7669,6.7669,6.7669,6.7669,6.7669,6.7669,6.7669,6.7669,6.7669,6.7669,6.7669,6.7669,6.7669,6.7669,6.7669,6.7669,6.7669,6.7669,6.7669,6.7669,6.7669,6.7669,6.7669,6.7669,6.7669,6.7669,6.7669,6.7669,6.7669,6.7669,6.7669,6.7669,6.7669,6.7669,6.7669,6.7669,6.7669,6.7669,6.7669,6.7669,6.7669,6.7669,6.7669,6.7413,6.7212,6.7048,6.6473,6.6144,6.5714,6.4813,6.4009,6.3344,6.2902,6.2678,6.2686,6.2902,6.4029,6.4582,6.3895,6.3602,6.3602,6.3602,6.3602,6.3602,6.3602,6.3602,6.3602,6.3602,6.3602,6.3602,6.3602,6.3602,6.362,6.375,6.4006,6.4415,6.4619,6.5125,6.5937,6.6754,6.7131,6.754,6.8171,6.8444,6.85,6.85,6.85,6.85,6.85,6.85,6.85,6.8334,6.8259,6.8139,6.7985,6.7855,6.7749,6.7722,6.7696,6.7669,6.7669,6.7669,6.7669,6.7669,6.7669,6.7669,6.7669,6.7669,6.7669,6.7669,6.7669,6.7669,6.7669,6.7669,6.7669,6.7669,6.7669,6.7669,6.7669,6.7669,6.7669,6.7669,6.7669,6.7669,6.7669,6.7669,6.7669,6.7669,6.7669,6.7669,6.7669,6.7669,6.7669,6.7669,6.7669,6.7669,6.7669,6.7669,6.7669,6.7669,6.7669,6.7669,6.7669,6.7669,6.7669,6.7669,6.7669,6.7669,6.7669,6.7669,6.7669,6.7669,6.7669,6.7669,6.7669,6.7669,6.7669,6.7669,6.7669,6.754,6.7412,6.7228,6.6745,6.627,6.5867,6.5422,6.4794,6.4446,6.416,6.4234,6.4231,6.4939,6.4749,6.4419,6.4006,6.3616,6.3602,6.3602,6.3602,6.3602,6.3602,6.3602,6.3602,6.3602,6.3602,6.3602,6.3602,6.3691,6.4043,6.4415,6.4916,6.5325,6.5979,6.6685,6.7168,6.7423,6.7961,6.8277,6.8463,6.85,6.85,6.85,6.85,6.85,6.85,6.85,6.8265,6.8215,6.8139,6.8011,6.7828,6.7722,6.7669,6.7669,6.7669,6.7669,6.7669,6.7669,6.7669,6.7669,6.7669,6.7669,6.7669,6.7669,6.7669,6.7669,6.7669,6.7669,6.7669,6.7669,6.7669,6.7669,6.7669,6.7669,6.7669,6.7669,6.7669,6.7669,6.7669,6.7669,6.7669,6.7669,6.7669,6.7669,6.7669,6.7669,6.7669,6.7669,6.7669,6.7669,6.7669,6.7669,6.7669,6.7669,6.7669,6.7669,6.7669,6.7669,6.7669,6.7669,6.7669,6.7669,6.7669,6.7669,6.7669,6.7669,6.7669,6.7669,6.7669,6.7669,6.7669,6.7669,6.7669,6.7669,6.7669,6.7577,6.7375,6.7136,6.7026,6.6753,6.6541,6.6292,6.5833,6.5387,6.505,6.4962,6.6091,6.5125,6.4879,6.4345,6.3616,6.3602,6.3602,6.3602,6.3602,6.3602,6.3602,6.3602,6.3602,6.3602,6.3602,6.362,6.3676,6.4438,6.4921,6.5348,6.5993,6.681,6.7386,6.7683,6.7924,6.8481,6.8444,6.85,6.85,6.85,6.85,6.85,6.85,6.85,6.8451,6.8309,6.819,6.8132,6.7952,6.7776,6.7714,6.7669,6.7669,6.7669,6.7669,6.7669,6.7669,6.7669,6.7669,6.7669,6.7669,6.7669,6.7669,6.7669,6.7669,6.7669,6.7669,6.7669,6.7669,6.7669,6.7669,6.7669,6.7669,6.7669,6.7669,6.7669,6.7669,6.7669,6.7669,6.7669,6.7669,6.7669,6.7669,6.7669,6.7669,6.7669,6.7669,6.7669,6.7669,6.7669,6.7669,6.7669,6.7669,6.7669,6.7669,6.7669,6.7669,6.7669,6.7669,6.7669,6.7669,6.7669,6.7669,6.7669,6.7669,6.7669,6.7669,6.7669,6.7669,6.7669,6.7669,6.7669,6.7669,6.7669,6.7669,6.7595,6.7412,6.754,6.765,6.7265,6.6953,6.688,6.6545,6.6152,6.5812,6.7404,6.5961,6.5162,6.434,6.3602,6.3602,6.3602,6.3602,6.3602,6.3602,6.3602,6.3602,6.3602,6.3602,6.3602,6.3602,6.3657,6.4456,6.5199,6.6017,6.6852,6.7595,6.8036,6.8258,6.8351,6.8481,6.85,6.85,6.85,6.85,6.85,6.85,6.85,6.85,6.8432,6.8315,6.8114,6.8004,6.7802,6.7722,6.7714,6.7669,6.7669,6.7669,6.7669,6.7669,6.7669,6.7669,6.7669,6.7669,6.7669,6.7669,6.7669,6.7669,6.7669,6.7669,6.7669,6.7669,6.7669,6.7669,6.7669,6.7669,6.7669,6.7669,6.7669,6.7669,6.7669,6.7669,6.7669,6.7669,6.7669,6.7669,6.7669,6.7669,6.7669,6.7669,6.7669,6.7669,6.7669,6.7669,6.7669,6.7669,6.7669,6.7669,6.7669,6.7669,6.7669,6.7669,6.7669,6.7669,6.7669,6.7669,6.7669,6.7669,6.7669,6.7669,6.7669,6.7669,6.7669,6.7669,6.7669,6.7669,6.7669,6.7669,6.7669,6.7669,6.7669,6.7669,6.7669,6.7669,6.7559,6.7338,6.7283,6.7021,6.6781,6.7534,6.6091,6.5738,6.4828,6.3602,6.3602,6.3602,6.3602,6.3602,6.3602,6.3602,6.3602,6.3602,6.3602,6.3602,6.3602,6.3806,6.5069,6.5701,6.6444,6.7317,6.811,6.8481,6.85,6.85,6.85,6.85,6.85,6.85,6.85,6.85,6.85,6.85,6.85,6.8432,6.8265,6.8037,6.7828,6.7722,6.7696,6.7669,6.7669,6.7669,6.7669,6.7669,6.7669,6.7669,6.7669,6.7669,6.7669,6.7669,6.7669,6.7669,6.7669,6.7669,6.7669,6.7669,6.7669,6.7669,6.7669,6.7669,6.7669,6.7669,6.7669,6.7669,6.7669,6.7669,6.7669,6.7669,6.7669,6.7669,6.7669,6.7669,6.7669,6.7669,6.7669,6.7669,6.7669,6.7669,6.7669,6.7669,6.7669,6.7669,6.7669,6.7669,6.7669,6.7669,6.7669,6.7669,6.7669,6.7669,6.7669,6.7669,6.7669,6.7669,6.7669,6.7669,6.7669,6.7669,6.7669,6.7669,6.7669,6.7669,6.7669,6.7669,6.7669,6.7669,6.7669,6.7669,6.7669,6.7669,6.7614,6.765,6.7669,6.746,6.7683,6.6481,6.6202,6.5144,6.3695,6.3602,6.3602,6.3602,6.3602,6.3602,6.3602,6.3602,6.3602,6.3602,6.3602,6.3602,6.4048,6.5162,6.5868,6.6685,6.7553,6.837,6.85,6.85,6.85,6.85,6.85,6.85,6.85,6.85,6.8475,6.8451,6.8451,6.8432,6.8358,6.8165,6.7933,6.7749,6.7669,6.7669,6.7669,6.7669,6.7669,6.7669,6.7669,6.7669,6.7669,6.7669,6.7669,6.7669,6.7669,6.7669,6.7669,6.7669,6.7669,6.7669,6.7669,6.7669,6.7669,6.7669,6.7669,6.7669,6.7669,6.7669,6.7669,6.7669,6.7669,6.7669,6.7669,6.7669,6.7669,6.7669,6.7669,6.7669,6.7669,6.7669,6.7669,6.7669,6.7669,6.7669,6.7669,6.7669,6.7669,6.7669,6.7669,6.7669,6.7669,6.7669,6.7669,6.7669,6.7669,6.7669,6.7669,6.7669,6.7669,6.7669,6.7669,6.7669,6.7669,6.7669,6.7669,6.7669,6.7669,6.7669,6.7669,6.7669,6.7669,6.7669,6.7669,6.7669,6.7669,6.7669,6.7669,6.7669,6.7669,6.8023,6.7224,6.6462,6.5199,6.3825,6.3602,6.362,6.3713,6.3639,6.3602,6.3602,6.3602,6.3602,6.3639,6.3695,6.3825,6.4178,6.5441,6.6258,6.6685,6.7781,6.8388,6.85,6.85,6.85,6.85,6.85,6.85,6.85,6.8475,6.8426,6.8334,6.8309,6.8284,6.8259,6.8037,6.7828,6.7714,6.7714,6.7669,6.7669,6.7669,6.7669,6.7669,6.7669,6.7669,6.7669,6.7669,6.7669,6.7669,6.7669,6.7669,6.7669,6.7669,6.7669,6.7669,6.7669,6.7669,6.7669,6.7669,6.7669,6.7669,6.7669,6.7669,6.7669,6.7669,6.7669,6.7669,6.7669,6.7669,6.7669,6.7669,6.7669,6.7669,6.7669,6.7669,6.7669,6.7669,6.7669,6.7669,6.7669,6.7669,6.7669,6.7669,6.7669,6.7669,6.7669,6.7669,6.7669,6.7669,6.7669,6.7669,6.7669,6.7669,6.7669,6.7669,6.7669,6.7669,6.7669,6.7669,6.7669,6.7669,6.7669,6.7669,6.7669,6.7669,6.7669,6.7669,6.7669,6.7669,6.7669,6.7669,6.7669,6.7669,6.7669,6.8041,6.7256,6.7001,6.6277,6.5181,6.4048,6.388,6.4229,6.388,6.362,6.3602,6.3602,6.3602,6.3732,6.414,6.4363,6.4698,6.6091,6.6908,6.7038,6.8004,6.8394,6.85,6.85,6.85,6.85,6.85,6.85,6.85,6.8451,6.8358,6.8284,6.8132,6.8055,6.8011,6.7907,6.7828,6.7696,6.7669,6.7669,6.7669,6.7669,6.7669,6.7669,6.7669,6.7669,6.7669,6.7669,6.7669,6.7669,6.7669,6.7669,6.7669,6.7669,6.7669,6.7669,6.7669,6.7669,6.7669,6.7669,6.7669,6.7669,6.7669,6.7669,6.7669,6.7669,6.7669,6.7669,6.7669,6.7669,6.7669,6.7669,6.7669,6.7669,6.7669,6.7669,6.7669,6.7669,6.7669,6.7669,6.7669,6.7669,6.7669,6.7669,6.7669,6.7669,6.7669,6.7669,6.7669,6.7669,6.7669,6.7669,6.7669,6.7669,6.7669,6.7669,6.7669,6.7669,6.7669,6.7669,6.7669,6.7669,6.7669,6.7669,6.7669,6.7669,6.7669,6.7669,6.7669,6.7669,6.7669,6.7669,6.7669,6.7669,6.7669,6.8203,6.7707,6.7428,6.7187,6.6685,6.5181,6.4809,6.5069,6.44,6.4029,6.3992,6.3769,6.3602,6.3843,6.4359,6.4809,6.4976,6.6165,6.7205,6.7298,6.7776,6.8166,6.8388,6.8481,6.85,6.85,6.85,6.8481,6.8408,6.8334,6.8234,6.8107,6.7952,6.7873,6.7847,6.7802,6.7776,6.7696,6.7669,6.7669,6.7669,6.7669,6.7669,6.7669,6.7669,6.7669,6.7669,6.7669,6.7669,6.7669,6.7669,6.7669,6.7669,6.7669,6.7669,6.7669,6.7669,6.7669,6.7669,6.7669,6.7669,6.7669,6.7669,6.7669,6.7669,6.7669,6.7669,6.7669,6.7669,6.7669,6.7669,6.7669,6.7669,6.7669,6.7669,6.7669,6.7669,6.7669,6.7669,6.7669,6.7669,6.7669,6.7669,6.7669,6.7669,6.7669,6.7669,6.7669,6.7669,6.7669,6.7669,6.7669,6.7669,6.7669,6.7669,6.7669,6.7669,6.7669,6.7669,6.7669,6.7669,6.7669,6.7669,6.7669,6.7669,6.7669,6.7669,6.7669,6.7669,6.7669,6.7669,6.7669,6.7669,6.7669,6.7669,6.85,6.8388,6.767,6.78,6.8091,6.6778,6.6165,6.6035,6.5218,6.4823,6.4809,6.4066,6.3806,6.3858,6.447,6.4842,6.5069,6.5887,6.6592,6.7075,6.7317,6.7757,6.8129,6.829,6.8303,6.842,6.8432,6.8358,6.8309,6.8234,6.8107,6.7952,6.782,6.7741,6.7741,6.7741,6.7696,6.7696,6.7669,6.7669,6.7669,6.7669,6.7669,6.7669,6.7669,6.7669,6.7669,6.7669,6.7669,6.7669,6.7669,6.7669,6.7669,6.7669,6.7669,6.7669,6.7669,6.7669,6.7669,6.7669,6.7669,6.7669,6.7669,6.7669,6.7669,6.7669,6.7669,6.7669,6.7669,6.7669,6.7669,6.7669,6.7669,6.7669,6.7669,6.7669,6.7669,6.7669,6.7669,6.7669,6.7669,6.7669,6.7669,6.7669,6.7669,6.7669,6.7669,6.7669,6.7669,6.7669,6.7669,6.7669,6.7669,6.7669,6.7669,6.7669,6.7669,6.7669,6.7669,6.7669,6.7669,6.7669,6.7669,6.7669,6.7669,6.7669,6.7669,6.7669,6.7669,6.7669,6.7669,6.7669,6.7669,6.7669,6.7669,6.85,6.8463,6.8246,6.8277,6.8413,6.798,6.7205,6.6147,6.5812,6.5738,6.5682,6.4823,6.4308,6.4512,6.4716,6.5162,6.5566,6.6054,6.6611,6.6829,6.6656,6.698,6.7271,6.7543,6.7772,6.8055,6.8178,6.816,6.8158,6.8107,6.7952,6.7767,6.7741,6.7714,6.7669,6.7669,6.7669,6.7669,6.7669,6.7669,6.7669,6.7669,6.7669,6.7669,6.7669,6.7669,6.7669,6.7669,6.7669,6.7669,6.7669,6.7669,6.7669,6.7669,6.7669,6.7669,6.7669,6.7669,6.7669,6.7669,6.7669,6.7669,6.7669,6.7669,6.7669,6.7669,6.7669,6.7669,6.7669,6.7669,6.7669,6.7669,6.7669,6.7669,6.7669,6.7669,6.7669,6.7669,6.7669,6.7669,6.7669,6.7669,6.7669,6.7669,6.7669,6.7669,6.7669,6.7669,6.7669,6.7669,6.7669,6.7669,6.7669,6.7669,6.7669,6.7669,6.7669,6.7669,6.7669,6.7669,6.7669,6.7669,6.7669,6.7669,6.7669,6.7669,6.7669,6.7669,6.7669,6.7669,6.7669,6.7669,6.7669,6.7669,6.7687,6.85,6.85,6.85,6.8314,6.8024,6.8235,6.758,6.6505,6.6192,6.6109,6.5942,6.4805,6.4303,6.4345,6.4619,6.5028,6.5347,6.5384,6.5824,6.6197,6.5838,6.6043,6.6291,6.6599,6.6981,6.7375,6.77,6.7719,6.79,6.7899,6.7767,6.7714,6.7669,6.7669,6.7669,6.7669,6.7669,6.7669,6.7669,6.7669,6.7669,6.7669,6.7669,6.7669,6.7669,6.7669,6.7669,6.7669,6.7669,6.7669,6.7669,6.7669,6.7669,6.7669,6.7669,6.7669,6.7669,6.7669,6.7669,6.7669,6.7669,6.7669,6.7669,6.7669,6.7669,6.7669,6.7669,6.7669,6.7669,6.7669,6.7669,6.7669,6.7669,6.7669,6.7669,6.7669,6.7669,6.7669,6.7669,6.7669,6.7669,6.7669,6.7669,6.7669,6.7669,6.7669,6.7669,6.7669,6.7669,6.7669,6.7669,6.7669,6.7669,6.7669,6.7669,6.7669,6.7669,6.7669,6.7669,6.7669,6.7669,6.7669,6.7669,6.7669,6.7669,6.7669,6.7669,6.7669,6.7669,6.7669,6.7669,6.7669,6.7669,6.7669,6.7714,6.8457,6.8457,6.8475,6.8012,6.7321,6.7776,6.7541,6.6839,6.6171,6.6025,6.5821,6.4429,6.3886,6.4271,6.442,6.48,6.4938,6.4914,6.5094,6.5595,6.4776,6.4825,6.5374,6.5626,6.6173,6.6623,6.7022,6.7325,6.7708,6.7776,6.7741,6.7669,6.7669,6.7669,6.7669,6.7669,6.7669,6.7669,6.7669,6.7669,6.7669,6.7669,6.7669,6.7669,6.7669,6.7669,6.7669,6.7669,6.7669,6.7669,6.7669,6.7669,6.7669,6.7669,6.7669,6.7669,6.7669,6.7669,6.7669,6.7669,6.7669,6.7669,6.7669,6.7669,6.7669,6.7669,6.7669,6.7669,6.7669,6.7669,6.7669,6.7669,6.7669,6.7669,6.7669,6.7669,6.7669,6.7669,6.7669,6.7669,6.7669,6.7669,6.7669,6.7669,6.7669,6.7669,6.7669,6.7669,6.7669,6.7669,6.7669,6.7669,6.7669,6.7669,6.7669,6.7669,6.7669,6.7669,6.7669,6.7669,6.7669,6.7669,6.7669,6.7669,6.7669,6.7669,6.7669,6.7669,6.7669,6.7669,6.7669,6.7669,6.7669,6.7714,6.7687,6.8265,6.819,6.819,6.8035,6.777,6.7375,6.7073,6.6784,6.5386,6.5508,6.6192,6.5064,6.4472,6.4755,6.4052,6.4454,6.5552,6.4517,6.4585,6.4721,6.4223,6.3923,6.4433,6.461,6.5322,6.6221,6.6709,6.703,6.7584,6.7696,6.7669,6.7669,6.7669,6.7669,6.7669,6.7669,6.7669,6.7669,6.7669,6.7669,6.7669,6.7669,6.7669,6.7669,6.7669,6.7669,6.7669,6.7669,6.7669,6.7669,6.7669,6.7669,6.7669,6.7669,6.7669,6.7669,6.7669,6.7669,6.7669,6.7669,6.7669,6.7669,6.7669,6.7669,6.7669,6.7669,6.7669,6.7669,6.7669,6.7669,6.7669,6.7669,6.7669,6.7669,6.7669,6.7669,6.7669,6.7669,6.7669,6.7669,6.7669,6.7669,6.7669,6.7669,6.7669,6.7669,6.7669,6.7669,6.7669,6.7669,6.7669,6.7669,6.7669,6.7669,6.7669,6.7669,6.7669,6.7669,6.7669,6.7669,6.7669,6.7669,6.7669,6.7669,6.7669,6.7669,6.7669,6.7669,6.7669,6.7669,6.7669,6.7669,6.7714,6.7714,6.7714,6.7647,6.7608,6.7889,6.7587,6.6971,6.6754,6.6342,6.555,6.4666,6.4776,6.5428,6.4488,6.4173,6.4727,6.3933,6.4119,6.5484,6.4334,6.4285,6.4316,6.3911,6.3413,6.3481,6.3658,6.4313,6.5228,6.6256,6.6888,6.7559,6.7669,6.7669,6.7669,6.7669,6.7669,6.7669,6.7669,6.7669,6.7669,6.7669,6.7669,6.7669,6.7669,6.7669,6.7669,6.7669,6.7669,6.7669,6.7669,6.7669,6.7669,6.7669,6.7669,6.7669,6.7669,6.7669,6.7669,6.7669,6.7669,6.7669,6.7669,6.7669,6.7669,6.7669,6.7669,6.7669,6.7669,6.7669,6.7669,6.7669,6.7669,6.7669,6.7669,6.7669,6.7669,6.7669,6.7669,6.7669,6.7669,6.7669,6.7669,6.7669,6.7669,6.7669,6.7669,6.7669,6.7669,6.7669,6.7669,6.7669,6.7669,6.7669,6.7669,6.7669,6.7669,6.7669,6.7669,6.7669,6.7669,6.7669,6.7669,6.7669,6.7669,6.7669,6.7669,6.7669,6.7669,6.7669,6.7669,6.7669,6.7669,6.7669,6.7669,6.7714,6.7741,6.7794,6.6715,6.6801,6.7539,6.7027,6.5805,6.6106,6.5621,6.4446,6.4042,6.3913,6.3957,6.3456,6.3215,6.359,6.3805,6.4119,6.418,6.3861,6.397,6.392,6.3271,6.305,6.294,6.297,6.3778,6.4769,6.5888,6.6824,6.765,6.7669,6.7669,6.7669,6.7669,6.7669,6.7669,6.7669,6.7669,6.7669,6.7669,6.7669,6.7669,6.7669,6.7669,6.7669,6.7669,6.7669,6.7669,6.7669,6.7669,6.7669,6.7669,6.7669,6.7669,6.7669,6.7669,6.7669,6.7669,6.7669,6.7669,6.7669,6.7669,6.7669,6.7669,6.7669,6.7669,6.7669,6.7669,6.7669,6.7669,6.7669,6.7669,6.7669,6.7669,6.7669,6.7669,6.7669,6.7669,6.7669,6.7669,6.7669,6.7669,6.7669,6.7669,6.7669,6.7669,6.7669,6.7669,6.7669,6.7669,6.7669,6.7669,6.7669,6.7669,6.7669,6.7669,6.7669,6.7669,6.7669,6.7669,6.7669,6.7669,6.7669,6.7669,6.7669,6.7669,6.7669,6.7669,6.7669,6.7669,6.7669,6.7669,6.7696,6.7741,6.7767,6.7855,6.5702,6.5728,6.7116,6.7153,6.6245,6.5742,6.5356,6.4861,6.3594,6.3062,6.308,6.3069,6.321,6.3853,6.3247,6.3553,6.4533,6.3902,6.3773,6.3851,6.3172,6.2915,6.2823,6.286,6.3778,6.4861,6.5944,6.6824,6.7559,6.7669,6.7669,6.7669,6.7669,6.7669,6.7669,6.7669,6.7669,6.7669,6.7669,6.7669,6.7669,6.7669,6.7669,6.7669,6.7669,6.7669,6.7669,6.7669,6.7669,6.7669,6.7669,6.7669,6.7669,6.7669,6.7669,6.7669,6.7669,6.7669,6.7669,6.7669,6.7669,6.7669,6.7669,6.7669,6.7669,6.7669,6.7669,6.7669,6.7669,6.7669,6.7669,6.7669,6.7669,6.7669,6.7669,6.7669,6.7669,6.7669,6.7669,6.7669,6.7669,6.7669,6.7669,6.7669,6.7669,6.7669,6.7669,6.7669,6.7669,6.7669,6.7669,6.7669,6.7669,6.7669,6.7669,6.7669,6.7669,6.7669,6.7669,6.7669,6.7669,6.7669,6.7669,6.7669,6.7669,6.7669,6.7669,6.7669,6.7669,6.7669,6.7669,6.7714,6.7741,6.782,6.7933]}]]